[[{"header":{"parameterUnit":"m.s-1","parameterCategory":1,"la1":30.6,"la2":28.766,"lo1":-90.7593,"lo2":-88.6598,"dy":0.0162,"dx":0.0183,"nx":116,"ny":114,"refTime":"2023-07-16T00:00:00:Z","depth":0,"parameterNumber":2,"parameterNumberName":"U-component_of_WINDS"},"data":[0.0,0.0,0.0,0.0,0.0,0.0,0.0,0.0,0.0,0.0,0.0,0.0,0.0,0.0,0.0,0.0,0.0,0.0,0.0,0.0,0.0,0.0,0.0,0.0,0.0,0.0,0.0,0.0,0.0,0.0,0.0,0.0,0.0,0.0,0.0,0.0,0.0,0.0,0.0,0.0,0.0,0.0,0.0,0.0,0.0,0.0,0.0,0.0,0.0,0.0,0.0,0.0,0.0,0.0,0.0,0.0,0.0,0.0,0.0,0.0,0.0,0.0,0.0,0.0,0.0,0.0,0.0,0.0,0.0,0.0,0.0,0.0,0.0,0.0,0.0,0.0,0.0,0.0,0.0,0.0,0.0,0.0,0.0,0.0,0.0,0.0,0.0,0.0,0.0,0.0,0.0,0.0,0.0,0.0,0.0,0.0,0.0,0.0,0.0,0.0,0.0,0.0,0.0,0.0,0.0,0.0,0.0,0.0,0.0,0.0,0.0,0.0,0.0,0.0,0.0,0.0,0.0,0.0,0.0,0.0,0.0,0.0,0.0,0.0,0.0,0.0,0.0,0.0,0.0,0.0,0.0,0.0,0.0,0.0,0.0,0.0,0.0,0.0,0.0,0.0,0.0,0.0,0.0,0.0,0.0,0.0,0.0,0.0,0.0,0.0,0.0,0.0,0.0,0.0,0.0,0.0,0.0,0.0,0.0,0.0,0.0,0.0,0.0,0.0,0.0,0.0,0.0,0.0,0.0,0.0,0.0,0.0,0.0,0.0,0.0,0.0,0.0,0.0,0.0,0.0,0.0,0.0,0.0,0.0,0.0,0.0,0.0,0.0,0.0,0.0,0.0,0.0,0.0,0.0,0.0,0.0,0.0,0.0,0.0,0.0,0.0,0.0,0.0,0.0,0.0,0.0,0.0,0.0,0.0,0.0,0.0,0.0,0.0,0.0,0.0,0.0,0.0,0.0,0.0,0.0,0.0,0.0,0.0,0.0,0.0,0.0,0.0,0.0,0.0,0.0,0.0,0.0,0.0,0.0,0.0,0.0,0.0,0.0,0.0,0.0,0.0,0.0,0.0,0.0,0.0,0.0,0.0,0.0,0.0,0.0,0.0,0.0,0.0,0.0,0.0,0.0,0.0,0.0,0.0,0.0,0.0,0.0,0.0,0.0,0.0,0.0,0.0,0.0,0.0,0.0,0.0,0.0,0.0,0.0,0.0,0.0,0.0,0.0,0.0,0.0,0.0,0.0,0.0,0.0,0.0,0.0,0.0,0.0,0.0,0.0,0.0,0.0,0.0,0.0,0.0,0.0,0.0,0.0,0.0,0.0,0.0,0.0,0.0,0.0,0.0,0.0,0.0,0.0,0.0,0.0,0.0,0.0,0.0,0.0,0.0,0.0,0.0,0.0,0.0,0.0,0.0,0.0,0.0,0.0,0.0,0.0,0.0,0.0,0.0,0.0,0.0,0.0,0.0,0.0,0.0,0.0,0.0,0.0,0.0,0.0,0.0,0.0,0.0,0.0,0.0,0.0,0.0,0.0,0.0,0.0,0.0,0.0,0.0,0.0,0.0,0.0,0.0,0.0,0.0,0.0,0.0,0.0,0.0,0.0,0.0,0.0,0.0,0.0,0.0,0.0,0.0,0.0,0.0,0.0,0.0,0.0,0.0,0.0,0.0,0.0,0.0,0.0,0.0,0.0,0.0,0.0,0.0,0.0,0.0,0.0,0.0,0.0,0.0,0.0,0.0,0.0,0.0,0.0,0.0,0.0,0.0,0.0,0.0,0.0,0.0,0.0,0.0,0.0,0.0,0.0,0.0,0.0,0.0,0.0,0.0,0.0,0.0,0.0,0.0,0.0,0.0,0.0,0.0,0.0,0.0,0.0,0.0,0.0,0.0,0.0,0.0,0.0,0.0,0.0,0.0,0.0,0.0,0.0,0.0,0.0,0.0,0.0,0.0,0.0,0.0,0.0,0.0,0.0,0.0,0.0,0.0,0.0,0.0,0.0,0.0,0.0,0.0,0.0,0.0,0.0,0.0,0.0,0.0,0.0,0.0,0.0,0.0,0.0,0.0,0.0,0.0,0.0,0.0,0.0,0.0,0.0,0.0,0.0,0.0,0.0,0.0,0.0,0.0,0.0,0.0,0.0,0.0,0.0,0.0,0.0,0.0,0.0,0.0,0.0,0.0,0.0,0.0,0.0,0.0,0.0,0.0,0.0,0.0,0.0,0.0,0.0,0.0,0.0,0.0,0.0,0.0,0.0,0.0,0.0,0.0,0.0,0.0,0.0,0.0,0.0,0.0,0.0,0.0,0.0,0.0,0.0,0.0,0.0,0.0,0.0,0.0,0.0,0.0,0.0,0.0,0.0,0.0,0.0,0.0,0.0,0.0,0.0,0.0,0.0,0.0,0.0,0.0,0.0,0.0,0.0,0.0,0.0,0.0,0.0,0.0,0.0,0.0,0.0,0.0,0.0,0.0,0.0,0.0,0.0,0.0,0.0,0.0,0.0,0.0,0.0,0.0,0.0,0.0,0.0,0.0,0.0,0.0,0.0,0.0,0.0,0.0,0.0,0.0,0.0,0.0,0.0,0.0,0.0,0.0,0.0,0.0,0.0,0.0,0.0,0.0,0.0,0.0,0.0,0.0,0.0,0.0,0.0,0.0,0.0,0.0,0.0,0.0,0.0,0.0,0.0,0.0,0.0,0.0,0.0,0.0,0.0,0.0,0.0,0.0,0.0,0.0,0.0,0.0,0.0,0.0,0.0,0.0,0.0,0.0,0.0,0.0,0.0,0.0,0.0,0.0,0.0,0.0,0.0,0.0,0.0,0.0,0.0,0.0,0.0,0.0,0.0,0.0,0.0,0.0,0.0,0.0,0.0,0.0,0.0,0.0,0.0,0.0,0.0,0.0,0.0,0.0,0.0,0.0,0.0,0.0,0.0,0.0,0.0,0.0,0.0,0.0,0.0,0.0,0.0,0.0,0.0,0.0,0.0,0.0,0.0,0.0,0.0,0.0,0.0,0.0,0.0,0.0,0.0,0.0,0.0,0.0,0.0,0.0,0.0,0.0,0.0,0.0,0.0,0.0,0.0,0.0,0.0,0.0,0.0,0.0,0.0,0.0,0.0,0.0,0.0,0.0,0.0,0.0,0.0,0.0,0.0,0.0,0.0,0.0,0.0,0.0,0.0,0.0,0.0,0.0,0.0,0.0,0.0,0.0,0.0,0.0,0.0,0.0,0.0,0.0,0.0,0.0,0.0,0.0,0.0,0.0,0.0,0.0,0.0,0.0,0.0,0.0,0.0,0.0,0.0,0.0,0.0,0.0,0.0,0.0,0.0,0.0,0.0,0.0,0.0,0.0,0.0,0.0,0.0,0.0,0.0,0.0,0.0,0.0,0.0,0.0,0.0,0.0,0.0,0.0,0.0,0.0,0.0,0.0,0.0,0.0,0.0,0.0,0.0,0.0,0.0,0.0,0.0,0.0,0.0,0.0,0.0,0.0,0.0,0.0,0.0,0.0,0.0,0.0,0.0,0.0,0.0,0.0,0.0,0.0,0.0,0.0,0.0,0.0,0.0,0.0,0.0,0.0,0.0,0.0,0.0,0.0,0.0,0.0,0.0,0.0,0.0,0.0,0.0,0.0,0.0,0.0,0.0,0.0,0.0,0.0,0.0,0.0,0.0,0.0,0.0,0.0,0.0,0.0,0.0,0.0,0.0,0.0,0.0,0.0,0.0,0.0,0.0,0.0,0.0,0.0,0.0,0.0,0.0,0.0,0.0,0.0,0.0,0.0,0.0,0.0,0.0,0.0,0.0,0.0,0.0,0.0,0.0,0.0,0.0,0.0,0.0,0.0,0.0,0.0,0.0,0.0,0.0,0.0,0.0,0.0,0.0,0.0,0.0,0.0,0.0,0.0,0.0,0.0,0.0,0.0,0.0,0.0,0.0,0.0,0.0,0.0,0.0,0.0,0.0,0.0,0.0,0.0,0.0,0.0,0.0,0.0,0.0,0.0,0.0,0.0,0.0,0.0,0.0,0.0,0.0,0.0,0.0,0.0,0.0,0.0,0.0,0.0,0.0,0.0,0.0,0.0,0.0,0.0,0.0,0.0,0.0,0.0,0.0,0.0,0.0,0.0,0.0,0.0,0.0,0.0,0.0,0.0,0.0,0.0,0.0,0.0,0.0,0.0,0.0,0.0,0.0,0.0,0.0,0.0,0.0,0.0,0.0,0.0,0.0,0.0,0.0,0.0,0.0,0.0,0.0,0.0,0.0,0.0,0.0,0.0,0.0,0.0,0.0,0.0,0.0,0.0,0.0,0.0,0.0,0.0,0.0,0.0,0.0,0.0,0.0,0.0,0.0,0.0,0.0,0.0,0.0,0.0,0.0,0.0,0.0,0.0,0.0,0.0,0.0,0.0,0.0,0.0,0.0,0.0,0.0,0.0,0.0,0.0,0.0,0.0,0.0,0.0,0.0,0.0,0.0,0.0,0.0,0.0,0.0,0.0,0.0,0.0,0.0,0.0,0.0,0.0,0.0,0.0,0.0,0.0,0.0,0.0,0.0,0.0,0.0,0.0,0.0,0.0,0.0,0.0,0.0,0.0,0.0,0.0,0.0,0.0,0.0,0.0,0.0,0.0,0.0,0.0,0.0,0.0,0.0,0.0,0.0,0.0,0.0,0.0,0.0,0.0,0.0,0.0,0.0,0.0,0.0,0.0,0.0,0.0,0.0,0.0,0.0,0.0,0.0,0.0,0.0,0.0,0.0,0.0,0.0,0.0,0.0,0.0,0.0,0.0,0.0,0.0,0.0,0.0,0.0,0.0,0.0,0.0,0.0,0.0,0.0,0.0,0.0,0.0,0.0,0.0,0.0,0.0,0.0,0.0,0.0,0.0,0.0,0.0,0.0,0.0,0.0,0.0,0.0,0.0,0.0,0.0,0.0,0.0,0.0,0.0,0.0,0.0,0.0,0.0,0.0,0.0,0.0,0.0,0.0,0.0,0.0,0.0,0.0,0.0,0.0,0.0,0.0,0.0,0.0,0.0,0.0,0.0,0.0,0.0,0.0,0.0,0.0,0.0,0.0,0.0,0.0,0.0,0.0,0.0,0.0,0.0,0.0,0.0,0.0,0.0,0.0,0.0,0.0,0.0,0.0,0.0,0.0,0.0,0.0,0.0,0.0,0.0,0.0,0.0,0.0,0.0,0.0,0.0,0.0,0.0,0.0,0.0,0.0,0.0,0.0,0.0,0.0,0.0,0.0,0.0,0.0,0.0,0.0,0.0,0.0,0.0,0.0,0.0,0.0,0.0,0.0,0.0,0.0,0.0,0.0,0.0,0.0,0.0,0.0,0.0,0.0,0.0,0.0,0.0,0.0,0.0,0.0,0.0,0.0,0.0,0.0,0.0,0.0,0.0,0.0,0.0,0.0,0.0,0.0,0.0,0.0,0.0,0.0,0.0,0.0,0.0,0.0,0.0,0.0,0.0,0.0,0.0,0.0,0.0,0.0,0.0,0.0,0.0,0.0,0.0,0.0,0.0,0.0,0.0,0.0,0.0,0.0,0.0,0.0,0.0,0.0,0.0,0.0,0.0,0.0,0.0,0.0,0.0,0.0,0.0,0.0,0.0,0.0,0.0,0.0,0.0,0.0,0.0,0.0,0.0,0.0,0.0,0.0,0.0,0.0,0.0,0.0,0.0,0.0,0.0,0.0,0.0,0.0,0.0,0.0,0.0,0.0,0.0,0.0,0.0,0.0,0.0,0.0,0.0,0.0,0.0,0.0,0.0,0.0,0.0,0.0,0.0,0.0,0.0,0.0,0.0,0.0,0.0,0.0,0.0,0.0,0.0,0.0,0.0,0.0,0.0,0.0,0.0,0.0,0.0,0.0,0.0,0.0,0.0,0.0,0.0,0.0,0.0,0.0,0.0,0.0,0.0,0.0,0.0,0.0,0.0,0.0,0.0,0.0,0.0,0.0,0.0,0.0,0.0,0.0,0.0,0.0,0.0,0.0,0.0,0.0,0.0,0.0,0.0,0.0,0.0,0.0,0.0,0.0,0.0,0.0,0.0,0.0,0.0,0.0,0.0,0.0,-2.3569,0.0,0.0,0.0,0.0,0.0,0.0,0.0,0.0,0.0,0.0,0.0,0.0,0.0,0.0,0.0,0.0,0.0,0.0,0.0,0.0,0.0,0.0,0.0,0.0,0.0,0.0,0.0,0.0,0.0,0.0,0.0,0.0,0.0,0.0,0.0,0.0,0.0,0.0,0.0,-2.1121,-2.246,-2.3635,-2.3263,-2.238,-2.113,0.0,0.0,0.0,0.0,0.0,0.0,0.0,0.0,0.0,0.0,0.0,0.0,0.0,0.0,0.0,0.0,0.0,0.0,0.0,0.0,0.0,0.0,0.0,0.0,0.0,0.0,0.0,0.0,0.0,0.0,0.0,0.0,0.0,0.0,0.0,0.0,0.0,0.0,0.0,0.0,0.0,0.0,0.0,0.0,0.0,0.0,0.0,0.0,0.0,0.0,0.0,0.0,0.0,0.0,0.0,0.0,0.0,0.0,0.0,0.0,0.0,0.0,0.0,0.0,0.0,0.0,0.0,0.0,0.0,0.0,0.0,-2.5029,0.0,0.0,0.0,0.0,0.0,0.0,0.0,0.0,0.0,0.0,0.0,0.0,0.0,0.0,0.0,0.0,0.0,0.0,0.0,0.0,0.0,0.0,0.0,0.0,0.0,0.0,0.0,0.0,0.0,0.0,0.0,0.0,0.0,0.0,0.0,0.0,0.0,0.0,-2.3173,-2.5145,-2.7196,-2.7314,-2.6117,-2.3866,-2.3934,0.0,0.0,0.0,0.0,0.0,0.0,0.0,0.0,0.0,0.0,0.0,0.0,0.0,0.0,0.0,0.0,0.0,0.0,0.0,0.0,0.0,0.0,0.0,0.0,0.0,0.0,0.0,0.0,0.0,0.0,0.0,0.0,0.0,0.0,0.0,0.0,0.0,0.0,0.0,0.0,0.0,0.0,0.0,0.0,0.0,0.0,0.0,0.0,0.0,0.0,0.0,0.0,0.0,0.0,0.0,0.0,0.0,0.0,0.0,0.0,0.0,0.0,0.0,-3.1276,-3.2313,-3.3668,-3.3797,-3.4219,-3.4651,-3.0847,-2.8811,-2.811,0.0,0.0,0.0,0.0,0.0,0.0,0.0,0.0,0.0,0.0,0.0,0.0,0.0,0.0,0.0,0.0,0.0,0.0,0.0,0.0,0.0,0.0,0.0,0.0,0.0,0.0,0.0,0.0,0.0,0.0,0.0,0.0,0.0,0.0,-2.0907,-2.2045,-2.2809,-2.6336,-2.8525,-2.9486,-3.0237,-3.0395,-2.9922,-2.7385,-2.6201,-2.6065,0.0,0.0,0.0,0.0,0.0,0.0,0.0,0.0,0.0,0.0,0.0,0.0,0.0,0.0,0.0,0.0,0.0,0.0,0.0,0.0,0.0,0.0,0.0,0.0,0.0,0.0,0.0,0.0,0.0,0.0,0.0,0.0,0.0,0.0,0.0,0.0,0.0,0.0,0.0,0.0,0.0,-1.8132,-1.969,0.0,0.0,0.0,0.0,0.0,0.0,0.0,0.0,0.0,0.0,0.0,0.0,0.0,-2.9933,-3.1237,-3.2085,-3.3153,-3.4464,-3.5208,-3.5958,-3.6745,-3.7376,-3.7716,-3.776,-3.6551,0.0,-3.121,-3.1114,0.0,0.0,0.0,0.0,0.0,0.0,0.0,0.0,0.0,0.0,0.0,0.0,0.0,0.0,0.0,0.0,0.0,0.0,0.0,0.0,0.0,0.0,0.0,0.0,0.0,0.0,0.0,0.0,0.0,0.0,0.0,0.0,0.0,-2.2815,-2.4829,-2.6991,-2.9119,-3.0946,-3.2482,-3.2878,-3.3313,-3.3718,-3.1987,-3.0253,-2.8624,-2.7981,0.0,0.0,0.0,0.0,0.0,0.0,0.0,0.0,0.0,0.0,0.0,0.0,0.0,0.0,0.0,0.0,0.0,0.0,0.0,0.0,0.0,0.0,0.0,0.0,0.0,0.0,0.0,0.0,0.0,0.0,0.0,0.0,0.0,0.0,0.0,0.0,0.0,0.0,0.0,-1.8413,-2.0479,-2.1924,-2.2685,-2.3268,0.0,0.0,0.0,0.0,0.0,0.0,0.0,0.0,0.0,-3.172,-3.2886,-3.3971,-3.4965,-3.5704,-3.6594,-3.7626,-3.7938,-3.844,-3.912,-3.9428,-3.9573,-3.9557,-3.9233,-3.7959,-3.6007,-3.439,-3.2619,-3.0898,0.0,0.0,0.0,0.0,-2.7672,-2.7672,0.0,0.0,0.0,0.0,0.0,0.0,0.0,0.0,0.0,0.0,0.0,0.0,0.0,0.0,0.0,-2.4448,0.0,0.0,0.0,0.0,0.0,0.0,0.0,0.0,0.0,-2.5196,-2.7711,-3.0299,-3.1658,-3.319,-3.4842,-3.5248,-3.579,-3.6411,-3.5871,-3.4065,-3.1353,-3.0546,-2.9333,-2.7841,0.0,0.0,0.0,0.0,0.0,0.0,0.0,0.0,0.0,0.0,0.0,0.0,0.0,0.0,0.0,0.0,0.0,0.0,0.0,0.0,0.0,0.0,0.0,0.0,0.0,0.0,0.0,0.0,0.0,0.0,0.0,0.0,0.0,0.0,0.0,0.0,0.0,-2.1055,-2.2867,-2.4441,-2.5234,-2.5929,0.0,0.0,0.0,0.0,0.0,0.0,-3.1484,-3.253,-3.3744,-3.5153,-3.6448,-3.7355,-3.7873,-3.8764,-3.9573,-4.0286,-4.0286,-4.0642,-4.1306,-4.1128,-4.1047,-4.1031,-4.0853,-4.051,-3.9846,-3.714,-3.524,-3.3951,-3.3007,-3.2297,-3.1678,-3.0955,-3.0674,-3.0674,0.0,0.0,0.0,0.0,0.0,0.0,0.0,0.0,0.0,0.0,0.0,0.0,0.0,0.0,-2.5259,-2.602,-2.7363,-2.758,0.0,0.0,0.0,0.0,0.0,0.0,0.0,0.0,-3.0198,-3.114,-3.3977,-3.5497,-3.5771,-3.7234,-3.7995,-3.8162,-3.8197,-3.6894,-3.4579,-3.3208,-3.1754,-3.0209,-2.8783,0.0,0.0,0.0,0.0,0.0,0.0,0.0,0.0,0.0,0.0,0.0,0.0,0.0,0.0,0.0,0.0,0.0,0.0,0.0,0.0,0.0,0.0,0.0,0.0,0.0,0.0,0.0,0.0,0.0,0.0,0.0,0.0,0.0,0.0,0.0,0.0,0.0,0.0,-2.745,-2.8323,0.0,0.0,0.0,0.0,-3.1688,-3.2449,-3.3777,-3.5866,-3.606,-3.674,-3.8132,-3.8926,-3.9376,-3.9408,-4.0753,-4.1776,-4.2441,-4.2441,-4.2829,-4.3524,-4.2797,-4.2489,-4.2457,-4.1808,-4.1531,-4.1336,-3.9136,-3.7792,-3.6939,-3.5574,-3.4991,-3.4878,-3.4149,-3.3865,-3.3865,0.0,0.0,0.0,0.0,0.0,0.0,0.0,0.0,0.0,0.0,0.0,0.0,0.0,-2.4779,-2.6303,-2.7495,-2.8094,-2.8177,-2.7644,0.0,0.0,0.0,0.0,0.0,0.0,0.0,-3.1887,-3.416,-3.5213,-3.6554,-3.8133,-3.8679,-3.9262,-3.9825,-3.9335,-3.8694,-3.7846,-3.5893,-3.4212,-3.2734,-3.1234,-2.9625,0.0,0.0,0.0,0.0,0.0,0.0,0.0,0.0,0.0,0.0,0.0,0.0,0.0,0.0,0.0,0.0,0.0,0.0,0.0,0.0,0.0,0.0,0.0,0.0,0.0,0.0,0.0,0.0,0.0,0.0,0.0,0.0,0.0,0.0,0.0,0.0,0.0,-2.9791,-3.074,0.0,0.0,-3.3885,-3.4608,-3.4885,-3.5886,-3.7048,-3.8278,-3.8764,-3.9654,-4.1049,-4.1824,-4.2423,-4.2893,-4.3395,-4.3767,-4.4026,-4.4026,-4.4156,-4.4383,-4.3654,-4.3298,-4.3281,-4.2569,-4.2245,-4.2164,-4.0934,-4.0011,-3.9266,-3.8339,-3.7982,-3.7836,-3.661,-3.6147,-3.6082,0.0,0.0,0.0,0.0,0.0,0.0,0.0,0.0,0.0,0.0,0.0,-2.1647,-2.41,-2.569,-2.7147,-2.8605,-2.8953,-2.9003,-2.8738,0.0,0.0,0.0,-2.8767,0.0,0.0,-3.2175,-3.3748,-3.5805,-3.6616,-3.7866,-3.947,-3.972,-4.0168,-4.0752,-4.0259,-4.0089,-4.0061,-3.8325,-3.6568,-3.4857,-3.3632,-3.2106,-3.0418,0.0,0.0,0.0,0.0,0.0,0.0,0.0,0.0,0.0,0.0,0.0,0.0,0.0,0.0,0.0,0.0,0.0,0.0,0.0,0.0,0.0,0.0,0.0,0.0,0.0,0.0,0.0,0.0,0.0,0.0,0.0,0.0,0.0,0.0,0.0,-2.9568,-3.2147,-3.3313,-3.4381,-3.5588,-3.6869,-3.7747,-3.7992,-3.9023,-4.0073,-4.1078,-4.1536,-4.2317,-4.3473,-4.3976,-4.4464,-4.4968,-4.5228,-4.5309,-4.5243,-4.5243,-4.521,-4.5111,-4.4399,-4.3945,-4.3686,-4.3169,-4.2829,-4.257,-4.2132,-4.1646,-4.1128,-4.0189,-3.9862,-3.9703,-3.8748,-3.8391,-3.8327,0.0,0.0,0.0,0.0,0.0,0.0,0.0,0.0,0.0,0.0,-1.9392,-2.1862,-2.4812,-2.6453,-2.7912,-2.9297,-3.0075,-3.0191,-2.9499,-2.957,0.0,0.0,0.0,0.0,-3.1345,-3.4262,-3.5839,-3.5929,-3.8293,-3.9521,-3.9697,-4.0429,-4.0838,-4.0981,-4.1099,-4.1145,-4.1117,-4.0416,-3.8782,-3.6558,-3.5829,-3.4216,-3.2073,0.0,0.0,0.0,0.0,0.0,0.0,0.0,0.0,0.0,0.0,0.0,0.0,0.0,0.0,0.0,0.0,0.0,0.0,0.0,0.0,0.0,0.0,0.0,0.0,0.0,0.0,0.0,0.0,0.0,0.0,0.0,0.0,0.0,-2.8379,-3.0328,-3.2447,-3.4567,-3.6075,-3.7209,-3.7859,-3.9193,-4.0308,-4.1025,-4.1766,-4.2832,-4.4258,-4.4356,-4.4668,-4.5308,-4.5357,-4.5357,-4.5357,-4.6061,-4.6339,-4.6124,-4.6124,-4.6057,-4.5807,-4.5127,-4.4447,-4.3767,-4.3735,-4.3282,-4.2635,-4.2619,-4.2602,-4.2457,-4.1096,-4.0561,-4.0545,-4.0529,-4.0513,-4.0496,0.0,0.0,0.0,0.0,0.0,0.0,0.0,0.0,0.0,0.0,-1.9823,-2.2609,-2.559,-2.7197,-2.8655,-3.0075,-3.0472,-3.0567,-3.0368,0.0,0.0,0.0,0.0,0.0,-3.4521,-3.5358,-3.6694,-3.8574,-3.9757,-4.0686,-4.1364,-4.214,-4.2593,-4.268,-4.2126,-4.1955,-4.1997,-4.133,-4.0363,-3.9085,-3.7205,-3.6112,-3.5421,0.0,0.0,0.0,0.0,0.0,0.0,0.0,0.0,0.0,0.0,0.0,0.0,0.0,0.0,0.0,0.0,0.0,0.0,0.0,0.0,0.0,0.0,0.0,0.0,0.0,0.0,0.0,0.0,0.0,0.0,0.0,0.0,-3.058,-3.0122,-3.1883,-3.4197,-3.6919,-3.806,-3.9119,-4.0304,-4.1626,-4.2535,-4.2716,-4.3779,-4.4587,-4.498,-4.5553,-4.593,-4.6078,-4.6602,-4.6913,-4.6913,-4.711,-4.7175,-4.7108,-4.7108,-4.7108,-4.7008,-4.614,-4.5635,-4.5391,-4.4221,-4.3557,-4.3379,-4.2813,-4.2602,-4.2554,-4.2166,-4.2004,-4.1939,-4.1468,-4.098,-4.0496,0.0,0.0,0.0,0.0,0.0,0.0,0.0,0.0,0.0,0.0,-1.974,-2.246,-2.5425,-2.6803,-2.8234,-2.9958,-3.0225,-3.0419,-3.0757,0.0,0.0,0.0,0.0,-3.4834,-3.5771,-3.6853,-3.8134,-3.9611,-4.07,-4.1512,-4.2089,-4.2926,-4.3363,-4.3451,-4.2693,-4.2392,-4.2434,-4.1826,-4.1336,-4.0775,-3.9132,-3.7908,-3.689,-3.559,-3.4393,-3.3231,-3.2001,-3.1213,-3.0585,-2.9449,0.0,0.0,0.0,0.0,0.0,0.0,0.0,0.0,0.0,0.0,0.0,0.0,0.0,0.0,0.0,0.0,0.0,0.0,0.0,0.0,0.0,0.0,0.0,0.0,-3.1991,-3.3235,-3.3985,-3.5045,-3.6489,-3.8489,-3.9862,-4.1077,-4.2191,-4.3307,-4.4202,-4.4814,-4.5561,-4.6107,-4.6404,-4.7128,-4.7523,-4.7523,-4.8247,-4.8626,-4.8626,-4.8626,-4.8427,-4.8048,-4.8048,-4.7866,-4.747,-4.6927,-4.6535,0.0,-4.5228,-4.4659,-4.4317,-4.3553,-4.326,0.0,0.0,0.0,0.0,0.0,-4.1743,-4.1387,0.0,0.0,0.0,0.0,0.0,0.0,0.0,0.0,0.0,0.0,0.0,-2.1763,-2.4547,-2.5711,-2.7129,-2.9179,-2.9507,-2.9953,0.0,0.0,0.0,-3.2449,-3.4691,-3.5975,-3.6088,-3.8397,-3.9645,-3.9754,-4.1364,-4.221,-4.2347,-4.3256,-4.3729,-4.384,-4.308,-4.2742,-4.2736,-4.2062,-4.1819,-4.177,-4.117,-3.9575,-3.7517,-3.7474,-3.6445,-3.4976,-3.4235,-3.3829,-3.3442,-3.2054,0.0,0.0,0.0,0.0,0.0,0.0,0.0,0.0,0.0,0.0,0.0,0.0,0.0,0.0,0.0,0.0,0.0,0.0,0.0,0.0,0.0,0.0,0.0,0.0,-3.4525,-3.5919,-3.8672,-3.8991,-3.9187,-3.9811,-4.1538,-4.2962,-4.3678,-4.4503,-4.5514,-4.6792,-4.6974,-4.7355,-4.8084,0.0,0.0,0.0,0.0,-5.022,-5.022,-5.022,-4.977,-4.8974,-4.8875,-4.8445,-4.7668,-4.7586,-4.7159,-4.6536,-4.6454,-4.6012,-4.5357,-4.462,-4.4276,-4.4097,-4.3035,-4.2634,-4.2634,-4.2634,-4.2634,-4.2665,0.0,0.0,0.0,0.0,0.0,0.0,0.0,0.0,0.0,-1.6503,-1.8995,-2.1379,-2.3217,-2.5146,-2.6731,-2.782,-2.8548,-2.9349,0.0,0.0,-3.3207,-3.3349,-3.5545,-3.7121,-3.7888,-3.902,-3.995,-4.0664,-4.2303,-4.312,-4.318,-4.4667,-4.5411,-4.5484,-4.4093,-4.3623,-4.3715,-4.2357,-4.1862,-4.1948,-4.1877,-4.1129,-3.9949,-3.8732,-3.767,-3.6712,-3.5934,-3.5171,-3.4499,-3.4217,-3.353,-3.2687,-3.195,0.0,0.0,0.0,0.0,0.0,0.0,0.0,0.0,0.0,0.0,0.0,0.0,0.0,0.0,0.0,0.0,0.0,0.0,0.0,0.0,-3.6797,-3.8197,-3.9386,-4.0561,-4.1627,-4.2271,-4.2312,-4.3203,-4.4019,-4.4604,-4.5901,-4.6768,-4.6874,-4.7454,-4.8117,-4.8862,-4.9028,0.0,-4.9988,-5.0137,-5.022,-5.022,-5.022,-5.0103,-4.992,0.0,0.0,-4.8762,-4.8001,-4.7572,-4.7408,-4.6701,-4.6307,-4.611,-4.539,-4.4734,-4.4097,-4.3207,-4.2837,-4.2837,-4.2837,-4.2914,-4.3005,0.0,0.0,0.0,0.0,0.0,0.0,0.0,0.0,0.0,0.0,-1.8315,-2.0373,-2.2295,-2.3542,-2.4844,-2.6369,-2.797,0.0,0.0,-3.2229,-3.3528,-3.359,-3.6239,-3.7929,-3.8402,-3.9623,-4.0509,-4.1,-4.2213,-4.3055,-4.3582,-4.4799,-4.5656,-4.6133,-4.4582,-4.4014,-4.4087,-4.2603,-4.1995,-4.2055,-4.2163,-4.1742,-4.0922,-3.967,-3.8672,-3.7852,-3.7035,-3.6465,-3.5984,-3.5578,-3.5134,-3.462,-3.3846,-3.2493,-3.1039,0.0,0.0,0.0,0.0,0.0,0.0,0.0,0.0,0.0,0.0,0.0,0.0,0.0,0.0,-3.337,0.0,0.0,-3.7246,-3.9474,-4.0356,-4.1163,-4.2291,-4.2936,-4.3244,-4.3132,-4.4021,-4.4905,-4.5551,-4.6636,-4.7406,-4.7693,-4.8377,-4.896,-4.9326,-5.0043,-5.0575,-5.0855,-5.1186,-5.135,-5.1297,-5.1297,-5.1115,-5.075,-5.0369,-4.9806,-4.9094,-4.8613,-4.82,-4.7836,-4.7375,-4.7194,-4.7128,-4.6386,-4.563,-4.4861,-4.4437,-4.3753,-4.3007,-4.3007,-4.3021,-4.3113,0.0,0.0,0.0,0.0,0.0,0.0,0.0,0.0,0.0,0.0,-1.7521,-1.9156,-2.1164,-2.1737,-2.2803,0.0,0.0,0.0,0.0,-3.2004,-3.3458,-3.3632,-3.6559,-3.8265,-3.8425,-3.9916,-4.0844,-4.1093,-4.1886,-4.2682,-4.3506,-4.4358,-4.5185,-4.5887,-4.4535,-4.3986,-4.401,-4.2704,-4.2145,-4.2166,-4.2129,-4.1801,-4.1196,-4.0152,-3.9288,-3.8553,-3.7732,-3.7303,-3.7016,-3.636,-3.5985,-3.5646,-3.4852,-3.3706,-3.2581,-3.2282,-3.0809,0.0,0.0,0.0,0.0,0.0,0.0,0.0,0.0,0.0,-3.418,-3.4855,-3.5635,-3.6831,-3.8734,-3.9043,-3.9651,-4.1756,-4.1972,-4.2363,-4.3759,-4.382,-4.3667,-4.3574,-4.4584,-4.5559,-4.6267,-4.6991,-4.7728,-4.8465,-4.917,-4.9655,-4.9806,-5.1078,-5.1797,-5.1759,-5.2359,-5.2605,-5.2445,-5.2445,-5.2111,-5.1514,-5.1382,-5.0667,-4.9525,-4.9243,-4.8779,-4.8216,-4.8067,-4.8001,-4.7951,-4.7355,-4.6628,-4.584,-4.584,-4.4922,-4.3598,-4.3436,-4.3305,-4.3221,0.0,0.0,0.0,0.0,0.0,0.0,0.0,0.0,0.0,0.0,0.0,0.0,0.0,0.0,0.0,0.0,0.0,0.0,-2.801,-3.0917,-3.2974,-3.3755,-3.6122,-3.7794,-3.8555,-3.9513,-4.036,-4.1093,-4.2073,-4.2608,-4.2742,-4.3716,-4.4254,-4.4313,-4.3567,-4.3306,-4.3358,-4.2599,-4.2346,-4.2391,-4.1758,-4.1456,-4.1242,-3.975,-3.9066,-3.8759,-3.788,-3.7076,-3.6398,-3.631,-3.5723,-3.4889,-3.4146,-3.3758,-3.3283,-3.1838,0.0,-3.0774,-2.9992,-3.0172,-3.0958,-3.2387,-3.3218,-3.3867,0.0,0.0,-3.7974,-3.8099,-3.925,-4.0526,-4.144,-4.1491,-4.195,-4.3563,-4.3707,-4.3919,-4.4739,-4.4831,-4.4831,-4.4804,-4.5292,-4.5857,-4.64,-4.7157,-4.7835,-4.8448,-4.917,-4.989,-5.0559,-5.1346,-5.21,-5.2718,-5.2818,-5.2764,-5.257,-5.257,-5.2466,-5.2293,-5.163,-5.1216,-5.1017,-4.969,-4.9061,-4.8945,-4.8282,-4.8001,-4.8001,-4.7918,-4.7438,-4.6743,-4.6743,-4.6247,-4.5404,-4.4622,-4.3993,-4.3651,0.0,0.0,0.0,0.0,0.0,0.0,0.0,0.0,0.0,0.0,0.0,0.0,0.0,0.0,0.0,0.0,0.0,0.0,-2.7182,-3.0195,-3.2303,-3.3188,-3.5469,-3.7124,-3.7992,-3.9247,-4.0157,-4.0622,-4.1503,-4.2193,-4.2768,-4.3193,-4.3734,-4.4311,-4.3558,-4.3294,-4.3414,-4.2223,-4.1767,-4.1776,-4.1007,-4.047,-3.9986,-3.8852,-3.8097,-3.7629,-3.7219,-3.6522,0.0,0.0,-3.5438,-3.496,-3.4641,-3.4199,-3.3688,-3.3424,-3.3019,0.0,-3.3213,-3.3526,-3.4222,0.0,-3.6847,-3.7321,-3.856,-3.9872,-4.0816,-4.0816,-4.1631,-4.2587,-4.3331,-4.3345,-4.3605,0.0,-4.473,-4.4753,-4.5062,-4.5059,-4.5005,-4.5005,-4.5158,-4.5682,-4.6692,-4.7385,-4.8054,-4.8748,-4.9862,-5.067,-5.0973,-5.2118,-5.2876,-5.3076,-5.3076,-5.2972,-5.2764,-5.2764,-5.2746,-5.2676,-5.2394,-5.2027,-5.1577,-5.096,-5.0193,-4.9343,-4.8593,-4.8308,-4.8308,-4.8308,-4.8029,-4.765,-4.765,-4.7169,-4.6344,-4.5553,-4.509,-4.492,0.0,0.0,0.0,0.0,0.0,0.0,0.0,0.0,0.0,0.0,0.0,0.0,0.0,0.0,0.0,0.0,0.0,0.0,0.0,-2.9125,-3.1166,-3.2423,-3.4367,-3.6004,-3.7282,-3.8452,-3.9364,-3.9975,-4.0578,-4.1253,-4.1974,-4.2017,-4.2465,-4.3188,-4.2643,-4.2498,-4.2573,-4.1504,-4.1098,-4.1067,-4.0058,-3.9409,-3.8865,-3.7767,-3.6883,-3.623,-3.6332,-3.5817,0.0,0.0,-3.4809,-3.4529,-3.4512,-3.4036,-3.3667,-3.4341,-3.4447,-3.4586,-3.5795,0.0,0.0,-3.9266,-3.9901,-4.0358,-4.1666,-4.2533,-4.3032,-4.3032,-4.3579,-4.4235,-4.4773,-4.475,-4.482,-4.5363,-4.5327,-4.5247,-4.5247,-4.5167,-4.5113,-4.5113,-4.5086,-4.5603,-4.701,-4.7454,-4.8047,-4.8978,-5.0388,-5.1185,-5.1185,-5.2672,-5.3416,-5.3298,-5.3264,-5.3195,-5.2972,-5.2972,-5.2938,-5.2903,-5.2903,-5.2619,-5.2083,-5.1681,-5.0794,-4.9555,-4.8802,-4.8515,-4.8515,-4.8515,-4.842,-4.8292,-4.8292,-4.7911,-4.7283,-4.6751,-4.6223,-4.5814,0.0,0.0,0.0,0.0,0.0,0.0,0.0,0.0,0.0,0.0,0.0,0.0,0.0,0.0,0.0,0.0,0.0,0.0,0.0,-2.7482,-2.9368,-3.1529,-3.2631,-3.4233,-3.6485,-3.6757,-3.763,-3.9136,-3.942,-3.9559,-3.9614,-3.9797,-3.9895,-3.9951,-4.0131,-4.019,-4.0229,-4.0363,-4.0474,-4.0401,-3.8947,-3.8376,-3.8225,-3.6581,-3.546,-3.4827,-3.5355,0.0,0.0,0.0,-3.3711,-3.3051,-3.2987,-3.2889,0.0,-3.3716,-3.4871,-3.6066,0.0,0.0,-3.9564,-4.1126,-4.2006,-4.2684,-4.3453,-4.4143,-4.4627,-4.4627,-4.5212,-4.5743,-4.576,-4.5632,-4.5572,-4.5589,-4.5476,-4.5397,-4.5397,-4.5397,-4.5397,-4.5397,-4.5274,-4.5795,0.0,-4.721,-4.7619,-4.908,-5.0435,-5.1185,-5.1185,-5.2672,-5.3501,-5.3501,-5.3501,-5.3382,-5.3179,-5.3179,-5.3076,-5.2903,-5.2903,-5.2886,-5.2819,-5.1396,-5.0325,-4.9555,-4.8802,-4.8515,-4.8515,-4.8515,-4.8483,-4.8483,-4.8483,-4.8467,-4.845,-4.8433,-4.7325,-4.5897,0.0,0.0,0.0,0.0,0.0,0.0,0.0,0.0,0.0,0.0,0.0,0.0,0.0,0.0,0.0,0.0,0.0,0.0,0.0,-2.6092,-2.8097,-2.942,-3.1286,-3.2936,-3.4278,-3.5475,-3.6341,-3.6911,-3.7594,-3.7956,-3.8035,-3.817,-3.8286,-3.8417,-3.849,-3.8582,-3.869,-3.8272,-3.8139,-3.8165,-3.7176,-3.6786,-3.6619,-3.5001,-3.4218,-3.3858,0.0,0.0,0.0,0.0,-3.2101,-3.2192,-3.2176,-3.2864,-3.4012,-3.5723,-3.6891,-3.8035,-3.9735,0.0,-4.145,-4.3435,-4.4091,-4.4447,-4.5201,-4.552,-4.5572,-4.5064,-4.5096,-4.504,-4.4516,-4.4289,-4.419,-4.419,-4.4617,-4.4913,-4.4811,-4.5217,-4.5502,-4.5397,-4.5371,0.0,0.0,0.0,0.0,-4.9278,-5.0717,-5.152,-5.152,-5.2869,-5.3634,-5.3634,-5.3551,-5.3467,-5.3382,-5.3382,-5.3348,-5.3314,-5.3314,-5.3314,-5.3247,-5.2219,-5.1343,-5.0601,-4.9892,-4.9285,-4.8846,-4.8846,-4.8784,-4.8707,-4.8707,-4.8627,-4.8515,-4.8515,-4.8102,-4.7623,0.0,0.0,0.0,0.0,0.0,0.0,0.0,0.0,0.0,0.0,0.0,0.0,0.0,0.0,0.0,0.0,0.0,0.0,0.0,0.0,-2.6149,-2.7555,-2.9365,-3.0872,-3.2004,-3.3385,-3.4264,-3.4619,-3.5485,-3.5985,-3.6076,-3.6506,-3.6613,-3.6449,-3.6502,-3.6443,-3.6286,-3.5876,-3.5768,-3.5821,-3.5064,-3.4765,-3.4647,-3.3282,-3.2789,0.0,0.0,0.0,0.0,-3.1321,-3.1596,-3.1996,-3.2509,-3.3897,-3.5632,-3.7003,-3.8527,-4.0081,-4.1481,-4.2485,-4.3469,-4.4894,-4.5434,-4.5745,-4.6172,-4.6059,-4.5743,-4.5203,-4.4587,-4.3997,-4.3465,-4.3039,-4.284,-4.3136,-4.3558,-4.4031,-4.4513,-4.4973,-4.5346,-4.552,-4.5797,0.0,0.0,0.0,0.0,-4.9474,-5.0902,-5.1694,-5.1694,-5.3031,-5.3816,-5.3816,-5.3734,-5.3685,-5.3685,-5.3685,-5.3651,-5.3584,-5.3584,-5.3551,-5.3467,-5.2672,-5.2046,-5.1555,-5.0811,-5.0219,-4.9796,-4.9796,-4.975,-4.9656,-4.9656,-4.9575,-4.9463,-4.9463,-4.9463,-4.9379,0.0,0.0,0.0,0.0,0.0,0.0,0.0,0.0,0.0,0.0,0.0,0.0,0.0,0.0,0.0,0.0,0.0,0.0,0.0,0.0,0.0,-2.5937,-2.6929,-2.8169,-2.9697,-3.0582,-3.1437,-3.2313,-3.3173,-3.363,-3.375,-3.4719,-3.4766,-3.4031,-3.4171,-3.3831,-3.3186,-3.3321,-3.3468,-3.3506,-3.2752,-3.2494,-3.2436,-3.1565,0.0,0.0,0.0,0.0,0.0,0.0,0.0,0.0,-3.3918,-3.5879,-3.7666,-3.7643,-3.9811,-4.2171,-4.2229,-4.3868,-4.5586,-4.5599,-4.613,-4.6601,-4.6394,-4.5788,-4.5194,-4.4987,-4.3711,-4.2622,0.0,0.0,-4.1473,-4.2242,-4.2358,-4.2873,-4.4376,-4.4655,-4.5003,0.0,0.0,0.0,0.0,0.0,0.0,-4.9767,0.0,-5.1725,-5.1725,-5.3192,-5.4013,-5.4013,-5.4013,-5.398,-5.398,-5.398,-5.3915,-5.3717,-5.3717,-5.3668,-5.35,-5.2756,-5.2366,-5.2299,-5.1572,-5.1251,-5.1217,-5.1217,-5.1217,-5.1217,-5.1217,-5.1217,-5.1217,-5.1217,-5.1217,-5.0982,0.0,0.0,0.0,0.0,0.0,0.0,0.0,0.0,0.0,0.0,0.0,0.0,0.0,0.0,0.0,0.0,0.0,0.0,0.0,0.0,0.0,0.0,0.0,0.0,0.0,0.0,0.0,-2.9958,-3.0247,-3.0696,-3.1375,-3.1732,-3.1853,-3.1755,-3.1841,-3.1785,-3.1669,-3.1805,-3.1884,-3.1905,0.0,-3.1684,-3.1623,0.0,0.0,0.0,0.0,0.0,0.0,0.0,0.0,0.0,0.0,-3.7614,-3.8901,-4.0556,-4.2032,-4.3487,-4.5125,-4.6026,-4.6583,-4.7092,-4.7351,-4.7174,-4.5941,-4.5092,-4.4203,-4.2957,-4.1466,-4.0151,0.0,0.0,0.0,-3.9207,-4.0692,0.0,-4.3022,-4.4115,0.0,-4.656,0.0,-4.7509,-4.8812,-4.9124,0.0,0.0,-5.1713,-5.2066,-5.2066,-5.3384,-5.4143,-5.4143,-5.4045,-5.398,-5.398,-5.398,-5.398,-5.3915,-5.3915,-5.3932,-5.3866,-5.3645,-5.3253,-5.2742,-5.2554,-5.2145,-5.1648,-5.1648,-5.1648,-5.1648,-5.1648,-5.1648,-5.1648,-5.1648,-5.1648,-5.1597,0.0,0.0,0.0,0.0,0.0,0.0,0.0,0.0,0.0,0.0,0.0,0.0,0.0,0.0,0.0,0.0,0.0,0.0,0.0,0.0,0.0,0.0,0.0,0.0,0.0,0.0,0.0,0.0,0.0,0.0,-2.9019,-2.951,-2.9588,-2.9367,-2.9432,-2.9323,-2.9095,-2.9162,0.0,0.0,0.0,0.0,0.0,0.0,0.0,0.0,0.0,0.0,0.0,0.0,0.0,-3.5191,-3.7197,-3.9049,-4.0729,-4.1993,0.0,-4.5298,-4.6555,-4.7387,-4.7915,-4.7968,-4.7696,-4.7015,-4.5389,-4.4143,-4.2863,-4.1223,-3.9626,0.0,0.0,0.0,0.0,0.0,0.0,0.0,-4.1966,-4.3489,-4.5005,0.0,-4.7255,0.0,-4.9288,-5.0003,-5.0743,0.0,-5.2119,-5.2584,-5.2931,-5.3963,-5.4526,-5.448,-5.4385,-5.4321,-5.4207,-5.4224,-5.4192,-5.4078,-5.4078,-5.4045,-5.398,-5.398,-5.3758,-5.3365,0.0,-5.3158,-5.2765,-5.2765,-5.2765,-5.2765,-5.2765,-5.2765,-5.2765,-5.2765,-5.2765,-5.2765,0.0,0.0,0.0,0.0,0.0,0.0,0.0,0.0,0.0,0.0,0.0,0.0,0.0,0.0,0.0,0.0,0.0,0.0,0.0,0.0,0.0,0.0,0.0,0.0,0.0,0.0,0.0,0.0,0.0,0.0,0.0,0.0,0.0,0.0,0.0,0.0,0.0,0.0,0.0,0.0,0.0,0.0,0.0,0.0,0.0,0.0,0.0,0.0,0.0,0.0,-3.4999,-3.7008,-3.8019,-4.0327,-4.2723,-4.281,-4.4915,-4.7204,-4.7329,-4.8306,-4.9156,-4.852,-4.7681,-4.6529,-4.4778,-4.3049,-4.1301,-3.9529,0.0,-3.6465,-3.565,0.0,-3.5013,-3.6297,0.0,-3.8921,-4.1033,-4.2756,-4.4407,-4.6052,-4.7598,-4.8819,-4.9511,-5.0965,-5.1899,-5.188,-5.2538,-5.3223,-5.3873,-5.4622,-5.4948,-5.4842,-5.4811,-5.4731,-5.4575,-5.4575,-5.4463,-5.4303,-5.4303,-5.4239,-5.4143,-5.4143,-5.4143,-5.4143,0.0,0.0,-5.4143,-5.4143,-5.4143,-5.4143,-5.4143,-5.4143,-5.4143,-5.4143,-5.4143,-5.4143,0.0,0.0,0.0,0.0,0.0,0.0,0.0,0.0,0.0,0.0,-1.4743,0.0,0.0,0.0,0.0,0.0,0.0,0.0,0.0,0.0,0.0,0.0,0.0,0.0,0.0,0.0,0.0,0.0,0.0,0.0,0.0,0.0,0.0,0.0,0.0,0.0,0.0,0.0,0.0,0.0,0.0,0.0,0.0,0.0,0.0,0.0,0.0,0.0,0.0,0.0,-3.5184,-3.7406,-3.9354,-4.1663,-4.3768,-4.4389,-4.6306,-4.8362,-4.891,-4.9245,-4.9424,-4.918,-4.805,-4.6409,-4.4171,-4.1907,0.0,0.0,0.0,-3.3325,-3.2527,-3.2727,0.0,-3.3334,0.0,0.0,0.0,0.0,-4.4062,0.0,0.0,0.0,0.0,0.0,0.0,0.0,0.0,0.0,-5.389,-5.4622,-5.4992,-5.4961,-5.4978,-5.4961,-5.49,-5.49,-5.49,-5.4869,-5.4869,-5.4869,-5.4838,-5.4838,-5.4838,-5.4838,-5.4838,0.0,-5.4838,-5.4838,-5.4838,-5.4838,-5.4838,-5.4838,-5.4838,-5.4838,-5.4838,-5.4838,0.0,0.0,0.0,0.0,0.0,0.0,0.0,0.0,0.0,0.0,-1.5836,-1.6228,0.0,0.0,0.0,0.0,0.0,0.0,0.0,0.0,0.0,0.0,0.0,0.0,0.0,0.0,0.0,0.0,0.0,0.0,0.0,0.0,0.0,0.0,0.0,0.0,0.0,0.0,0.0,0.0,0.0,0.0,0.0,0.0,0.0,0.0,0.0,0.0,0.0,0.0,-3.4633,-3.7041,-3.9729,-4.1867,-4.3599,-4.4707,-4.6392,-4.8034,-4.8775,-4.9295,-4.9493,-4.9011,-4.7716,-4.5942,-4.3578,0.0,0.0,0.0,-3.3987,-3.2511,-3.1268,0.0,0.0,0.0,0.0,0.0,0.0,0.0,0.0,0.0,0.0,0.0,0.0,0.0,0.0,0.0,0.0,0.0,-5.484,-5.5024,-5.5079,-5.5079,-5.5053,-5.4992,-5.4992,-5.4992,-5.4992,-5.4992,-5.4992,-5.4992,-5.4992,-5.4992,-5.4992,-5.4992,-5.4992,0.0,-5.4992,-5.4992,-5.4992,-5.4992,-5.4992,-5.4992,-5.4992,-5.4992,-5.4992,-5.4992,0.0,0.0,0.0,0.0,0.0,0.0,0.0,-1.4085,-1.54,-1.5993,-1.6946,-1.756,-1.7506,-1.8011,0.0,0.0,0.0,0.0,0.0,0.0,0.0,0.0,0.0,0.0,0.0,0.0,0.0,0.0,0.0,0.0,0.0,0.0,0.0,0.0,0.0,0.0,0.0,0.0,0.0,0.0,0.0,0.0,0.0,0.0,0.0,0.0,0.0,0.0,0.0,0.0,-3.3781,-3.6117,-3.886,-4.1197,-4.3172,-4.4325,-4.5957,-4.7529,-4.8119,-4.8852,-4.9284,-4.8452,-4.6942,-4.5054,-4.2645,-4.0146,0.0,0.0,-3.2809,-3.1616,-3.0287,0.0,0.0,0.0,0.0,0.0,0.0,0.0,0.0,0.0,0.0,0.0,0.0,0.0,0.0,0.0,0.0,0.0,-5.5764,-5.5496,-5.5348,-5.5348,-5.5247,-5.5187,-5.5187,-5.5187,-5.5187,-5.5187,-5.5187,-5.5187,-5.5187,-5.5187,-5.5187,-5.5187,-5.5187,0.0,0.0,-5.5187,-5.5187,-5.5187,-5.5187,-5.5187,-5.5187,-5.5187,-5.5187,-5.5187,0.0,0.0,0.0,0.0,0.0,0.0,0.0,-1.4617,-1.6124,-1.6254,-1.7567,-1.8483,-1.8478,-1.8528,0.0,0.0,0.0,0.0,0.0,0.0,0.0,0.0,0.0,0.0,0.0,0.0,0.0,0.0,0.0,0.0,0.0,0.0,0.0,0.0,0.0,0.0,0.0,0.0,0.0,0.0,0.0,0.0,0.0,0.0,0.0,0.0,0.0,0.0,0.0,0.0,0.0,-3.4385,-3.6007,-3.9553,-4.3122,-4.3231,0.0,0.0,-4.7601,-4.8175,-4.8568,-4.7647,-4.5702,-4.34,-4.0954,0.0,0.0,-3.2706,-3.0406,-2.8775,-2.8618,-2.8582,-2.9093,0.0,0.0,-3.3986,0.0,0.0,0.0,0.0,0.0,0.0,0.0,0.0,0.0,0.0,0.0,0.0,0.0,-5.5861,-5.5833,-5.5833,-5.5815,-5.5833,-5.5833,-5.5833,-5.5833,-5.5833,-5.5833,-5.5833,-5.5833,-5.5833,-5.5833,-5.5833,-5.5833,0.0,0.0,-5.5833,-5.5833,-5.5833,-5.5833,-5.5833,-5.5833,-5.5833,-5.5833,-5.5833,0.0,0.0,0.0,0.0,0.0,0.0,0.0,-1.443,-1.6279,-1.6304,-1.7639,-1.8611,-1.8595,-1.8649,-1.8639,0.0,0.0,0.0,0.0,0.0,0.0,0.0,0.0,0.0,0.0,0.0,0.0,0.0,0.0,0.0,0.0,0.0,0.0,0.0,0.0,0.0,0.0,0.0,0.0,0.0,0.0,0.0,0.0,0.0,0.0,0.0,0.0,0.0,0.0,0.0,0.0,0.0,-3.4311,-3.671,0.0,0.0,-4.3269,-4.5085,-4.5518,-4.6225,-4.6622,-4.5725,-4.4418,-4.2735,-4.0275,0.0,-3.4988,-3.2562,-3.0134,-2.8301,-2.7764,-2.7692,-2.8038,0.0,0.0,0.0,0.0,0.0,0.0,0.0,0.0,0.0,0.0,0.0,0.0,0.0,0.0,0.0,0.0,-5.6116,-5.5918,-5.5918,-5.5918,-5.5918,-5.5918,-5.5918,-5.5918,-5.5918,-5.5918,-5.5918,-5.5918,-5.5918,-5.5918,-5.5918,-5.5918,0.0,0.0,-5.5918,-5.5918,-5.5918,-5.5918,-5.5918,-5.5918,-5.5918,-5.5918,-5.5918,0.0,0.0,0.0,0.0,0.0,0.0,-1.1588,-1.3899,-1.579,-1.6274,-1.7489,-1.8403,-1.866,-1.8734,-1.8734,-1.8688,0.0,0.0,0.0,0.0,0.0,0.0,0.0,0.0,0.0,0.0,0.0,0.0,0.0,0.0,0.0,0.0,0.0,0.0,0.0,0.0,0.0,0.0,0.0,0.0,0.0,0.0,0.0,0.0,0.0,0.0,0.0,0.0,0.0,0.0,0.0,0.0,0.0,0.0,0.0,0.0,-4.1046,-4.2613,-4.3178,-4.4089,-4.469,-4.3833,-4.2832,-4.1414,0.0,0.0,-3.4093,-3.1608,-2.937,-2.7736,-2.7336,-2.7059,-2.7311,-2.8576,0.0,-3.2484,0.0,0.0,0.0,0.0,0.0,0.0,0.0,0.0,0.0,0.0,0.0,0.0,0.0,-5.642,-5.6172,-5.6172,-5.6172,-5.6172,-5.6172,-5.6172,-5.6172,-5.6172,-5.6172,-5.6172,-5.6172,-5.6172,-5.6172,-5.6172,0.0,0.0,0.0,-5.6172,-5.6172,-5.6172,-5.6172,-5.6172,-5.6172,-5.6172,-5.6172,-5.6172,0.0,0.0,0.0,0.0,0.0,0.0,0.0,-1.3022,-1.4604,-1.6189,-1.7103,-1.794,-1.8807,-1.8905,-1.8904,-1.8904,0.0,0.0,0.0,0.0,0.0,0.0,0.0,0.0,0.0,0.0,0.0,-2.038,-2.038,0.0,0.0,0.0,0.0,0.0,0.0,0.0,0.0,0.0,0.0,0.0,0.0,0.0,0.0,0.0,0.0,0.0,0.0,0.0,0.0,0.0,0.0,0.0,0.0,0.0,0.0,0.0,-3.8998,-4.0829,-4.0829,-4.2012,-4.3032,-4.2231,-4.081,-3.9006,0.0,0.0,-3.1723,-2.9252,-2.7452,-2.6538,-2.7272,-2.6753,-2.6977,-2.9317,-3.0387,0.0,0.0,0.0,0.0,0.0,0.0,0.0,0.0,0.0,0.0,0.0,0.0,0.0,0.0,-5.6794,-5.6794,-5.6794,-5.6794,-5.6794,-5.6794,-5.6794,-5.6794,-5.6794,-5.6794,-5.6794,-5.6794,-5.6794,-5.6794,0.0,0.0,0.0,0.0,-5.6794,-5.6794,-5.6794,-5.6794,-5.6794,-5.6794,-5.6794,-5.6794,-5.6794,0.0,0.0,0.0,0.0,0.0,0.0,0.0,-1.3119,-1.4531,-1.5586,-1.6415,-1.7211,-1.799,-1.8079,-1.8312,-1.885,0.0,0.0,0.0,0.0,0.0,0.0,0.0,0.0,0.0,0.0,-1.9509,-2.0395,-2.0448,-2.1193,-2.2575,0.0,0.0,0.0,0.0,0.0,0.0,0.0,0.0,0.0,0.0,0.0,0.0,0.0,0.0,0.0,0.0,0.0,0.0,0.0,0.0,0.0,0.0,0.0,0.0,-3.2158,0.0,0.0,-3.7723,-3.8902,-3.9916,-3.901,-3.799,-3.6711,-3.479,-3.2917,-3.1058,-2.9156,-2.7492,-2.6435,-2.6656,-2.6511,-2.6948,-2.8779,-3.022,0.0,0.0,0.0,0.0,0.0,0.0,0.0,0.0,0.0,0.0,0.0,0.0,0.0,0.0,-5.6515,-5.662,-5.6776,-5.6794,-5.6794,-5.6794,-5.6794,-5.6794,-5.6794,-5.6794,-5.6794,-5.6794,-5.6794,0.0,0.0,0.0,0.0,0.0,-5.6794,-5.6794,-5.6794,-5.6794,-5.6794,-5.6794,-5.6794,-5.6794,-5.6794,0.0,0.0,0.0,0.0,0.0,0.0,0.0,-1.2466,-1.3686,-1.4805,-1.5652,-1.644,-1.7239,-1.7309,-1.7531,-1.8069,0.0,0.0,0.0,0.0,0.0,0.0,0.0,0.0,0.0,-1.9441,-2.0012,-2.0894,-2.1266,-2.2134,-2.3437,-2.2985,-2.3065,0.0,0.0,0.0,0.0,0.0,0.0,0.0,0.0,0.0,-2.4671,0.0,0.0,0.0,0.0,0.0,0.0,0.0,0.0,0.0,0.0,0.0,0.0,0.0,-3.1048,-3.343,0.0,-3.5924,-3.6801,-3.6193,-3.543,0.0,0.0,-3.1545,-2.9911,-2.828,-2.7148,-2.6436,-2.6396,-2.6651,-2.7381,-2.8986,-3.0597,0.0,0.0,0.0,0.0,0.0,0.0,0.0,0.0,0.0,0.0,0.0,0.0,0.0,0.0,0.0,-5.6013,-5.6183,-5.6798,-5.7105,-5.7105,-5.7105,-5.7105,-5.7105,-5.7105,-5.7105,-5.7105,-5.7105,0.0,0.0,0.0,0.0,0.0,-5.7105,-5.7105,-5.7105,-5.7105,-5.7105,-5.7105,-5.7105,-5.7105,-5.7105,0.0,0.0,0.0,0.0,0.0,0.0,0.0,0.0,0.0,0.0,-1.4788,-1.5604,-1.6519,-1.6617,-1.6671,0.0,0.0,0.0,0.0,0.0,0.0,0.0,0.0,0.0,0.0,-2.0001,-2.0848,-2.1715,-2.2639,-2.3502,-2.4302,-2.4487,-2.4551,-2.4476,-2.3773,-2.3449,-2.3401,-2.3468,-2.3967,-2.4698,-2.4776,-2.4806,0.0,0.0,0.0,0.0,0.0,0.0,0.0,0.0,0.0,0.0,0.0,0.0,0.0,0.0,0.0,0.0,0.0,-3.305,0.0,0.0,0.0,0.0,-3.1581,-3.0165,0.0,-2.6944,-2.6603,-2.6592,-2.652,-2.7166,-2.825,-2.9923,-3.1511,0.0,0.0,0.0,0.0,0.0,0.0,0.0,0.0,0.0,0.0,0.0,0.0,0.0,0.0,0.0,-5.5186,-5.524,-5.67,-5.7503,-5.751,-5.7565,-5.7601,-5.7601,-5.7601,-5.7601,-5.7601,-5.7601,0.0,0.0,0.0,0.0,0.0,-5.7601,-5.7601,-5.7601,-5.7601,-5.7601,-5.7601,-5.7601,-5.7601,-5.7601,0.0,0.0,0.0,0.0,0.0,0.0,0.0,0.0,0.0,0.0,0.0,-1.4253,-1.5703,-1.5855,0.0,0.0,0.0,0.0,0.0,0.0,0.0,0.0,0.0,0.0,0.0,-2.0128,-2.0949,-2.1773,-2.327,-2.4432,-2.5291,-2.593,-2.5968,-2.5456,-2.5296,-2.4899,-2.4385,-2.4445,-2.4588,-2.4776,-2.4783,-2.4798,0.0,0.0,0.0,0.0,-2.4783,-2.478,0.0,0.0,0.0,0.0,0.0,0.0,0.0,0.0,-2.6627,-2.74,-2.8161,0.0,-3.1382,-3.201,-3.1555,-3.0879,0.0,-2.9883,-2.8868,-2.7862,-2.7659,-2.763,-2.7638,-2.8283,-2.9543,-3.179,-3.3024,0.0,0.0,0.0,0.0,0.0,0.0,0.0,0.0,0.0,0.0,0.0,0.0,0.0,0.0,0.0,-5.5104,-5.573,-5.6098,-5.6418,-5.6689,-5.7291,-5.7601,-5.7601,-5.7601,-5.7601,-5.7601,-5.7601,0.0,0.0,0.0,0.0,-5.7601,-5.7601,-5.7601,-5.7601,-5.7601,-5.7601,-5.7601,-5.7601,-5.7601,-5.7601,0.0,0.0,0.0,0.0,0.0,0.0,0.0,0.0,0.0,0.0,0.0,0.0,0.0,0.0,0.0,0.0,0.0,0.0,0.0,0.0,0.0,0.0,0.0,0.0,-1.9895,-2.0759,-2.1584,-2.2394,-2.4081,-2.5144,-2.5653,-2.6507,-2.6507,-2.5797,-2.5449,-2.5096,-2.4745,-2.4783,-2.4787,-2.4809,-2.4834,0.0,0.0,0.0,0.0,0.0,-2.4801,-2.4798,0.0,-2.4802,-2.4783,-2.4756,0.0,0.0,0.0,0.0,-2.5589,-2.5983,-2.6356,-2.7873,-2.9458,-2.9883,-2.9935,-2.9895,-2.9895,-2.9255,-2.8524,0.0,0.0,0.0,0.0,0.0,0.0,0.0,0.0,0.0,0.0,0.0,0.0,0.0,0.0,0.0,0.0,0.0,0.0,0.0,0.0,0.0,0.0,0.0,-5.4349,-5.4792,-5.5159,-5.5625,-5.6171,-5.6593,-5.7015,-5.7363,-5.7363,-5.7588,-5.7973,-5.7973,-5.7973,0.0,0.0,0.0,-5.7973,-5.7973,-5.7973,-5.7973,-5.7973,-5.7973,-5.7973,-5.7973,-5.7973,-5.7973,0.0,0.0,0.0,0.0,0.0,0.0,0.0,0.0,0.0,0.0,0.0,0.0,0.0,0.0,0.0,0.0,0.0,0.0,0.0,0.0,0.0,0.0,0.0,-1.9799,-2.0591,-2.1477,-2.237,-2.3303,-2.4986,-2.5903,-2.6116,-2.6972,-2.6897,-2.5971,-2.5225,-2.4858,-2.4798,-2.4813,-2.4817,-2.4808,-2.4884,0.0,0.0,0.0,0.0,0.0,0.0,0.0,0.0,-2.4601,-2.4636,-2.4644,-2.4749,0.0,0.0,0.0,0.0,0.0,-2.5448,-2.6767,-2.7985,-2.8097,-2.8744,-2.9326,-2.9326,0.0,0.0,0.0,0.0,0.0,0.0,0.0,0.0,0.0,0.0,0.0,0.0,0.0,0.0,0.0,0.0,0.0,0.0,0.0,0.0,0.0,0.0,0.0,0.0,0.0,0.0,-5.358,-5.4245,-5.4929,-5.5614,-5.581,-5.623,-5.6913,-5.6913,-5.7377,-5.8208,-5.8208,-5.8264,0.0,0.0,0.0,-5.8393,-5.8393,-5.8393,-5.8393,-5.8393,-5.8393,-5.8393,-5.8393,-5.8393,-5.8371,0.0,0.0,0.0,0.0,0.0,0.0,0.0,0.0,0.0,0.0,0.0,0.0,0.0,0.0,0.0,0.0,0.0,0.0,0.0,0.0,0.0,0.0,-1.9487,-1.9863,-2.0665,-2.1544,-2.2733,-2.4296,-2.5968,-2.7168,-2.7914,-2.8736,-2.8325,-2.6866,-2.6124,-2.543,-2.4806,-2.4861,-2.4877,-2.4884,-2.4964,0.0,0.0,0.0,0.0,0.0,0.0,0.0,0.0,-2.3611,-2.3836,-2.3896,-2.4586,0.0,0.0,0.0,0.0,0.0,-2.4843,-2.6035,-2.741,-2.81,-2.8865,-2.9481,-2.9481,-2.9882,0.0,0.0,0.0,0.0,0.0,0.0,0.0,0.0,0.0,0.0,0.0,0.0,0.0,0.0,0.0,0.0,0.0,0.0,0.0,0.0,0.0,0.0,0.0,0.0,0.0,-5.4018,-5.413,-5.4242,-5.4373,-5.538,-5.5953,-5.6082,-5.6082,-5.6507,-5.7303,-5.7303,-5.771,0.0,0.0,-5.8393,-5.8393,-5.8393,-5.8393,-5.8393,-5.8393,-5.8393,-5.8393,-5.8393,-5.8393,-5.8393,0.0,0.0,0.0,0.0,0.0,0.0,0.0,0.0,0.0,0.0,0.0,0.0,0.0,0.0,0.0,0.0,0.0,0.0,0.0,0.0,0.0,-1.8852,-1.9776,-2.0615,-2.1396,-2.2264,-2.3512,-2.5204,-2.645,-2.7503,-2.8362,-2.8736,-2.8296,-2.7158,-2.6363,-2.5563,-2.4853,-2.4896,-2.4924,-2.4964,0.0,0.0,0.0,0.0,0.0,0.0,0.0,0.0,0.0,0.0,-2.3,-2.31,-2.3931,0.0,0.0,0.0,0.0,0.0,-2.4745,-2.5933,-2.7229,-2.7603,-2.8952,-3.0183,-3.0165,-3.081,0.0,0.0,0.0,0.0,0.0,0.0,0.0,0.0,0.0,0.0,0.0,0.0,0.0,0.0,0.0,0.0,0.0,0.0,0.0,0.0,0.0,0.0,0.0,0.0,0.0,0.0,-5.4109,-5.4109,-5.4109,-5.4652,-5.5151,-5.5578,-5.5578,-5.6024,-5.6842,-5.7288,-5.7697,-5.8105,0.0,-5.8721,-5.8721,-5.8721,-5.8721,-5.8719,-5.8675,-5.8672,-5.8651,-5.859,-5.8526,-5.8443,0.0,0.0,0.0,0.0,0.0,0.0,0.0,0.0,0.0,0.0,0.0,0.0,0.0,0.0,0.0,0.0,0.0,0.0,0.0,0.0,-1.751,-1.8354,-2.0008,-2.1254,-2.2004,-2.2885,-2.4248,-2.6104,-2.6765,-2.766,-2.8689,-2.851,-2.8028,-2.7261,-2.6411,-2.5608,-2.4891,-2.4924,-2.4945,-2.4998,0.0,0.0,0.0,0.0,0.0,0.0,0.0,0.0,0.0,0.0,0.0,0.0,0.0,0.0,0.0,-2.4061,-2.4372,-2.4512,-2.4512,-2.5852,-2.7219,-2.7219,-2.9036,-3.0859,-3.1009,-3.1861,-3.2844,0.0,0.0,0.0,0.0,0.0,0.0,0.0,0.0,0.0,0.0,0.0,0.0,0.0,0.0,0.0,0.0,0.0,0.0,0.0,0.0,0.0,0.0,0.0,0.0,0.0,-5.4233,-5.4233,-5.4233,-5.4233,-5.4498,-5.5025,-5.5025,-5.5473,-5.6314,-5.693,-5.7341,-5.7565,-5.8368,-5.8704,-5.8723,-5.891,-5.9004,-5.8984,-5.8922,-5.8921,-5.8901,-5.8801,-5.87,-5.8579,0.0,0.0,0.0,0.0,0.0,0.0,0.0,0.0,0.0,0.0,0.0,0.0,0.0,0.0,0.0,0.0,0.0,0.0,0.0,0.0,-1.7552,-1.8354,-2.0009,-2.126,-2.2074,-2.2955,-2.4575,-2.7004,-2.706,-2.7957,-2.9586,-2.8852,-2.806,-2.7261,-2.6461,-2.5652,-2.4898,-2.4971,-2.4998,-2.5012,-2.5012,0.0,0.0,0.0,0.0,0.0,0.0,0.0,0.0,0.0,0.0,0.0,0.0,0.0,-2.2495,-2.2552,-2.31,-2.3695,-2.3695,-2.545,-2.7291,-2.7291,-2.9117,-3.109,-3.1832,-3.3239,0.0,-3.5529,0.0,0.0,0.0,0.0,0.0,0.0,0.0,0.0,0.0,0.0,0.0,0.0,0.0,0.0,0.0,0.0,0.0,0.0,0.0,0.0,0.0,0.0,0.0,0.0,0.0,-5.4676,-5.4676,-5.4676,-5.4495,-5.4202,-5.4202,-5.4595,-5.5398,-5.5454,-5.5921,-5.6724,-5.7546,-5.7901,-5.7938,-5.8686,-5.9004,-5.9004,-5.8984,-5.8984,-5.9003,-5.8965,-5.8965,-5.8871,0.0,0.0,0.0,0.0,0.0,0.0,0.0,0.0,0.0,0.0,0.0,0.0,0.0,0.0,0.0,0.0,0.0,0.0,0.0,0.0,-1.6834,-1.7674,-1.927,-2.0562,-2.1458,-2.2746,-2.4359,-2.6349,-2.744,-2.859,-2.9744,-2.8952,-2.8121,-2.7338,-2.6477,-2.5686,-2.4964,-2.4979,-2.4999,-2.4955,-2.4468,-2.3769,0.0,0.0,0.0,0.0,0.0,0.0,0.0,0.0,-2.0457,-2.0603,-2.1439,-2.1668,-2.1751,-2.2306,-2.3025,-2.3661,-2.3661,-2.5434,-2.7439,-2.7967,-2.9951,0.0,0.0,-3.4275,-3.6018,-3.7921,-3.8806,0.0,0.0,0.0,0.0,0.0,0.0,0.0,0.0,0.0,0.0,0.0,0.0,0.0,0.0,0.0,0.0,0.0,0.0,0.0,0.0,0.0,0.0,0.0,0.0,-5.4708,-5.4708,-5.4708,-5.4625,-5.4474,-5.4474,-5.4591,-5.4823,-5.5368,-5.5745,-5.603,-5.6873,-5.7248,-5.7266,-5.7566,-5.7997,-5.8503,-5.8952,-5.8763,-5.8256,-5.8256,-5.7938,-5.7453,0.0,0.0,0.0,0.0,0.0,0.0,0.0,0.0,0.0,0.0,0.0,0.0,0.0,0.0,0.0,0.0,0.0,0.0,0.0,-1.5591,-1.6426,-1.7291,-1.8624,-1.9901,-2.1061,-2.2142,-2.3615,-2.5555,-2.7274,-2.8443,-2.9013,-2.8194,-2.7519,-2.698,-2.6135,-2.5475,-2.5004,-2.5012,-2.4879,-2.4607,-2.4042,-2.3176,0.0,0.0,0.0,0.0,0.0,0.0,0.0,0.0,-1.9995,-2.0104,-2.0652,-2.0817,-2.095,-2.1538,-2.2494,-2.3348,-2.3348,-2.5336,-2.7604,-2.8452,0.0,0.0,-3.4131,-3.5632,-3.744,-3.9705,-4.0592,0.0,0.0,0.0,0.0,0.0,0.0,0.0,0.0,0.0,0.0,0.0,0.0,0.0,0.0,0.0,0.0,0.0,0.0,0.0,0.0,0.0,0.0,0.0,0.0,-5.4826,-5.4826,-5.4826,-5.4826,-5.4826,-5.4826,-5.4733,-5.4573,-5.5176,-5.539,-5.5358,-5.6223,-5.658,-5.6599,-5.6862,-5.7295,-5.7841,-5.8351,-5.8146,-5.7566,-5.7566,-5.7229,-5.6723,0.0,0.0,0.0,0.0,0.0,0.0,0.0,0.0,0.0,0.0,0.0,0.0,0.0,0.0,0.0,0.0,0.0,0.0,-1.4896,-1.5649,-1.6489,-1.7346,-1.8162,-1.9369,-2.1042,-2.1079,-2.2324,-2.4794,-2.6472,-2.7325,-2.738,-2.6503,-2.6147,-2.616,-2.5359,-2.4993,-2.4993,-2.507,-2.4625,-2.3893,-2.3873,-2.2885,-2.1407,0.0,0.0,0.0,0.0,0.0,0.0,0.0,-1.9987,-1.9987,-1.9987,0.0,-2.0006,-2.0006,-2.1224,-2.2595,-2.2595,-2.5044,-2.7804,0.0,0.0,0.0,-3.5949,-3.7456,-3.8988,-4.0674,0.0,-4.3762,0.0,0.0,0.0,0.0,0.0,0.0,0.0,0.0,0.0,0.0,0.0,0.0,0.0,0.0,0.0,0.0,0.0,0.0,0.0,0.0,0.0,0.0,0.0,0.0,-5.5094,-5.5094,-5.5094,-5.5094,-5.5094,-5.4956,-5.4708,-5.4708,-5.4708,-5.4745,-5.5541,-5.5899,-5.5956,-5.6769,-5.7073,-5.7073,-5.7109,-5.7109,-5.7073,-5.7073,-5.709,-5.6958,0.0,0.0,0.0,0.0,0.0,0.0,0.0,0.0,0.0,0.0,0.0,0.0,0.0,0.0,0.0,0.0,0.0,0.0,-1.4895,-1.5126,-1.5621,-1.6451,-1.7295,-1.8286,-1.939,-2.0579,-2.2395,-2.487,-2.5933,-2.6806,-2.7453,-2.6574,-2.6216,-2.6233,-2.5385,-2.5025,-2.5032,-2.4492,-2.411,-2.3797,-2.2623,-2.1836,-2.133,0.0,0.0,0.0,0.0,0.0,0.0,0.0,0.0,0.0,-1.9164,0.0,-2.0006,-2.0006,-2.1224,-2.2595,-2.2595,-2.5044,0.0,-2.9353,0.0,0.0,0.0,-3.8878,0.0,0.0,0.0,0.0,0.0,0.0,0.0,0.0,0.0,0.0,0.0,0.0,0.0,0.0,0.0,0.0,0.0,0.0,0.0,0.0,0.0,0.0,0.0,0.0,0.0,0.0,0.0,0.0,-5.5094,-5.5094,-5.5094,-5.5094,-5.5094,-5.5023,-5.4916,-5.4856,-5.4814,-5.4771,-5.4969,-5.5066,-5.5107,-5.5918,-5.626,-5.6298,-5.6882,-5.675,-5.626,-5.626,-5.5899,-5.5371,0.0,0.0,0.0,0.0,0.0,0.0,0.0,0.0,0.0,0.0,0.0,0.0,0.0,0.0,0.0,0.0,0.0,0.0,0.0,0.0,-1.5293,-1.6111,-1.6971,-1.8001,-1.9192,-2.0554,-2.1963,-2.3474,-2.463,-2.5489,-2.6029,-2.5853,-2.5772,-2.5792,-2.5272,-2.5063,-2.5044,-2.4236,-2.3725,-2.3302,-2.1942,-2.1206,-2.0862,0.0,0.0,0.0,0.0,0.0,0.0,0.0,0.0,0.0,-1.8316,0.0,-1.9559,-1.9559,-2.1008,-2.2609,-2.2609,-2.5063,0.0,-2.9742,-3.2306,-3.5454,-3.9509,0.0,0.0,0.0,0.0,0.0,0.0,0.0,0.0,0.0,0.0,0.0,0.0,0.0,0.0,0.0,0.0,0.0,0.0,0.0,0.0,0.0,0.0,0.0,0.0,0.0,0.0,0.0,0.0,0.0,-5.5268,-5.5268,-5.5097,-5.4778,-5.4778,-5.4574,-5.4217,-5.4752,-5.4975,-5.4916,-5.4871,-5.4856,-5.4894,-5.5386,-5.5579,-5.5617,-5.6128,-5.6015,-5.5579,-5.5579,-5.5083,-5.4383,0.0,0.0,0.0,0.0,0.0,0.0,0.0,0.0,0.0,0.0,0.0,0.0,0.0,0.0,0.0,0.0,0.0,0.0,0.0,0.0,-1.5325,-1.6065,-1.7004,-1.8284,-1.9965,-2.0782,-2.1179,-2.1186,-2.2941,-2.3803,-2.3822,-2.4689,-2.5101,-2.5108,-2.5095,-2.5069,-2.4941,-2.4137,-2.3323,-2.2508,-2.1642,-2.0842,-2.0196,-2.012,0.0,0.0,0.0,0.0,0.0,0.0,0.0,0.0,-1.7489,-1.8134,-1.8899,-1.8899,-2.0652,-2.2601,-2.2606,0.0,0.0,-2.9864,-3.2998,0.0,0.0,0.0,0.0,0.0,0.0,0.0,0.0,0.0,0.0,0.0,0.0,0.0,0.0,0.0,0.0,0.0,0.0,0.0,0.0,0.0,0.0,0.0,0.0,0.0,0.0,0.0,0.0,0.0,0.0,-5.5504,-5.5504,-5.5427,-5.5025,0.0,-5.4208,-5.3778,-5.3039,-5.4326,-5.4893,-5.4879,-5.4879,-5.4879,-5.4865,-5.4865,-5.4865,-5.4865,-5.4865,-5.4865,-5.4865,-5.4865,-5.4409,-5.3786,0.0,0.0,0.0,0.0,0.0,0.0,0.0,0.0,0.0,0.0,0.0,0.0,0.0,0.0,0.0,0.0,0.0,0.0,0.0,0.0,-1.5072,-1.5243,-1.6696,-1.8279,-1.9958,-2.0186,-2.0287,-2.0273,-2.2641,-2.3795,-2.3814,-2.4696,-2.5095,-2.5095,-2.5101,-2.4757,-2.4118,-2.331,-2.2464,-2.1603,-2.0784,-2.0357,-2.0127,-1.9439,-1.9067,0.0,0.0,0.0,0.0,0.0,0.0,0.0,-1.6659,-1.7691,-1.8899,-1.8899,-2.0652,-2.2606,-2.267,-2.5143,0.0,0.0,-3.433,0.0,0.0,0.0,0.0,0.0,0.0,0.0,0.0,0.0,0.0,0.0,0.0,0.0,0.0,0.0,0.0,0.0,0.0,0.0,0.0,0.0,0.0,0.0,0.0,0.0,0.0,0.0,0.0,0.0,0.0,-5.5504,-5.5504,-5.486,-5.4457,0.0,-5.3606,-5.3184,-5.3012,-5.326,-5.3321,-5.3219,-5.3219,-5.3192,-5.3139,-5.3139,-5.3139,-5.3139,-5.3139,-5.3139,-5.3139,-5.3139,-5.3025,-5.2873,0.0,0.0,0.0,0.0,0.0,0.0,0.0,0.0,0.0,0.0,0.0,0.0,0.0,0.0,0.0,0.0,0.0,0.0,0.0,0.0,0.0,-1.5597,-1.6457,-1.7532,-1.8821,-1.924,-1.9435,-1.9469,-2.1604,-2.2857,-2.3241,-2.4129,-2.4757,-2.5156,-2.5156,-2.4677,-2.3859,-2.3038,-2.2216,-2.1373,-2.0547,-1.996,-1.9576,-1.9123,-1.8436,-1.7597,-1.672,0.0,0.0,0.0,0.0,0.0,0.0,0.0,-1.7786,-1.8153,-1.9754,-2.1593,-2.2464,0.0,0.0,-3.1283,0.0,0.0,0.0,0.0,0.0,0.0,0.0,0.0,0.0,0.0,0.0,0.0,0.0,0.0,0.0,0.0,0.0,0.0,0.0,0.0,0.0,0.0,0.0,0.0,0.0,0.0,0.0,0.0,0.0,0.0,-5.4229,-5.4451,-5.4451,-5.4028,-5.3624,-5.324,-5.2788,-5.2326,-5.1921,-5.2628,-5.29,-5.2841,-5.2841,-5.2817,-5.2792,-5.2792,-5.2792,-5.2792,-5.2792,-5.2792,-5.2792,-5.2792,-5.2544,-5.2169,0.0,0.0,0.0,0.0,0.0,0.0,0.0,0.0,0.0,0.0,0.0,0.0,0.0,0.0,0.0,0.0,0.0,0.0,0.0,0.0,0.0,-1.6275,-1.6313,-1.6726,-1.7589,-1.8253,-1.8681,-1.8899,-2.0279,-2.1531,0.0,-2.3493,-2.4369,-2.5197,-2.5203,-2.464,-2.3656,-2.3001,-2.2163,-2.1201,-2.0499,-1.9831,-1.9212,-1.9054,-1.8018,-1.6608,-1.6451,-1.5844,-1.5096,-1.5096,0.0,0.0,0.0,0.0,-1.6525,-1.7198,-1.8684,-2.0427,-2.1876,0.0,-2.789,-3.2705,0.0,0.0,0.0,0.0,0.0,0.0,0.0,0.0,0.0,0.0,0.0,0.0,0.0,0.0,0.0,0.0,0.0,0.0,0.0,0.0,0.0,0.0,0.0,0.0,0.0,0.0,0.0,0.0,-5.2348,-5.3061,-5.3234,-5.3291,-5.3291,-5.3156,-5.2751,-5.2095,-5.1941,-5.146,-5.0768,-5.2036,-5.2615,-5.2582,-5.2582,-5.2582,-5.2571,-5.2571,-5.2571,-5.2571,-5.2571,-5.2571,-5.2571,-5.2571,-5.211,-5.1486,0.0,0.0,0.0,0.0,0.0,0.0,0.0,0.0,0.0,0.0,0.0,0.0,0.0,0.0,0.0,0.0,0.0,0.0,-1.5105,0.0,0.0,-1.6342,-1.6399,-1.6766,-1.758,-1.7714,-1.8134,-1.8899,-1.9111,0.0,0.0,0.0,0.0,-2.5206,-2.519,-2.4319,-2.2849,-2.282,-2.1854,-2.0365,-2.0319,-2.0227,-2.0035,-1.9289,-1.8398,-1.7423,-1.6669,-1.5847,-1.5091,-1.5099,-1.5096,0.0,0.0,0.0,-1.6426,-1.6525,-1.824,-2.016,0.0,0.0,-2.8571,0.0,0.0,0.0,0.0,0.0,0.0,0.0,0.0,0.0,0.0,0.0,0.0,0.0,0.0,0.0,0.0,0.0,0.0,0.0,0.0,0.0,0.0,0.0,0.0,0.0,0.0,0.0,0.0,-5.1662,-5.2144,-5.226,-5.2944,-5.3291,-5.3291,-5.2616,-5.2211,-5.2095,-5.1333,-5.0908,-5.0793,-5.0997,-5.1029,-5.0919,-5.0919,-5.0888,-5.0826,-5.0826,-5.0826,-5.0826,-5.0826,-5.0826,-5.0826,-5.0826,-5.0749,-5.0653,0.0,0.0,0.0,0.0,0.0,0.0,0.0,0.0,0.0,0.0,0.0,0.0,0.0,0.0,0.0,-1.5095,-1.5095,-1.5095,-1.5095,-1.5105,-1.5267,-1.564,-1.5659,-1.5847,-1.6196,-1.6682,-1.7332,-1.8166,0.0,0.0,0.0,-2.3103,-2.396,0.0,0.0,0.0,-2.341,-2.2983,-2.2079,-2.0896,-2.0481,-2.0004,-1.9527,-1.9154,-1.8466,-1.7645,-1.7266,-1.6561,-1.5838,-1.5825,-1.5492,-1.5103,-1.5096,0.0,0.0,0.0,-1.7171,0.0,-2.0395,0.0,0.0,0.0,0.0,0.0,0.0,0.0,0.0,0.0,0.0,0.0,0.0,0.0,0.0,0.0,0.0,0.0,0.0,0.0,0.0,0.0,0.0,0.0,0.0,0.0,0.0,0.0,0.0,0.0,-5.0801,-5.1205,-5.1426,-5.1426,-5.178,-5.1962,-5.1962,-5.1595,-5.1421,-5.1421,-5.1037,-5.0855,-5.0855,-5.081,-5.0766,-5.0721,-5.0721,-5.0712,-5.0664,-5.0635,-5.0615,-5.0615,-5.0614,-5.0613,-5.0613,-5.0613,-5.0613,-5.0613,0.0,0.0,0.0,0.0,0.0,0.0,0.0,0.0,0.0,0.0,0.0,0.0,0.0,0.0,0.0,0.0,-1.5124,-1.5124,-1.512,-1.514,-1.5117,-1.5095,-1.5095,-1.5105,-1.5104,-1.5743,-1.6471,0.0,0.0,0.0,-2.2081,-2.2565,-2.3563,0.0,-2.5137,-2.4782,0.0,0.0,0.0,-2.1446,-2.0846,-2.0215,-1.9665,-1.9877,-1.9423,-1.8632,-1.8417,-1.7791,-1.7032,-1.6807,-1.6145,-1.5426,-1.5435,-1.5275,0.0,0.0,0.0,0.0,0.0,0.0,0.0,0.0,0.0,0.0,0.0,0.0,0.0,0.0,0.0,0.0,0.0,0.0,0.0,0.0,0.0,0.0,0.0,0.0,0.0,0.0,0.0,0.0,0.0,0.0,0.0,0.0,0.0,0.0,-5.0852,-5.0897,-5.094,-5.0948,-5.0925,-5.0933,-5.0933,-5.0906,-5.0898,-5.0898,-5.0893,-5.0897,-5.0897,-5.0844,-5.0827,-5.0808,-5.081,-5.0801,-5.0793,-5.0757,-5.0739,-5.0739,-5.0721,-5.0731,-5.0731,-5.0731,-5.0731,-5.0731,0.0,0.0,0.0,0.0,0.0,0.0,0.0,0.0,0.0,0.0,0.0,0.0,-1.5202,-1.5185,-1.5189,-1.5189,-1.5189,-1.5186,-1.5194,-1.5194,-1.5168,-1.5095,-1.5095,0.0,-1.5092,-1.5133,-1.559,0.0,0.0,0.0,-2.0365,-2.2015,-2.3297,-2.4182,-2.4942,-2.4846,-2.4048,0.0,0.0,0.0,0.0,0.0,0.0,0.0,0.0,0.0,0.0,-1.9554,-1.8743,-1.7918,-1.7044,-1.6331,-1.6331,-1.5762,-1.5113,0.0,0.0,0.0,0.0,0.0,0.0,0.0,0.0,0.0,0.0,0.0,0.0,0.0,0.0,0.0,0.0,0.0,0.0,0.0,0.0,0.0,0.0,0.0,0.0,0.0,0.0,0.0,0.0,0.0,0.0,0.0,0.0,0.0,-5.0998,-5.0978,-5.102,-5.1087,-5.1039,-5.0986,-5.0986,-5.0921,-5.0898,-5.0898,-5.0898,-5.0898,-5.0898,-5.0898,-5.089,-5.089,-5.0836,-5.0801,-5.0801,-5.0793,-5.0793,-5.0793,-5.0793,-5.0793,-5.0793,-5.0793,-5.0793,-5.0784,0.0,0.0,0.0,0.0,0.0,0.0,0.0,0.0,0.0,0.0,0.0,0.0,0.0,-1.521,-1.5204,-1.5204,-1.5204,-1.5204,-1.5199,-1.5193,-1.5188,-1.5163,-1.5167,-1.5155,-1.5168,-1.5165,-1.5568,0.0,0.0,-1.8024,-2.0281,-2.0904,-2.1947,-2.3336,-2.4692,-2.5135,-2.4812,-2.399,0.0,0.0,0.0,0.0,0.0,0.0,0.0,0.0,0.0,0.0,0.0,-2.0426,-1.9219,-1.7964,-1.7416,-1.6638,-1.5823,-1.5251,0.0,0.0,0.0,0.0,0.0,0.0,0.0,0.0,0.0,0.0,0.0,0.0,0.0,0.0,0.0,0.0,0.0,0.0,0.0,0.0,0.0,0.0,0.0,0.0,0.0,0.0,0.0,0.0,0.0,0.0,0.0,0.0,-4.9387,-4.9936,-5.0234,-5.0267,-5.0777,-5.106,-5.106,-5.1046,-5.1039,-5.1039,-5.1039,-5.1039,-5.1039,-5.1039,-5.1039,-5.1012,-5.0968,-5.0909,-5.0858,-5.0852,-5.0855,-5.0855,-5.081,-5.0801,-5.0801,-5.0801,-5.0801,-5.0801,0.0,0.0,0.0,0.0,0.0,0.0,0.0,0.0,0.0,0.0,0.0,0.0,0.0,0.0,-1.5956,-1.5667,-1.5647,-1.551,-1.522,-1.5196,-1.5193,-1.5193,-1.5193,-1.5201,-1.5192,-1.5203,-1.5469,0.0,0.0,0.0,0.0,-1.9892,-2.0897,-2.2036,-2.373,-2.448,0.0,0.0,0.0,-2.367,0.0,0.0,-2.3769,0.0,0.0,0.0,0.0,0.0,0.0,0.0,-2.1439,-2.0112,0.0,0.0,0.0,0.0,0.0,0.0,-1.633,0.0,0.0,0.0,0.0,0.0,0.0,0.0,0.0,0.0,0.0,0.0,0.0,0.0,0.0,0.0,0.0,0.0,0.0,0.0,0.0,0.0,0.0,0.0,0.0,0.0,0.0,0.0,0.0,0.0,-4.8496,-4.9059,-4.9505,-4.9783,-5.0655,-5.1095,-5.1101,-5.1101,-5.1101,-5.1101,-5.1101,-5.1101,-5.1101,-5.1101,-5.1101,-5.1094,-5.1053,-5.0998,-5.0941,-5.0921,-5.0897,-5.0897,-5.0852,-5.0825,-5.0825,-5.0825,-5.0825,-5.0836,0.0,0.0,0.0,0.0,0.0,0.0,0.0,0.0,0.0,-1.6525,0.0,0.0,0.0,0.0,0.0,-1.6612,-1.6535,-1.6168,-1.53,-1.5242,-1.5223,-1.5204,-1.5193,-1.5207,-1.5207,-1.5204,-1.5192,0.0,0.0,0.0,0.0,0.0,-2.0207,-2.0304,-2.1995,-2.2728,-2.2696,0.0,-2.2902,-2.3018,0.0,-2.4658,-2.5545,0.0,0.0,0.0,-2.7127,-2.6838,0.0,0.0,0.0,0.0,0.0,0.0,0.0,0.0,0.0,0.0,0.0,0.0,0.0,0.0,0.0,0.0,0.0,0.0,0.0,0.0,0.0,0.0,0.0,0.0,0.0,0.0,0.0,0.0,0.0,0.0,0.0,0.0,0.0,0.0,0.0,0.0,0.0,0.0,0.0,-4.8438,-4.843,-4.845,-4.8877,-4.9776,-5.061,-5.1082,-5.1101,-5.1101,-5.1101,-5.1101,-5.1101,-5.1101,-5.1101,-5.1101,-5.1101,-5.1101,-5.1101,-5.106,-5.1005,-5.0921,-5.0906,-5.0906,-5.0906,-5.0906,-5.0906,-5.0906,-5.0906,-5.0917,0.0,0.0,0.0,0.0,0.0,0.0,0.0,0.0,-1.7273,0.0,0.0,0.0,-1.7849,-1.7873,-1.7761,-1.7476,-1.7435,-1.7087,-1.6278,-1.6168,-1.589,-1.5291,-1.5223,-1.5198,-1.5198,-1.5204,-1.5202,0.0,0.0,0.0,0.0,0.0,0.0,0.0,-1.9005,-1.9552,-2.0243,-2.2103,0.0,0.0,-2.4694,-2.5567,0.0,0.0,0.0,0.0,0.0,-2.9975,-2.9279,0.0,-2.6414,-2.4195,0.0,0.0,0.0,0.0,0.0,0.0,-1.5648,0.0,0.0,0.0,0.0,0.0,0.0,0.0,0.0,0.0,0.0,0.0,0.0,0.0,0.0,0.0,0.0,0.0,0.0,0.0,0.0,0.0,0.0,0.0,0.0,0.0,0.0,0.0,-4.6693,-4.6704,-4.675,-4.7353,-4.8372,-4.9831,-5.0103,-5.0524,-5.1172,-5.1172,-5.1172,-5.1172,-5.1172,-5.1172,-5.1172,-5.1172,-5.1172,-5.1172,-5.1108,-5.1095,-5.1063,-5.1041,-5.1046,-5.1046,-5.1046,-5.1046,-5.1046,-5.1046,-5.1046,-5.1046,0.0,0.0,0.0,0.0,0.0,0.0,0.0,0.0,-1.8562,0.0,0.0,0.0,-1.9994,-2.0025,-1.9724,-1.8957,-1.8877,-1.8393,-1.7229,-1.6774,-1.6338,-1.5869,-1.5468,-1.5248,-1.5248,-1.5218,-1.5196,0.0,0.0,0.0,0.0,0.0,0.0,0.0,0.0,0.0,0.0,0.0,0.0,0.0,-2.4946,0.0,0.0,-2.9736,-3.0829,0.0,0.0,0.0,-3.1444,-3.0197,-2.7835,0.0,0.0,0.0,0.0,0.0,0.0,0.0,0.0,0.0,0.0,0.0,0.0,0.0,0.0,-2.4176,0.0,0.0,0.0,0.0,0.0,0.0,0.0,0.0,0.0,0.0,0.0,0.0,0.0,0.0,0.0,0.0,0.0,0.0,0.0,0.0,-4.5507,-4.5672,-4.6075,-4.6926,-4.785,-4.8831,-4.922,-4.9823,-5.0692,-5.0692,-5.0867,-5.1197,-5.1197,-5.1197,-5.1197,-5.1206,-5.12,-5.12,-5.1171,-5.1133,-5.1133,-5.1134,-5.1127,-5.1101,-5.1101,-5.1101,-5.1101,-5.1101,-5.1101,-5.1101,0.0,0.0,0.0,0.0,0.0,0.0,0.0,0.0,0.0,0.0,-2.1449,-2.2286,-2.3056,-2.3133,-2.2513,-2.0978,-2.0743,-1.9965,-1.829,-1.7457,-1.689,-1.6602,-1.5852,-1.5398,-1.5301,-1.525,-1.5206,0.0,0.0,0.0,0.0,0.0,0.0,0.0,0.0,0.0,0.0,0.0,0.0,-2.3062,-2.4799,-2.6505,0.0,0.0,-3.1374,0.0,-3.313,-3.343,-3.3057,-3.1213,-2.8487,0.0,0.0,0.0,0.0,0.0,-1.8767,0.0,0.0,0.0,0.0,0.0,0.0,0.0,-2.1324,-2.2904,-2.4291,0.0,0.0,0.0,0.0,0.0,0.0,0.0,0.0,0.0,0.0,0.0,0.0,0.0,0.0,0.0,0.0,0.0,-4.3891,-4.4615,-4.4755,-4.5144,-4.5903,-4.6794,-4.7319,-4.7392,-4.8151,-4.8968,-4.9849,-4.9868,-5.0257,-5.1074,-5.1074,-5.1113,-5.1206,-5.1205,-5.1194,-5.1194,-5.1206,-5.1189,-5.1189,-5.1189,-5.1153,-5.1107,-5.1107,-5.1107,-5.1107,-5.1107,-5.1107,-5.1107,-2.0447,0.0,0.0,0.0,0.0,0.0,0.0,0.0,0.0,-2.2469,-2.3243,-2.3858,-2.4027,-2.4047,-2.3905,-2.3563,-2.29,-2.1751,-2.0023,-1.9751,-1.8741,-1.6699,-1.6442,-1.6029,-1.5321,-1.5284,-1.5282,0.0,0.0,0.0,0.0,0.0,0.0,0.0,0.0,0.0,0.0,0.0,0.0,-2.3137,-2.4809,0.0,-2.8412,-3.1513,-3.2792,-3.314,-3.4681,-3.4802,-3.3871,0.0,-2.971,-2.821,0.0,0.0,0.0,0.0,0.0,0.0,0.0,0.0,0.0,0.0,0.0,0.0,-2.1456,-2.1991,-2.2722,0.0,0.0,0.0,0.0,0.0,0.0,0.0,0.0,0.0,0.0,0.0,0.0,0.0,0.0,0.0,0.0,0.0,-4.3674,-4.3813,-4.4476,-4.4927,-4.5047,-4.5939,-4.6733,-4.7373,-4.7568,-4.8073,-4.8949,-4.8949,-4.9377,-5.0238,-5.0238,-5.0568,-5.1211,-5.1206,-5.1201,-5.1201,-5.1196,-5.1196,-5.1196,-5.1196,-5.1197,-5.1184,-5.1184,-5.1184,-5.1184,-5.1184,-5.1184,-5.1184,-2.0491,0.0,0.0,0.0,0.0,0.0,0.0,0.0,0.0,-2.4246,-2.5432,-2.6243,-2.6251,-2.6248,-2.6067,-2.5625,-2.4803,-2.3733,-2.2427,-2.1125,-1.9839,-1.855,-1.7699,-1.6844,-1.5963,-1.5954,-1.5738,0.0,0.0,0.0,0.0,0.0,0.0,0.0,0.0,0.0,0.0,0.0,-2.0632,-2.3139,-2.483,0.0,-2.8466,-3.1902,-3.3201,-3.3419,-3.5135,-3.5212,-3.4238,-3.2492,-3.1049,0.0,0.0,-2.6542,-2.5243,0.0,-2.2684,-2.1618,0.0,0.0,0.0,-2.1051,0.0,0.0,0.0,-2.2734,-2.3283,0.0,0.0,0.0,0.0,0.0,0.0,0.0,0.0,0.0,0.0,0.0,0.0,0.0,0.0,0.0,0.0,0.0,-4.1429,-4.2287,-4.3525,-4.4249,-4.4199,-4.5067,-4.5749,-4.6146,-4.6575,-4.7217,-4.8093,-4.8093,-4.8541,-4.9398,-4.9398,-4.9826,-5.0605,-5.0592,-5.084,-5.1249,-5.1215,-5.1211,-5.1211,-5.1211,-5.119,-5.1208,-5.1208,-5.1208,-5.1208,-5.1208,-5.1208,-5.1208,-2.0492,0.0,0.0,0.0,0.0,0.0,0.0,0.0,0.0,-2.5744,-2.7498,-2.8679,-2.8685,-2.884,-2.864,-2.7948,-2.6934,-2.5979,0.0,0.0,0.0,-2.0911,-1.9282,-1.7982,-1.7122,-1.6773,-1.6267,-1.5545,0.0,0.0,0.0,0.0,0.0,0.0,0.0,0.0,0.0,0.0,0.0,-2.3634,0.0,-2.6718,-2.848,-3.193,-3.3215,-3.3456,-3.5181,-3.5255,-3.4388,-3.3514,0.0,-3.07,-2.9726,-2.7979,0.0,0.0,0.0,0.0,0.0,0.0,0.0,0.0,0.0,-2.3098,0.0,0.0,0.0,0.0,0.0,0.0,0.0,0.0,0.0,0.0,0.0,0.0,0.0,0.0,0.0,0.0,0.0,0.0,0.0,0.0,-3.8909,-4.0474,-4.2169,-4.3124,-4.3124,-4.4101,-4.4748,-4.4904,-4.5582,-4.6362,-4.7239,-4.7239,-4.7687,-4.8545,-4.8545,-4.8973,-4.9765,-4.9769,-5.0248,-5.1042,-5.0981,-5.1069,-5.1225,-5.1225,-5.1225,-5.1225,-5.1211,-5.1211,-5.1211,-5.1211,-5.1211,-5.1211,-2.0505,-2.0503,0.0,0.0,0.0,0.0,0.0,0.0,0.0,-2.6641,-2.8899,0.0,0.0,0.0,0.0,0.0,0.0,0.0,-2.7804,0.0,0.0,-2.2773,-2.1046,-1.9733,-1.8928,-1.7394,-1.656,-1.6443,0.0,0.0,0.0,0.0,0.0,0.0,-1.6561,0.0,0.0,0.0,-2.2356,0.0,-2.634,-2.7323,0.0,-3.1994,-3.3287,-3.3518,-3.5252,-3.533,-3.4451,0.0,-3.2639,-3.1569,0.0,-2.9271,0.0,0.0,0.0,0.0,0.0,0.0,0.0,0.0,-2.3095,0.0,0.0,0.0,0.0,0.0,0.0,0.0,0.0,0.0,0.0,0.0,0.0,0.0,0.0,0.0,0.0,0.0,0.0,0.0,0.0,0.0,0.0,-3.8727,-4.0406,-4.1381,-4.1381,-4.2944,-4.4153,-4.4872,-4.5008,-4.5479,-4.634,-4.6359,-4.6786,-4.7644,-4.7644,-4.8103,-4.8948,-4.8945,-4.9383,-5.0147,-5.0143,-5.0572,-5.1292,-5.1292,-5.1292,-5.1288,-5.1225,-5.1211,-5.1211,-5.1211,-5.1211,-5.1211,-2.05,-2.0495,0.0,0.0,0.0,0.0,0.0,0.0,0.0,-2.8978,0.0,0.0,0.0,0.0,0.0,0.0,0.0,-3.1334,0.0,0.0,0.0,0.0,0.0,0.0,0.0,-1.9498,-1.837,-1.7357,-1.652,0.0,0.0,0.0,0.0,0.0,-1.7674,0.0,-2.0579,0.0,0.0,0.0,0.0,0.0,0.0,-3.237,-3.393,-3.4909,-3.5648,-3.5668,-3.5142,0.0,-3.3057,0.0,0.0,0.0,0.0,0.0,0.0,0.0,0.0,0.0,0.0,0.0,0.0,0.0,0.0,0.0,-2.47,0.0,0.0,0.0,0.0,0.0,0.0,0.0,0.0,0.0,0.0,0.0,0.0,0.0,0.0,0.0,0.0,0.0,0.0,0.0,0.0,-3.8831,-3.8831,-4.0976,-4.2342,-4.2673,-4.4136,-4.5072,-4.5445,-4.5952,-4.6382,-4.6752,-4.6752,-4.7198,-4.8047,-4.8047,-4.8785,-5.0069,-5.0069,-5.053,-5.13,-5.13,-5.1292,-5.13,-5.1277,-5.1265,-5.1252,-5.1252,-5.1252,-5.1252,-2.0866,0.0,0.0,0.0,0.0,0.0,0.0,0.0,0.0,0.0,0.0,0.0,-3.3979,-3.5007,0.0,0.0,0.0,-3.3993,0.0,0.0,-2.9391,0.0,0.0,0.0,0.0,0.0,-2.0359,-1.8608,0.0,0.0,0.0,0.0,0.0,0.0,0.0,-2.0165,-2.1321,0.0,0.0,-2.6485,-2.8216,-3.0093,-3.2009,-3.3198,-3.4591,-3.5895,-3.5901,-3.5901,-3.5668,-3.4175,-3.3512,0.0,-3.1565,0.0,0.0,0.0,0.0,0.0,-2.7517,0.0,0.0,0.0,0.0,0.0,0.0,0.0,0.0,0.0,0.0,0.0,0.0,0.0,0.0,0.0,0.0,0.0,0.0,0.0,0.0,0.0,0.0,0.0,0.0,0.0,0.0,0.0,-3.5562,-3.6616,-3.685,-3.9115,-4.0637,-4.1085,-4.3368,-4.4694,-4.4929,-4.5787,-4.6238,-4.6238,-4.6238,-4.6567,-4.7167,-4.7167,-4.8101,-4.9736,-4.9736,-5.0355,-5.134,-5.134,-5.133,-5.1339,-5.1333,-5.133,-5.1335,-5.1335,-5.1335,-5.1316,-2.1759,-2.1089,0.0,0.0,0.0,0.0,0.0,0.0,0.0,0.0,0.0,0.0,0.0,0.0,0.0,0.0,0.0,-3.6707,-3.583,0.0,-3.24,0.0,0.0,-2.7264,0.0,0.0,0.0,0.0,0.0,0.0,0.0,0.0,0.0,0.0,0.0,-2.1404,-2.3129,-2.4874,-2.6617,-2.8358,-3.0035,-3.228,-3.4579,0.0,-3.5129,-3.5908,-3.5902,0.0,0.0,-3.4948,-3.4094,0.0,0.0,0.0,0.0,0.0,0.0,0.0,0.0,0.0,0.0,-2.7171,0.0,0.0,0.0,0.0,-2.571,0.0,0.0,0.0,0.0,0.0,0.0,0.0,0.0,0.0,0.0,0.0,0.0,0.0,0.0,0.0,0.0,0.0,0.0,-3.2129,-3.3807,-3.5153,-3.5991,-3.7711,-3.9429,-4.1049,-4.2825,-4.4133,-4.499,-4.587,-4.63,-4.63,-4.63,-4.6314,-4.6342,-4.6342,-4.7253,-4.8836,-4.8836,-4.9811,-5.1394,-5.1394,-5.1394,-5.1391,-5.1394,-5.1394,-5.1391,-5.1391,-5.1391,-5.1391,0.0,0.0,0.0,0.0,0.0,0.0,0.0,-2.9276,0.0,0.0,0.0,0.0,0.0,0.0,-3.9121,0.0,0.0,-3.8549,-3.7671,-3.6031,0.0,0.0,0.0,-2.9963,0.0,0.0,0.0,0.0,0.0,0.0,0.0,0.0,0.0,0.0,0.0,-2.2012,0.0,0.0,0.0,0.0,0.0,-3.3393,-3.4698,0.0,0.0,-3.5975,-3.5977,-3.5979,0.0,-3.4991,-3.4115,-3.3257,-3.2377,-3.15,-3.0739,-3.0448,-3.0351,0.0,0.0,0.0,-2.8944,-2.8088,0.0,0.0,0.0,0.0,0.0,0.0,0.0,0.0,0.0,0.0,0.0,0.0,0.0,0.0,0.0,0.0,0.0,0.0,0.0,0.0,0.0,0.0,0.0,-2.9552,-3.1153,-3.25,0.0,-3.5623,-3.7672,-3.9391,-4.109,-4.2671,-4.4133,-4.4992,-4.5734,-4.63,-4.63,-4.6298,-4.6296,-4.6296,-4.721,-4.8806,-4.8806,-4.9799,-5.1391,-5.1391,-5.1403,-5.1394,-5.1405,-5.1391,-5.1408,-5.1397,-5.1394,-5.1394,-2.4014,0.0,0.0,0.0,0.0,0.0,0.0,0.0,0.0,0.0,-3.5843,0.0,-3.8477,0.0,-4.0615,0.0,-4.0572,-4.0355,-3.9479,-3.8114,0.0,-3.6458,-3.4546,0.0,0.0,0.0,0.0,0.0,0.0,-2.1863,0.0,0.0,0.0,0.0,0.0,0.0,0.0,0.0,-2.7275,0.0,0.0,-3.4105,0.0,0.0,-3.5504,-3.6005,0.0,-3.599,-3.5914,-3.5352,-3.4378,-3.3305,-3.2737,-3.1742,-3.0807,-3.0807,-3.0807,-3.0672,-3.0133,-3.0022,0.0,-2.8977,-2.8765,0.0,-2.8376,0.0,0.0,0.0,0.0,0.0,0.0,0.0,0.0,0.0,0.0,0.0,0.0,-2.0601,0.0,0.0,0.0,0.0,0.0,0.0,-2.7839,-2.7839,-2.9401,-3.0748,0.0,0.0,-3.6332,-3.8071,-4.0062,-4.1936,-4.3674,-4.4551,-4.5449,-4.6309,-4.6309,-4.6308,-4.6305,-4.6617,-4.7514,-4.8818,-4.913,-5.0083,-5.1403,-5.1403,-5.1399,-5.1391,-5.1401,-5.1403,-5.1403,-5.1394,-5.1408,-5.1403,0.0,0.0,0.0,0.0,-2.7328,0.0,0.0,0.0,-3.3184,0.0,-3.7557,-3.9295,-4.0915,-4.1883,-4.2756,-4.3613,-4.2941,0.0,-4.1278,-4.0379,0.0,0.0,-3.6577,-3.4919,-3.2344,0.0,0.0,0.0,0.0,0.0,0.0,0.0,0.0,0.0,-2.2314,0.0,-2.3338,-2.6813,-2.8396,-2.885,-3.2088,-3.4431,-3.5992,-3.5992,-3.6002,-3.6009,-3.5997,-3.6001,-3.6001,-3.6009,-3.486,-3.3456,-3.3416,-3.2226,-3.086,-3.0821,-3.0801,-3.0822,-3.0887,-3.0908,-3.0694,-2.9878,0.0,0.0,0.0,0.0,-2.8357,0.0,0.0,0.0,0.0,0.0,0.0,0.0,0.0,0.0,0.0,0.0,0.0,0.0,0.0,0.0,0.0,-2.5933,-2.6948,-2.6948,-2.8511,0.0,0.0,0.0,-3.5385,-3.7181,-3.966,-4.1809,-4.3547,-4.4485,-4.5364,-4.6243,-4.6282,-4.63,-4.6333,-4.7191,-4.8045,-4.8859,-4.9716,-5.0594,-5.1396,-5.1396,-5.1396,-5.1396,-5.1396,-5.1396,-5.1396,-5.1394,-5.1408,-5.1401,-2.7634,-2.8688,-2.9566,0.0,-2.9935,-3.0384,0.0,0.0,0.0,0.0,-3.8077,-3.9951,-4.0986,-4.1883,-4.2743,-4.3621,-4.3503,0.0,0.0,0.0,0.0,-4.0118,-3.8711,-3.701,-3.5031,-3.3509,0.0,-2.8592,0.0,0.0,-2.2757,0.0,0.0,0.0,0.0,0.0,-2.3329,-2.6822,-2.9768,-3.2167,-3.3045,-3.4431,0.0,0.0,-3.6,-3.5996,-3.5991,-3.6009,-3.6009,-3.5991,-3.5274,-3.4244,-3.3599,-3.2646,-3.1653,-3.1048,-3.0872,-3.0872,-3.0892,-3.0894,-3.0857,-3.0623,-3.0565,-3.0507,0.0,0.0,0.0,0.0,0.0,0.0,0.0,0.0,0.0,0.0,0.0,0.0,0.0,0.0,0.0,-2.2773,0.0,0.0,0.0,-2.5387,-2.6032,-2.6032,-2.7047,0.0,0.0,0.0,0.0,-3.6262,-3.8236,-4.0052,-4.175,-4.3274,-4.4466,-4.5345,-4.5989,-4.6301,-4.6339,-4.7198,-4.8075,-4.8913,-4.9733,-5.0593,-5.1394,-5.1394,-5.1394,-5.1394,-5.1394,-5.1394,-5.1393,-5.14,-5.1392,-5.139,-2.9961,0.0,0.0,-3.248,0.0,0.0,-3.3122,0.0,0.0,-3.7553,-3.9291,0.0,-4.2103,-4.3001,-4.388,-4.476,-4.4486,0.0,0.0,0.0,0.0,-4.1671,-4.04,-3.87,-3.6607,-3.5221,0.0,-3.0165,0.0,0.0,-2.3644,0.0,0.0,0.0,0.0,-2.31,0.0,-2.6829,-3.0264,-3.3404,-3.3404,0.0,0.0,-3.6006,-3.6007,-3.6007,-3.6003,-3.6002,-3.6002,-3.6002,-3.5418,-3.4542,-3.3663,-3.2806,-3.1949,-3.1148,-3.0894,-3.0895,-3.0895,-3.0897,-3.0976,-3.1348,-3.1426,-3.1522,-3.1913,-3.16,-3.1151,0.0,0.0,0.0,0.0,0.0,0.0,0.0,0.0,0.0,0.0,0.0,0.0,0.0,0.0,0.0,0.0,0.0,0.0,0.0,0.0,0.0,0.0,0.0,0.0,-3.5349,-3.7127,-3.9021,-4.1111,-4.2849,-4.4138,-4.5017,-4.5877,-4.6306,-4.6344,-4.7593,-4.8432,-4.8976,-5.0148,-5.0949,-5.1398,-5.1398,-5.1398,-5.1398,-5.1398,-5.1398,-5.1397,-5.139,-5.1407,-5.1407,0.0,0.0,0.0,0.0,0.0,0.0,0.0,-3.6677,0.0,-3.9763,0.0,-4.2067,-4.3687,-4.4546,-4.5347,-4.6225,0.0,-4.517,-4.517,-4.4351,-4.3531,-4.2768,-4.1792,-4.017,-3.7846,-3.6733,0.0,0.0,0.0,0.0,0.0,0.0,0.0,0.0,0.0,0.0,0.0,-2.7008,-3.0269,0.0,-3.3393,-3.4448,-3.5991,-3.5991,-3.5992,-3.5992,-3.5992,-3.5992,-3.5991,-3.5991,-3.5503,-3.4722,-3.3843,-3.3043,-3.2282,-3.1462,-3.1228,-3.1228,-3.1229,-3.123,-3.1406,-3.2108,-3.2262,-3.2475,-3.3236,-3.3393,-3.3197,-3.2436,-3.228,-3.1791,0.0,0.0,0.0,0.0,0.0,0.0,0.0,0.0,0.0,0.0,0.0,0.0,0.0,0.0,0.0,0.0,0.0,0.0,0.0,0.0,0.0,-3.4277,-3.6269,0.0,-4.084,0.0,-4.4082,-4.4844,-4.584,-4.6308,-4.6366,-4.7987,-4.8787,-4.8997,-5.056,-5.1302,-5.14,-5.14,-5.14,-5.14,-5.14,-5.14,-5.14,-5.14,-5.14,-5.14,0.0,0.0,0.0,0.0,0.0,-3.9446,-4.0113,-4.0211,-4.0367,-4.0836,-4.2262,-4.3631,-4.4667,-4.4902,-4.5351,-4.6211,-4.6152,0.0,0.0,0.0,0.0,-4.4549,-4.3025,-4.1637,-4.0463,-3.8237,-3.5718,0.0,0.0,0.0,0.0,0.0,0.0,0.0,0.0,0.0,-2.7439,-2.8045,0.0,-3.3393,-3.3393,-3.4448,-3.5991,-3.5993,-3.5994,-3.5995,-3.5996,-3.5995,-3.5991,-3.5991,-3.5895,-3.5623,-3.4744,-3.4374,-3.4082,-3.3203,-3.2969,-3.2968,-3.2968,-3.2967,-3.3004,-3.314,-3.3178,-3.3217,-3.3374,-3.3393,-3.3354,-3.3197,-3.3178,-3.2865,-3.185,0.0,0.0,0.0,0.0,0.0,0.0,0.0,0.0,0.0,0.0,0.0,0.0,0.0,0.0,0.0,0.0,0.0,0.0,0.0,0.0,0.0,0.0,0.0,0.0,0.0,-4.3784,-4.394,-4.5542,-4.6306,-4.6327,-4.7362,-4.8222,-4.8964,-4.9961,-5.0781,-5.1406,-5.1406,-5.1406,-5.1406,-5.1406,-5.1406,-5.1406,-5.1406,-5.1406,-5.1406,0.0,0.0,0.0,0.0,0.0,0.0,0.0,-4.2834,0.0,-4.2511,-4.3567,-4.4525,-4.4956,-4.5406,-4.5836,-4.6268,-4.6307,-4.6307,-4.6307,-4.5916,-4.5467,-4.5019,-4.3769,0.0,-4.1133,-3.9043,-3.6914,-3.4746,0.0,0.0,0.0,0.0,0.0,0.0,0.0,-2.5878,0.0,0.0,0.0,-3.3437,-3.3886,-3.4842,-3.5995,-3.5995,-3.5996,-3.5996,-3.5996,-3.5996,-3.5996,-3.5995,-3.5995,-3.5859,-3.4961,-3.4707,-3.4531,-3.3651,-3.3396,-3.3395,-3.3395,-3.3393,-3.3507,-3.3957,-3.4072,-3.4186,-3.4655,-3.4753,-3.4616,-3.4167,-3.4069,-3.3815,-3.2937,-3.1375,0.0,0.0,0.0,0.0,0.0,0.0,0.0,0.0,0.0,0.0,0.0,0.0,0.0,0.0,0.0,0.0,0.0,0.0,0.0,0.0,0.0,0.0,0.0,0.0,0.0,-4.3723,-4.5462,-4.6302,-4.6324,-4.7203,-4.8082,-4.8943,-4.9783,-5.0623,-5.1404,-5.1404,-5.1405,-5.1406,-5.1406,-5.1406,-5.1406,-5.1406,-5.1406,-5.1406,0.0,-3.9911,0.0,0.0,-4.235,0.0,-4.3855,-4.4692,-4.4953,-4.4089,-4.4735,-4.5283,-4.5284,-4.5889,-4.6301,-4.6301,-4.6301,-4.6301,-4.6301,-4.6301,-4.5989,-4.5305,-4.4445,-4.3254,-4.1691,-3.9993,-3.8196,0.0,0.0,0.0,0.0,0.0,0.0,0.0,0.0,0.0,0.0,0.0,-3.1971,-3.3748,-3.4413,-3.5215,-3.5996,-3.5996,-3.5995,-3.5994,-3.5994,-3.5993,-3.5992,-3.5995,-3.5996,-3.5878,-3.5194,-3.4978,-3.4842,-3.4156,-3.3959,-3.3958,-3.3958,-3.3955,-3.4127,-3.4791,-3.4981,-3.5152,-3.5833,-3.6007,-3.5812,-3.5111,-3.4838,-3.4486,-3.3802,-3.2397,0.0,0.0,0.0,0.0,0.0,0.0,0.0,0.0,0.0,0.0,0.0,0.0,0.0,0.0,0.0,0.0,0.0,0.0,0.0,0.0,0.0,-3.6847,-3.8584,0.0,-4.37,0.0,-4.5478,-4.6299,-4.6319,-4.7004,-4.7902,-4.8937,-4.9562,-5.0441,-5.1398,-5.1398,-5.1401,-5.1404,-5.1404,-5.1405,-5.1406,-5.1406,-5.1406,-5.1406,0.0,0.0,0.0,0.0,0.0,0.0,0.0,-4.5526,-4.5809,-4.4972,-4.5638,-4.6189,-4.6175,-4.6255,-4.6296,-4.6301,-4.6301,-4.6301,-4.6301,-4.6301,-4.6262,-4.6184,-4.5345,-4.4426,-4.3489,-4.1751,-3.9641,0.0,0.0,0.0,0.0,0.0,0.0,0.0,0.0,0.0,0.0,-3.0834,-3.2319,-3.4585,-3.4663,-3.5211,-3.5992,-3.5992,-3.5992,-3.5991,-3.5991,-3.5991,-3.5991,-3.5992,-3.5992,-3.5992,-3.5894,-3.5874,-3.5854,-3.5776,-3.5754,-3.5751,-3.5751,-3.5766,-3.5779,-3.5857,-3.5871,-3.5903,-3.5981,-3.5994,-3.5988,-3.589,-3.5248,-3.4683,-3.4585,-3.3803,-3.3158,0.0,0.0,0.0,0.0,0.0,0.0,0.0,0.0,0.0,0.0,0.0,0.0,0.0,0.0,0.0,0.0,0.0,0.0,-3.0861,0.0,-3.6834,-3.8573,-4.1989,0.0,-4.3726,-4.5464,-4.6306,-4.6294,-4.6372,-4.7331,-4.8898,-4.8976,-4.9913,-5.1398,-5.1398,-5.1398,-5.1399,-5.1399,-5.1399,-5.1399,-5.1399,-5.1399,-5.1399,0.0,0.0,0.0,0.0,0.0,0.0,0.0,-4.5972,-4.6075,-4.5753,-4.6028,-4.6245,-4.6249,-4.6249,-4.6232,-4.6236,-4.6236,-4.6236,-4.6236,-4.6236,-4.6236,-4.6236,-4.5395,-4.4555,-4.3716,-4.1999,-4.0086,0.0,0.0,0.0,0.0,0.0,0.0,0.0,0.0,-3.0141,-3.1686,-3.2744,-3.3761,-3.4757,-3.5267,-3.5698,-3.5991,-3.5991,-3.6009,-3.6007,-3.6007,-3.6005,-3.6001,-3.6001,-3.6006,-3.5991,-3.6008,-3.6007,-3.6006,-3.6002,-3.6,-3.5998,-3.5998,-3.5992,-3.6004,-3.6004,-3.5997,-3.5992,-3.5992,-3.6007,-3.6005,-3.6005,-3.5713,-3.5479,-3.5479,-3.4776,-3.4172,0.0,0.0,0.0,0.0,0.0,0.0,0.0,0.0,0.0,0.0,0.0,0.0,0.0,0.0,0.0,0.0,0.0,0.0,-3.151,0.0,-3.6817,-3.8516,-4.197,-4.3704,-4.3723,-4.5423,-4.6245,-4.6249,-4.6275,-4.724,-4.8906,-4.9941,-5.078,-5.1405,-5.1405,-5.1408,-5.1394,-5.1394,-5.1395,-5.1398,-5.1398,-5.1398,-5.1398,-4.4769,0.0,-4.5744,0.0,-4.6563,-4.6875,-4.6599,-4.6557,-4.6479,-4.6225,-4.6206,-4.6192,-4.6206,-4.6206,-4.6206,-4.6206,-4.6206,-4.6206,-4.6206,-4.6206,-4.6206,-4.6206,-4.5601,0.0,-4.3729,-4.2498,-4.0881,-3.8872,-3.7175,0.0,0.0,0.0,0.0,0.0,-3.1295,-3.2059,-3.2943,-3.4178,-3.4843,-3.5136,-3.5748,-3.6004,-3.6004,-3.6006,-3.6004,-3.6001,-3.6001,-3.5998,-3.5992,-3.5992,-3.5999,-3.6004,-3.6002,-3.6001,-3.6,-3.5992,-3.6009,-3.6007,-3.6006,-3.6001,-3.5995,-3.5995,-3.5988,-3.596,-3.596,-3.5977,-3.5975,-3.5975,-3.5975,-3.5975,-3.5975,-3.5468,-3.5041,-3.5041,0.0,0.0,0.0,0.0,0.0,0.0,0.0,-2.9285,-2.87,0.0,0.0,0.0,0.0,0.0,0.0,0.0,0.0,0.0,0.0,0.0,0.0,-4.1954,-4.3709,-4.3729,-4.5406,-4.6206,-4.6228,-4.6782,-4.7689,-4.8905,-5.0642,-5.1403,-5.1403,-5.1408,-5.1394,-5.1402,-5.1405,-5.1408,-5.1393,-5.1393,-5.1393,-5.1393,-4.729,-4.7466,-4.7738,-4.8592,-4.8768,-4.8452,-4.7537,-4.7396,-4.7104,-4.6306,-4.6209,-4.6192,-4.6203,-4.6206,-4.6206,-4.6206,-4.6206,-4.6206,-4.6206,-4.6206,-4.6206,0.0,0.0,-4.5406,-4.3748,-4.369,-4.2383,-3.9789,0.0,0.0,-3.5927,0.0,-3.337,-3.3351,-3.337,-3.3858,-3.4661,-3.4681,-3.5206,-3.5986,-3.5997,-3.6001,-3.6001,-3.6009,-3.5992,-3.5992,-3.5992,-3.5992,-3.5992,-3.5992,-3.6007,-3.6001,-3.6009,-3.5992,-3.5991,-3.6002,-3.5999,-3.5997,-3.6007,-3.6005,-3.6005,-3.6005,-3.5958,-3.5909,-3.5909,-3.5899,-3.5908,-3.5908,-3.5908,-3.5908,-3.5908,-3.5889,-3.5889,-3.5889,0.0,0.0,0.0,0.0,0.0,0.0,-3.055,-2.9496,-2.9496,0.0,0.0,0.0,0.0,0.0,0.0,0.0,0.0,-3.2063,-3.5418,0.0,-3.8482,-4.1954,-4.3709,-4.3729,-4.5406,-4.6206,-4.6265,-4.7981,-4.8778,-4.8895,-5.0634,-5.1394,-5.1397,-5.1391,-5.1399,-5.1399,-5.139,-5.1394,-5.1394,-5.1394,-5.1394,-5.1394,-4.8256,-4.8314,-4.8412,-4.8684,-4.8723,-4.8427,-4.7542,-4.7406,-4.7095,-4.6243,-4.6126,-4.6134,-4.6135,-4.616,-4.6196,0.0,-4.6196,-4.6196,0.0,-4.6196,-4.6196,-4.6196,-4.6196,-4.5391,-4.3663,-4.3624,-4.2351,-3.9728,0.0,0.0,0.0,-3.5975,-3.5675,-3.5122,-3.5734,-3.6465,-3.729,-3.729,-3.7446,-3.7641,-3.7061,-3.6826,-3.677,-3.6208,-3.5995,-3.5995,-3.5995,-3.5995,-3.5995,-3.5995,-3.5992,-3.599,-3.5994,-3.5995,-3.5994,-3.5992,-3.6009,-3.6009,-3.6005,-3.5979,-3.5934,-3.5934,-3.5924,-3.5897,-3.5897,-3.5892,-3.5906,-3.5897,-3.5894,-3.5891,-3.5901,-3.5898,-3.5898,-3.5898,-3.5898,0.0,0.0,0.0,0.0,0.0,0.0,-3.0092,0.0,-2.9741,0.0,0.0,0.0,0.0,0.0,0.0,0.0,0.0,-3.6311,0.0,-4.0248,-4.2506,-4.3932,-4.4536,-4.567,-4.6203,-4.6231,-4.7382,-4.8242,-4.8856,-5.0009,-5.0848,-5.1394,-5.14,-5.1403,-5.1403,-5.1405,-5.1408,-5.1408,-5.1408,-5.1408,-5.1408,-4.9124,-4.9182,-4.928,-4.9591,-4.963,-4.9241,-4.8025,-4.7845,-4.7441,-4.626,-4.6104,-4.6104,-4.6093,-4.6142,0.0,-4.6158,-4.6158,-4.6158,-4.6158,-4.6158,-4.6158,-4.6158,-4.5846,-4.5021,-4.3627,0.0,0.0,-4.0198,-3.9863,-3.8715,-3.6848,-3.7403,-3.7358,-3.6865,-3.7419,-3.7954,-3.8469,-3.8494,-3.8497,-3.8458,-3.7903,-3.7498,-3.7147,-3.6645,-3.6257,-3.6005,-3.6005,-3.6005,-3.6005,-3.6005,-3.5981,-3.596,-3.596,-3.5955,-3.5953,-3.5958,-3.596,-3.5958,-3.5953,-3.5929,-3.5902,-3.5902,-3.5892,-3.59,-3.5894,-3.5894,-3.5911,-3.5898,-3.5898,-3.5895,-3.5905,-3.5901,-3.5901,-3.5901,-3.5901,-3.5609,-3.4714,0.0,0.0,0.0,0.0,0.0,0.0,-3.1186,0.0,0.0,0.0,0.0,0.0,0.0,0.0,-3.583,-3.7389,0.0,-4.1088,-4.2763,-4.4049,-4.4903,-4.5753,-4.6162,-4.6196,-4.7069,-4.7933,-4.8817,-4.9678,-5.0563,-5.1365,-5.1353,-5.1359,-5.1366,-5.1391,-5.1394,-5.1394,-5.1394,-5.1394,-5.1394,-4.9917,-5.0092,0.0,0.0,-5.1196,0.0,-4.8948,-4.8632,-4.801,-4.6382,-4.6129,-4.6081,-4.6084,-4.6084,-4.6084,-4.6084,0.0,0.0,0.0,-4.6098,-4.6098,-4.6098,-4.5276,-4.442,-4.3603,-4.2747,-4.1867,-4.0992,-4.0171,-3.9334,-3.8498,-3.8556,-3.856,-3.8482,-3.856,-3.8579,-3.8579,-3.864,-3.8669,-3.8673,-3.8603,-3.8104,-3.7366,-3.7242,-3.674,-3.6079,-3.6001,-3.5984,-3.5984,-3.5981,-3.5955,-3.5907,-3.5904,-3.5897,-3.5908,-3.5902,-3.5907,-3.5904,-3.5892,-3.5906,-3.5906,-3.5906,-3.5897,-3.5901,-3.5905,-3.5901,-3.5921,-3.5976,-3.5976,-3.5995,-3.6054,-3.6015,-3.5976,-3.5976,-3.5937,-3.5587,-3.4731,0.0,0.0,0.0,0.0,0.0,0.0,-3.2876,-3.3417,0.0,0.0,0.0,0.0,0.0,-3.6159,-3.6159,-3.8575,-4.0325,-4.126,-4.2877,-4.4117,-4.4997,-4.5737,-4.6098,-4.6137,-4.6993,-4.7883,-4.8754,-4.962,-5.049,-5.1287,-5.1288,-5.1289,-5.1307,-5.1362,-5.1388,-5.1388,-5.1388,-5.1388,-5.1388,0.0,0.0,-5.0895,-5.1089,-5.1128,-5.0759,-4.9685,-4.8942,-4.8147,-4.7086,-4.6368,-4.5947,-4.5953,-4.5953,-4.5953,-4.5953,-4.6032,-4.6098,-4.6098,-4.6098,-4.6098,-4.6098,-4.5276,-4.4392,-4.3538,-4.2667,-4.1803,-4.0926,-4.0712,-4.0202,-3.9406,-4.0068,-4.0038,-3.9416,-4.0093,-4.0373,-4.0392,-4.0396,-4.042,-4.0342,-3.9687,-3.9282,-3.8971,-3.7683,-3.7085,-3.6835,-3.6167,-3.5919,-3.5916,-3.5925,-3.59,-3.5897,-3.5905,-3.5898,-3.5898,-3.5894,-3.5897,-3.5894,-3.5898,-3.5895,-3.5895,-3.5895,-3.5892,-3.5908,-3.5901,-3.5901,-3.6073,-3.6697,-3.6829,-3.702,-3.7685,-3.7253,-3.6825,-3.6825,-3.6262,-3.5523,-3.4649,-3.4357,0.0,0.0,-3.2997,-3.2997,-3.2997,-3.3736,-3.449,0.0,0.0,0.0,0.0,-3.8447,-3.8808,-3.8808,-4.0054,-4.1455,-4.2996,-4.4008,-4.4958,-4.581,-4.6,-4.6098,-4.6137,-4.7008,-4.7879,-4.8754,-4.9615,-5.0476,-5.122,-5.1225,-5.121,-5.1239,-5.1243,-5.1243,-5.1243,-5.1243,-5.1243,-5.1243,-5.1089,-5.1095,-5.1101,-5.1101,-5.1101,-5.081,-4.9937,-4.9395,-4.8639,-4.7378,-4.6797,-4.6332,-4.595,-4.5911,-4.5911,-4.5911,-4.5986,-4.6047,-4.6047,-4.6056,-4.5881,-4.5483,-4.4628,-4.3739,-4.2879,-4.2005,-4.1335,-4.0854,-4.0854,-4.064,-4.0209,-4.0694,-4.0665,-4.0213,-4.0722,-4.0945,-4.0969,-4.0991,-4.1003,-4.0964,-4.0486,-4.0058,-3.9595,-3.8688,-3.8107,-3.7679,-3.7206,-3.7034,-3.7034,-3.7044,-3.704,-3.704,-3.7049,-3.7046,-3.7046,-3.7049,-3.6492,-3.5895,-3.5905,-3.5901,-3.5898,-3.5868,-3.6156,-3.6448,-3.646,-3.6767,-3.7172,-3.7607,-3.7672,-3.7795,-3.8272,-3.7637,-3.7045,-3.7045,-3.6327,-3.5459,-3.4621,-3.4505,0.0,-3.341,-3.3623,-3.4012,-3.44,-3.5197,-3.6051,-3.6925,0.0,0.0,-3.8944,-3.9442,-3.9707,-3.9708,-4.0937,-4.2241,-4.3583,-4.4781,-4.5633,-4.6099,-4.6071,-4.6256,-4.6664,-4.7145,-4.8059,-4.9269,-4.9755,-5.0422,-5.119,-5.119,-5.1201,-5.1211,-5.1211,-5.1211,-5.1211,-5.1211,-5.1211,-5.1211,-5.1067,-5.1087,-5.106,-5.106,-5.106,-5.0828,-5.0091,-4.9859,-4.9193,-4.7578,-4.7249,-4.6842,-4.5983,-4.5886,-4.5886,-4.5873,-4.5943,-4.5986,-4.5991,-4.5975,-4.5606,-4.4744,-4.3871,-4.2992,-4.2117,-4.1258,-4.0807,-4.0807,-4.0807,-4.0807,-4.0807,-4.0807,-4.0807,-4.0807,-4.0867,-4.0877,-4.0883,-4.0951,-4.0969,-4.0974,-4.0971,-4.0532,-3.9871,-3.9739,-3.9237,-3.8576,-3.8443,-3.8404,-3.8404,-3.84,-3.84,-3.84,-3.8397,-3.8397,-3.8393,-3.8392,-3.7389,-3.6257,-3.6261,-3.628,-3.6257,-3.6215,-3.6756,-3.7296,-3.7275,-3.7853,-3.8417,-3.8548,-3.8549,-3.853,-3.8646,-3.7967,-3.7351,-3.7215,-3.6459,-3.5616,-3.4809,0.0,-3.443,-3.3747,-3.4373,-3.5165,-3.5903,-3.6777,-3.7635,-3.8529,-3.8587,-3.9014,0.0,-4.0082,-4.0144,-4.026,-4.1703,-4.2952,-4.3945,-4.5366,-4.6071,-4.6085,-4.6026,-4.6457,-4.7281,-4.7417,-4.8349,-4.9889,-5.0025,-5.0509,-5.1173,-5.1173,-5.1184,-5.1185,-5.1185,-5.1185,-5.1185,-5.1185,-5.1185,-5.1185,-5.1012,-5.0963,-5.0941,-5.0941,-5.0941,-5.0887,-5.0739,-5.0101,-4.9273,-4.8257,-4.7496,-4.6712,-4.5907,-4.5817,-4.5824,-4.5821,-4.5874,-4.5925,-4.5917,-4.5923,-4.5555,-4.4748,-4.3881,-4.2989,-4.2111,-4.1258,-4.0807,-4.0807,-4.0807,-4.0807,-4.0807,-4.0807,-4.0807,-4.0807,-4.0812,-4.0812,-4.0812,-4.0823,-4.0828,-4.0828,-4.0893,-4.0825,-4.0636,-3.9954,-3.9621,-3.9407,-3.865,-3.8404,-3.84,-3.8405,-3.8401,-3.8397,-3.8399,-3.8395,-3.8391,-3.8325,-3.8122,-3.7937,-3.8002,-3.8007,-3.8007,-3.8002,-3.81,-3.8188,-3.8122,-3.8214,-3.8515,-3.9252,-3.9416,-3.961,-4.0289,-3.9741,-3.896,-3.8228,-3.737,-3.6498,-3.5636,0.0,-3.5461,-3.5349,-3.6086,-3.6663,-3.6799,-3.7599,-3.8471,-3.9344,-3.9402,-4.0111,-4.1727,-4.1805,-4.215,-4.2898,-4.317,-4.4064,-4.5604,-4.589,-4.6016,-4.6028,-4.6003,-4.6432,-4.7236,-4.7973,-4.8865,-4.986,-5.0591,-5.0985,-5.1121,-5.1121,-5.1127,-5.1115,-5.1115,-5.1115,-5.1115,-5.1115,-5.1115,-5.1115,-5.0948,-5.0917,-5.0905,-5.0905,-5.0869,-5.0852,-5.0855,-5.0499,-4.9931,-4.9056,-4.8227,-4.7386,-4.6534,-4.602,-4.5739,-4.5742,-4.5776,-4.5805,-4.5847,-4.588,-4.5337,-4.4059,-4.3613,-4.2774,-4.1426,-4.1013,-4.08,-4.08,-4.08,-4.08,-4.08,-4.08,-4.08,-4.08,-4.0792,-4.0798,-4.0804,-4.0801,-4.0807,-4.0807,-4.0823,-4.0842,-4.0809,-4.0422,-4.0296,-4.0243,-3.9878,-3.9751,-3.9751,-3.9755,-3.976,-3.9755,-3.9747,-3.9757,-3.9733,-3.967,-3.9,-3.8307,-3.8341,-3.8346,-3.8346,-3.8346,-3.869,-3.9034,-3.9,-3.9349,-3.9756,-4.0167,-4.0248,-4.0353,-4.0721,-4.0109,-3.9406,-3.9019,-3.8219,0.0,0.0,-3.6769,-3.689,-3.6459,-3.7177,-3.7874,-3.8359,-3.8766,-3.9353,-4.0186,-4.0685,-4.1297,-4.2103,-4.2588,-4.3253,-4.4123,-4.4159,-4.4732,-4.5994,-4.5964,-4.5947,-4.5949,-4.6414,-4.7081,-4.7941,-4.8794,-4.9685,-5.0519,-5.0926,-5.1101,-5.1101,-5.1101,-5.1101,-5.1101,-5.1101,-5.1101,-5.1101,-5.1101,-5.1101,-5.1101,-5.0874,-5.0888,-5.0883,-5.0883,-5.0819,-5.0793,-5.0784,-5.0784,-5.0466,-4.96,-4.8945,-4.8144,-4.7083,-4.6378,-4.5904,-4.5727,-4.5708,-4.5723,-4.5773,-4.5814,-4.5196,-4.3731,-4.3286,-4.237,-4.0835,-4.0784,-4.0784,-4.0784,-4.0759,-4.0752,-4.0752,-4.0752,-4.0759,-4.0784,-4.0784,-4.0802,-4.0808,-4.0798,-4.0809,-4.0809,-4.0796,-4.0796,-4.0796,-4.0807,-4.0807,-4.0812,-4.0867,-4.0877,-4.0877,-4.0883,-4.0869,-4.0888,-4.0883,-4.0877,-4.0872,-4.0826,-3.9879,-3.8872,-3.8882,-3.8888,-3.8888,-3.8888,-3.9372,-3.9871,-3.9885,-4.0369,-4.0796,-4.0809,-4.0806,-4.0808,-4.0808,-4.0248,-3.9733,-3.952,0.0,0.0,0.0,-3.7802,-3.7962,-3.7345,-3.8053,-3.8847,-3.9506,-3.9758,-4.0203,-4.1017,-4.1695,-4.2257,-4.265,-4.3329,-4.409,-4.4955,-4.4979,-4.5301,-4.5966,-4.5923,-4.5905,-4.5918,-4.6784,-4.765,-4.8515,-4.9387,-5.024,-5.1053,-5.1053,-5.1053,-5.1053,-5.1053,-5.1053,-5.1053,-5.1053,-5.1053,-5.1053,-5.1053,-5.1046,-5.1058,-5.0819,-5.081,-5.0801,-5.0801,-5.0801,-5.0784,-5.071,-5.0701,-5.0384,-4.9528,-4.9365,-4.871,-4.7071,-4.6848,-4.6519,-4.5777,-4.5708,-4.5708,-4.5708,-4.5715,-4.5348,-4.4562,-4.2957,-4.1686,-4.0816,-4.0739,-4.07,-4.07,-4.0654,-4.0602,-4.0602,-4.0602,-4.0654,-4.07,-4.0707,-4.0746,-4.0797,-4.0803,-4.0803,-4.0803,-4.0788,-4.08,-4.0806,-4.0796,-4.0807,-4.0807,-4.0812,-4.0812,-4.0812,-4.0812,-4.0812,-4.0812,-4.0812,-4.0812,-4.0807,-4.0792,-4.0705,-4.0622,-4.0621,-4.0613,-4.0613,-4.0613,-4.0652,-4.0704,-4.0709,-4.0761,-4.0794,-4.0809,-4.0803,-4.0797,-4.0797,-4.0758,-4.0448,-3.9636,0.0,0.0,-3.8237,-3.816,-3.8179,-3.8121,-3.8882,-3.9429,-3.9507,-4.0242,-4.1054,-4.1841,-4.1977,-4.2705,-4.4324,-4.4479,-4.4905,-4.5769,-4.5814,-4.5834,-4.5911,-4.5892,-4.5893,-4.59,-4.6771,-4.7622,-4.8438,-4.9308,-5.0159,-5.0906,-5.0906,-5.0906,-5.0906,-5.0906,-5.0906,-5.0906,-5.0906,-5.0906,-5.0906,-5.0906,-5.0909,-5.0916,-5.0801,-5.0775,-5.0729,-5.0729,-5.0749,-5.0721,-5.0702,-5.0664,-5.0519,-5.0191,-4.9643,-4.9027,-4.8394,-4.7396,-4.6675,-4.6413,-4.5883,-4.561,-4.5679,-4.5706,-4.5325,-4.4503,-4.3364,-4.2341,-4.1491,-4.1458,-4.1181,-4.0647,-4.0621,-4.0595,-4.0595,-4.0595,-4.0621,-4.0647,-4.0647,-4.0661,-4.0674,-4.0674,-4.0674,-4.0674,-4.0688,-4.0701,-4.0739,-4.0732,-4.0751,-4.0794,-4.0792,-4.0798,-4.0798,-4.0801,-4.0807,-4.0807,-4.0804,-4.0798,-4.0792,-4.0802,-4.0803,-4.0803,-4.0808,-4.0794,-4.0794,-4.0794,-4.0794,-4.0808,-4.0796,-4.079,-4.0809,-4.0797,-4.1203,-4.1545,-4.1545,-4.1545,-4.1429,-4.11,0.0,-4.0004,-3.9133,-3.9475,-3.9611,-3.9069,-3.9791,-4.0507,-4.1003,-4.1351,-4.1893,-4.2744,-4.3305,-4.3904,-4.4556,-4.5066,-4.5498,-4.5828,-4.5847,-4.5854,-4.5899,-4.5854,-4.6112,-4.6653,-4.7482,-4.833,-4.9165,-5.0011,-5.0554,-5.0844,-5.0844,-5.0844,-5.0844,-5.0844,-5.0844,-5.0844,-5.0844,-5.0844,-5.0844,-5.0844,-5.0836,-5.0846,-5.0776,-5.0711,-5.0673,-5.0673,-5.0654,-5.0643,-5.0643,-5.0603,-5.0572,-5.0572,-5.0003,-4.9503,-4.9224,-4.795,-4.7021,-4.6791,-4.5975,-4.5504,-4.5594,-4.5631,-4.5261,-4.443,-4.3879,-4.3184,-4.2336,-4.2282,-4.1974,-4.1384,-4.1118,-4.0976,-4.0976,-4.0694,-4.0586,-4.0593,-4.0593,-4.06,-4.0595,-4.0595,-4.0595,-4.0595,-4.0595,-4.0628,-4.0661,-4.0661,-4.07,-4.0746,-4.0758,-4.0764,-4.077,-4.0787,-4.0798,-4.0798,-4.0794,-4.0802,-4.0796,-4.0765,-4.0778,-4.0759,-4.0746,-4.0933,-4.1094,-4.0868,-4.0797,-4.0874,-4.1126,-4.1184,-4.1255,-4.1525,-4.2028,-4.2415,-4.2415,-4.2415,-4.2415,-4.2415,-4.1951,-4.1371,-4.0777,-4.1222,-4.1351,-4.0758,-4.1222,-4.1796,-4.2357,-4.2383,-4.2743,-4.3613,-4.4218,-4.4655,-4.4933,-4.5474,-4.5771,-4.5771,-4.5761,-4.5931,-4.6245,-4.6204,-4.6479,-4.7078,-4.8168,-4.8982,-4.96,-5.0424,-5.0801,-5.0801,-5.0801,-5.0801,-5.0801,-5.0801,-5.0801,-5.0801,-5.0801,-5.0801,-5.0801,-5.0801,-5.0793,-5.0775,-5.0702,-5.0643,-5.0603,-5.0603,-5.0542,-5.05,-5.05,-5.05,-5.05,-5.05,-5.05,-5.0174,-4.9301,-4.8487,-4.7662,-4.68,-4.5918,-4.54,-4.54,-4.5457,-4.5173,-4.445,-4.4411,-4.4033,-4.3223,-4.3146,-4.3111,-4.3092,-4.2236,-4.1808,-4.1788,-4.0931,-4.055,-4.0607,-4.0607,-4.061,-4.0595,-4.0595,-4.0595,-4.0595,-4.0595,-4.0595,-4.0595,-4.0595,-4.0595,-4.0614,-4.0687,-4.07,-4.07,-4.0784,-4.0797,-4.0797,-4.0816,-4.0816,-4.0803,-4.0745,-4.072,-4.0713,-4.064,-4.1244,-4.1733,-4.0991,-4.0816,-4.1023,-4.1835,-4.2009,-4.226,-4.3131,-4.3305,-4.3305,-4.3305,-4.3305,-4.3305,-4.3305,-4.3305,-4.3305,-4.3305,-4.3305,-4.3305,-4.3305,-4.3305,-4.3305,-4.3305,-4.3245,-4.3571,-4.444,-4.4442,-4.4785,-4.565,-4.5708,-4.5708,-4.5708,-4.5727,-4.6124,-4.7003,-4.7003,-4.7003,-4.7042,-4.872,-4.9511,-4.9549,-5.0407,-5.0801,-5.0801,-5.0801,-5.0801,-5.0801,-5.0801,-5.0801,-5.0801,-5.0801,-5.0801,-5.0801,-5.0801,-5.0766,-5.0701,-5.0563,-5.0542,-5.0521,-5.0521,-5.0511,-5.05,-5.05,-5.0468,-5.0435,-5.0435,-5.0382,-5.0264,-5.0004,-4.925,-4.8679,-4.8405,-4.7065,-4.5993,-4.5438,-4.5419,-4.5332,-4.51,-4.519,-4.484,-4.3992,-4.3957,-4.3668,-4.3102,-4.2843,-4.272,-4.272,-4.245,-4.2016,-4.1447,-4.1447,-4.1089,-4.0534,-4.0534,-4.0534,-4.0534,-4.0534,-4.0569,-4.0603,-4.0603,-4.0605,-4.0595,-4.0621,-4.0628,-4.0628,-4.0641,-4.0661,-4.0777,-4.1388,-4.1986,-4.2488,-4.2454,-4.2447,-4.2447,-4.244,-4.2606,-4.2613,-4.1786,-4.2025,-4.2546,-4.2797,-4.2835,-4.2913,-4.3183,-4.3685,-4.4071,-4.4071,-4.4071,-4.4071,-4.4071,-4.3607,-4.3221,-4.3221,-4.3221,-4.3221,-4.3221,-4.3221,-4.3453,-4.4032,-4.4056,-4.4403,-4.5279,-4.5322,-4.543,-4.5688,-4.6278,-4.6598,-4.6598,-4.7152,-4.7578,-4.7848,-4.7276,-4.7582,-4.8759,-4.9264,-4.9795,-5.0353,-5.0615,-5.0731,-5.0731,-5.0731,-5.0731,-5.0731,-5.0731,-5.0693,-5.0654,-5.0654,-5.0634,-5.0585,-5.0585,-5.0575,-5.0554,-5.0511,-5.0478,-5.0457,-5.0435,-5.0393,-5.0371,-5.0348,-5.0302,-5.0278,-5.0278,-5.0243,-5.0219,-5.0219,-4.9506,-4.9022,-4.9018,-4.7491,-4.6309,-4.5825,-4.5512,-4.5321,-4.5361,-4.5467,-4.5264,-4.4744,-4.4744,-4.4495,-4.4014,-4.3688,-4.3562,-4.3579,-4.3214,-4.2799,-4.2316,-4.2316,-4.1835,-4.1008,-4.1008,-4.0823,-4.0496,-4.0496,-4.0531,-4.0565,-4.0565,-4.0561,-4.0571,-4.0586,-4.0817,-4.1114,-4.1101,-4.134,-4.1726,-4.2259,-4.2779,-4.3177,-4.3169,-4.3162,-4.3162,-4.3166,-4.3389,-4.3505,-4.2984,-4.3027,-4.3281,-4.3609,-4.3667,-4.3763,-4.411,-4.4581,-4.4901,-4.4901,-4.4901,-4.4901,-4.4901,-4.4504,-4.4195,-4.4195,-4.4195,-4.4195,-4.4195,-4.4195,-4.4388,-4.4862,-4.4913,-4.5128,-4.5621,-4.5979,-4.6172,-4.6172,-4.6973,-4.7435,-4.7435,-4.791,-4.8334,-4.8662,-4.817,-4.843,-4.9458,-4.9816,-5.023,-5.0712,-5.0673,-5.0653,-5.0653,-5.0633,-5.0623,-5.0623,-5.0623,-5.0603,-5.0572,-5.0572,-5.0532,-5.05,-5.05,-5.05,-5.05,-5.067,-5.0653,-5.0578,-5.0519,-5.0395,-5.0297,-5.0222,-5.0152,-5.0095,-5.0095,-5.0095,-5.0095,-5.0095,-4.9461,-4.9004,-4.9004,-4.7558,-4.6587,-4.6511,-4.5749,-4.5328,-4.5401,-4.5376,-4.537,-4.5371,-4.539,-4.54,-4.54,-4.4672,-4.4335,-4.4372,-4.3585,-4.3208,-4.3212,-4.3212,-4.2703,-4.1896,-4.1896,-4.1434,-4.0712,-4.0635,-4.0615,-4.0615,-4.0615,-4.0615,-4.0623,-4.075,-4.1324,-4.2006,-4.2005,-4.2572,-4.3304,-4.3304,-4.3343,-4.3401,-4.335,-4.3323,-4.3327,-4.3324,-4.3846,-4.4404,-4.4404,-4.3896,-4.3586,-4.4345,-4.45,-4.4739,-4.5538,-4.5692,-4.5692,-4.5692,-4.5692,-4.5692,-4.5692,-4.5692,-4.5692,-4.5692,-4.5692,-4.5692,-4.5692,-4.5692,-4.5692,-4.5692,-4.5698,-4.5687,-4.5701,-4.6442,-4.6914,-4.6991,-4.776,-4.8202,-4.8202,-4.826,-4.8702,-4.95,-4.9441,-4.9441,-4.9519,-5.0308,-5.0673,-5.0673,-5.0613,-5.0593,-5.0593,-5.0521,-5.05,-5.05,-5.05,-5.05,-5.0489,-5.0489,-5.0489,-5.0459,-5.0459,-5.0478,-5.0448,-5.2124,-5.2221,-5.2183,-5.212,-5.158,-5.1129,-5.1116,-5.0533,-5.0095,-5.0095,-5.0095,-5.0095,-5.0095,-4.9943,-4.9841,-4.9841,-4.8928,-4.8071,-4.7386,-4.658,-4.6146,-4.6157,-4.5521,-4.517,-4.5162,-4.5321,-4.54,-4.54,-4.5228,-4.5141,-4.5151,-4.4978,-4.4537,-4.3952,-4.3952,-4.3472,-4.2657,-4.2657,-4.2542,-4.2321,-4.1688,-4.1447,-4.1447,-4.1447,-4.1447,-4.1524,-4.2176,-4.2567,-4.2763,-4.2824,-4.3379,-4.4053,-4.4053,-4.4534,-4.5081,-4.5073,-4.5064,-4.5056,-4.4993,-4.5109,-4.5235,-4.5179,-4.5045,-4.5004,-4.5276,-4.5351,-4.5389,-4.5582,-4.562,-4.562,-4.562,-4.562,-4.562,-4.562,-4.562,-4.562,-4.562,-4.562,-4.562,-4.562,-4.562,-4.562,-4.562,-4.5558,-4.581,-4.6493,-4.6657,-4.704,-4.7721,-4.8517,-4.8959,-4.8959,-4.9611,-5.0082,-5.0255,-5.0253,-5.0274,-5.0344,-5.0486,-5.0542,-5.0542,-5.0521,-5.0521,-5.0521,-5.0511,-5.05,-5.05,-5.05,-5.0468,-5.0424,-5.0424,-5.0348,-5.0278,-5.0278,-5.0243,-5.0194,-5.259,-5.2653,-5.2627,-5.2561,-5.2205,-5.1906,-5.1885,-5.1486,-5.1068,-5.0688,-5.0631,-5.048,-5.0043,-4.9978,-4.9939,-4.9912,-4.914,-4.8458,-4.8003,-4.7252,-4.6663,-4.627,-4.5881,-4.5498,-4.5103,-4.5205,-4.526,-4.5291,-4.5291,-4.5341,-4.5409,-4.5409,-4.5189,-4.4767,-4.4767,-4.4307,-4.3512,-4.3512,-4.3282,-4.286,-4.2439,-4.2266,-4.2266,-4.2266,-4.2266,-4.2324,-4.2745,-4.3185,-4.3635,-4.4065,-4.4477,-4.4832,-4.4832,-4.5139,-4.5504,-4.5504,-4.5504,-4.5495,-4.5457,-4.5448,-4.5438,-4.541,-4.54,-4.5419,-4.5495,-4.5504,-4.5504,-4.5504,-4.5504,-4.5504,-4.5504,-4.5504,-4.5504,-4.5504,-4.5504,-4.5504,-4.5504,-4.5522,-4.5559,-4.5559,-4.5559,-4.555,-4.5504,-4.5457,-4.5803,-4.6685,-4.7097,-4.7701,-4.8534,-4.9369,-4.9829,-4.9829,-5.0251,-5.05,-5.05,-5.0468,-5.0468,-5.05,-5.05,-5.05,-5.05,-5.0468,-5.0457,-5.0457,-5.0382,-5.0359,-5.0359,-5.0325,-5.029,-5.0255,-5.0255,-5.0219,-5.0158,-5.0158,-5.0133,-5.0095,-5.3006,-5.3011,-5.2984,-5.2916,-5.2802,-5.2679,-5.2613,-5.2466,-5.2144,-5.1467,-5.1239,-5.088,-5.0141,-4.9896,-4.9764,-4.9707,-4.9051,-4.8617,-4.8617,-4.7904,-4.7127,-4.6322,-4.6266,-4.5884,-4.5076,-4.5068,-4.5095,-4.5181,-4.5181,-4.5235,-4.5348,-4.5348,-4.535,-4.5351,-4.5351,-4.4987,-4.4346,-4.4346,-4.3944,-4.3264,-4.312,-4.3072,-4.3072,-4.3082,-4.3082,-4.3101,-4.3254,-4.3781,-4.4509,-4.517,-4.54,-4.54,-4.54,-4.54,-4.54,-4.54,-4.54,-4.54,-4.539,-4.539,-4.541,-4.5381,-4.5381,-4.5381,-4.5381,-4.539,-4.54,-4.54,-4.54,-4.54,-4.54,-4.54,-4.54,-4.54,-4.54,-4.54,-4.54,-4.5438,-4.5485,-4.5485,-4.5485,-4.5448,-4.541,-4.5515,-4.5966,-4.6837,-4.77,-4.8532,-4.9356,-5.0065,-5.0468,-5.0468,-5.0468,-5.0468,-5.0468,-5.0412,-5.0379,-5.0379,-5.0404,-5.0446,-5.0457,-5.039,-5.0356,-5.0337,-5.0243,-5.0175,-5.0194,-5.012,-5.0095,-5.0095,-5.0095,-5.0095,-5.0082,-5.007,-5.007,-5.007,-5.4553,-5.4672,-5.4643,-5.459,-5.4006,-5.3503,-5.3376,-5.2752,-5.2265,-5.2096,-5.1405,-5.0896,-5.0782,-5.0141,-4.9707,-4.9692,-4.9579,-4.9522,-4.9522,-4.873,-4.7895,-4.7092,-4.646,-4.5723,-4.4852,-4.4895,-4.4998,-4.5114,-4.5114,-4.5125,-4.5148,-4.5148,-4.5148,-4.514,-4.514,-4.5082,-4.4976,-4.4976,-4.49,-4.4728,-4.4029,-4.3764,-4.3764,-4.3834,-4.3855,-4.395,-4.4706,-4.5091,-4.5246,-4.5352,-4.54,-4.54,-4.54,-4.54,-4.54,-4.54,-4.54,-4.539,-4.5409,-4.5399,-4.5389,-4.5338,-4.5309,-4.5309,-4.5309,-4.5361,-4.54,-4.54,-4.54,-4.54,-4.54,-4.54,-4.54,-4.54,-4.54,-4.54,-4.54,-4.541,-4.5419,-4.5419,-4.5419,-4.541,-4.541,-4.6032,-4.6805,-4.7676,-4.8485,-4.9293,-5.0115,-5.0268,-5.0325,-5.0325,-5.0325,-5.0325,-5.0325,-5.0267,-5.0243,-5.0243,-5.0182,-5.0175,-5.0243,-5.017,-5.0145,-5.0145,-5.012,-5.012,-5.012,-5.0108,-5.0095,-5.0095,-5.0095,-5.007,-5.0018,-4.9952,-4.9939,-4.9939,-5.4884,-5.4927,-5.4931,-5.486,-5.4542,-5.4265,-5.4188,-5.3867,-5.3455,-5.2937,-5.2541,-5.1941,-5.0998,-5.0138,-4.9638,-4.9578,-4.9578,-4.9578,-4.9578,-4.9265,-4.8691,-4.7862,-4.7103,-4.6312,-4.55,-4.5016,-4.4827,-4.487,-4.4979,-4.5049,-4.5103,-4.5103,-4.5103,-4.5103,-4.5103,-4.5103,-4.5103,-4.5103,-4.5103,-4.5065,-4.4706,-4.4565,-4.4565,-4.4598,-4.4609,-4.4666,-4.5047,-4.5224,-4.5297,-4.5279,-4.531,-4.5341,-4.5341,-4.5341,-4.5341,-4.5341,-4.5341,-4.533,-4.5348,-4.5317,-4.5286,-4.5246,-4.5213,-4.5181,-4.5181,-4.5205,-4.5239,-4.532,-4.5341,-4.5341,-4.5341,-4.5341,-4.5341,-4.5341,-4.5341,-4.5341,-4.5341,-4.538,-4.54,-4.54,-4.54,-4.539,-4.536,-4.6075,-4.6915,-4.7775,-4.8613,-4.9431,-5.0197,-5.0236,-5.0231,-5.0194,-5.0194,-5.0194,-5.0194,-5.017,-5.0126,-5.0126,-5.0082,-5.0082,-5.0126,-5.012,-5.0095,-5.0095,-5.0057,-5.0031,-4.9992,-4.9952,-4.9912,-4.9871,-4.9871,-4.9857,-4.983,-4.9788,-4.9788,-4.9788]},{"header":{"parameterUnit":"m.s-1","parameterCategory":1,"la1":30.6,"la2":28.766,"lo1":-90.7593,"lo2":-88.6598,"dy":0.0162,"dx":0.0183,"nx":116,"ny":114,"refTime":"2023-07-16T00:00:00:Z","depth":0,"parameterNumber":3,"parameterNumberName":"V-component_of_WINDS"},"data":[0.0,0.0,0.0,0.0,0.0,0.0,0.0,0.0,0.0,0.0,0.0,0.0,0.0,0.0,0.0,0.0,0.0,0.0,0.0,0.0,0.0,0.0,0.0,0.0,0.0,0.0,0.0,0.0,0.0,0.0,0.0,0.0,0.0,0.0,0.0,0.0,0.0,0.0,0.0,0.0,0.0,0.0,0.0,0.0,0.0,0.0,0.0,0.0,0.0,0.0,0.0,0.0,0.0,0.0,0.0,0.0,0.0,0.0,0.0,0.0,0.0,0.0,0.0,0.0,0.0,0.0,0.0,0.0,0.0,0.0,0.0,0.0,0.0,0.0,0.0,0.0,0.0,0.0,0.0,0.0,0.0,0.0,0.0,0.0,0.0,0.0,0.0,0.0,0.0,0.0,0.0,0.0,0.0,0.0,0.0,0.0,0.0,0.0,0.0,0.0,0.0,0.0,0.0,0.0,0.0,0.0,0.0,0.0,0.0,0.0,0.0,0.0,0.0,0.0,0.0,0.0,0.0,0.0,0.0,0.0,0.0,0.0,0.0,0.0,0.0,0.0,0.0,0.0,0.0,0.0,0.0,0.0,0.0,0.0,0.0,0.0,0.0,0.0,0.0,0.0,0.0,0.0,0.0,0.0,0.0,0.0,0.0,0.0,0.0,0.0,0.0,0.0,0.0,0.0,0.0,0.0,0.0,0.0,0.0,0.0,0.0,0.0,0.0,0.0,0.0,0.0,0.0,0.0,0.0,0.0,0.0,0.0,0.0,0.0,0.0,0.0,0.0,0.0,0.0,0.0,0.0,0.0,0.0,0.0,0.0,0.0,0.0,0.0,0.0,0.0,0.0,0.0,0.0,0.0,0.0,0.0,0.0,0.0,0.0,0.0,0.0,0.0,0.0,0.0,0.0,0.0,0.0,0.0,0.0,0.0,0.0,0.0,0.0,0.0,0.0,0.0,0.0,0.0,0.0,0.0,0.0,0.0,0.0,0.0,0.0,0.0,0.0,0.0,0.0,0.0,0.0,0.0,0.0,0.0,0.0,0.0,0.0,0.0,0.0,0.0,0.0,0.0,0.0,0.0,0.0,0.0,0.0,0.0,0.0,0.0,0.0,0.0,0.0,0.0,0.0,0.0,0.0,0.0,0.0,0.0,0.0,0.0,0.0,0.0,0.0,0.0,0.0,0.0,0.0,0.0,0.0,0.0,0.0,0.0,0.0,0.0,0.0,0.0,0.0,0.0,0.0,0.0,0.0,0.0,0.0,0.0,0.0,0.0,0.0,0.0,0.0,0.0,0.0,0.0,0.0,0.0,0.0,0.0,0.0,0.0,0.0,0.0,0.0,0.0,0.0,0.0,0.0,0.0,0.0,0.0,0.0,0.0,0.0,0.0,0.0,0.0,0.0,0.0,0.0,0.0,0.0,0.0,0.0,0.0,0.0,0.0,0.0,0.0,0.0,0.0,0.0,0.0,0.0,0.0,0.0,0.0,0.0,0.0,0.0,0.0,0.0,0.0,0.0,0.0,0.0,0.0,0.0,0.0,0.0,0.0,0.0,0.0,0.0,0.0,0.0,0.0,0.0,0.0,0.0,0.0,0.0,0.0,0.0,0.0,0.0,0.0,0.0,0.0,0.0,0.0,0.0,0.0,0.0,0.0,0.0,0.0,0.0,0.0,0.0,0.0,0.0,0.0,0.0,0.0,0.0,0.0,0.0,0.0,0.0,0.0,0.0,0.0,0.0,0.0,0.0,0.0,0.0,0.0,0.0,0.0,0.0,0.0,0.0,0.0,0.0,0.0,0.0,0.0,0.0,0.0,0.0,0.0,0.0,0.0,0.0,0.0,0.0,0.0,0.0,0.0,0.0,0.0,0.0,0.0,0.0,0.0,0.0,0.0,0.0,0.0,0.0,0.0,0.0,0.0,0.0,0.0,0.0,0.0,0.0,0.0,0.0,0.0,0.0,0.0,0.0,0.0,0.0,0.0,0.0,0.0,0.0,0.0,0.0,0.0,0.0,0.0,0.0,0.0,0.0,0.0,0.0,0.0,0.0,0.0,0.0,0.0,0.0,0.0,0.0,0.0,0.0,0.0,0.0,0.0,0.0,0.0,0.0,0.0,0.0,0.0,0.0,0.0,0.0,0.0,0.0,0.0,0.0,0.0,0.0,0.0,0.0,0.0,0.0,0.0,0.0,0.0,0.0,0.0,0.0,0.0,0.0,0.0,0.0,0.0,0.0,0.0,0.0,0.0,0.0,0.0,0.0,0.0,0.0,0.0,0.0,0.0,0.0,0.0,0.0,0.0,0.0,0.0,0.0,0.0,0.0,0.0,0.0,0.0,0.0,0.0,0.0,0.0,0.0,0.0,0.0,0.0,0.0,0.0,0.0,0.0,0.0,0.0,0.0,0.0,0.0,0.0,0.0,0.0,0.0,0.0,0.0,0.0,0.0,0.0,0.0,0.0,0.0,0.0,0.0,0.0,0.0,0.0,0.0,0.0,0.0,0.0,0.0,0.0,0.0,0.0,0.0,0.0,0.0,0.0,0.0,0.0,0.0,0.0,0.0,0.0,0.0,0.0,0.0,0.0,0.0,0.0,0.0,0.0,0.0,0.0,0.0,0.0,0.0,0.0,0.0,0.0,0.0,0.0,0.0,0.0,0.0,0.0,0.0,0.0,0.0,0.0,0.0,0.0,0.0,0.0,0.0,0.0,0.0,0.0,0.0,0.0,0.0,0.0,0.0,0.0,0.0,0.0,0.0,0.0,0.0,0.0,0.0,0.0,0.0,0.0,0.0,0.0,0.0,0.0,0.0,0.0,0.0,0.0,0.0,0.0,0.0,0.0,0.0,0.0,0.0,0.0,0.0,0.0,0.0,0.0,0.0,0.0,0.0,0.0,0.0,0.0,0.0,0.0,0.0,0.0,0.0,0.0,0.0,0.0,0.0,0.0,0.0,0.0,0.0,0.0,0.0,0.0,0.0,0.0,0.0,0.0,0.0,0.0,0.0,0.0,0.0,0.0,0.0,0.0,0.0,0.0,0.0,0.0,0.0,0.0,0.0,0.0,0.0,0.0,0.0,0.0,0.0,0.0,0.0,0.0,0.0,0.0,0.0,0.0,0.0,0.0,0.0,0.0,0.0,0.0,0.0,0.0,0.0,0.0,0.0,0.0,0.0,0.0,0.0,0.0,0.0,0.0,0.0,0.0,0.0,0.0,0.0,0.0,0.0,0.0,0.0,0.0,0.0,0.0,0.0,0.0,0.0,0.0,0.0,0.0,0.0,0.0,0.0,0.0,0.0,0.0,0.0,0.0,0.0,0.0,0.0,0.0,0.0,0.0,0.0,0.0,0.0,0.0,0.0,0.0,0.0,0.0,0.0,0.0,0.0,0.0,0.0,0.0,0.0,0.0,0.0,0.0,0.0,0.0,0.0,0.0,0.0,0.0,0.0,0.0,0.0,0.0,0.0,0.0,0.0,0.0,0.0,0.0,0.0,0.0,0.0,0.0,0.0,0.0,0.0,0.0,0.0,0.0,0.0,0.0,0.0,0.0,0.0,0.0,0.0,0.0,0.0,0.0,0.0,0.0,0.0,0.0,0.0,0.0,0.0,0.0,0.0,0.0,0.0,0.0,0.0,0.0,0.0,0.0,0.0,0.0,0.0,0.0,0.0,0.0,0.0,0.0,0.0,0.0,0.0,0.0,0.0,0.0,0.0,0.0,0.0,0.0,0.0,0.0,0.0,0.0,0.0,0.0,0.0,0.0,0.0,0.0,0.0,0.0,0.0,0.0,0.0,0.0,0.0,0.0,0.0,0.0,0.0,0.0,0.0,0.0,0.0,0.0,0.0,0.0,0.0,0.0,0.0,0.0,0.0,0.0,0.0,0.0,0.0,0.0,0.0,0.0,0.0,0.0,0.0,0.0,0.0,0.0,0.0,0.0,0.0,0.0,0.0,0.0,0.0,0.0,0.0,0.0,0.0,0.0,0.0,0.0,0.0,0.0,0.0,0.0,0.0,0.0,0.0,0.0,0.0,0.0,0.0,0.0,0.0,0.0,0.0,0.0,0.0,0.0,0.0,0.0,0.0,0.0,0.0,0.0,0.0,0.0,0.0,0.0,0.0,0.0,0.0,0.0,0.0,0.0,0.0,0.0,0.0,0.0,0.0,0.0,0.0,0.0,0.0,0.0,0.0,0.0,0.0,0.0,0.0,0.0,0.0,0.0,0.0,0.0,0.0,0.0,0.0,0.0,0.0,0.0,0.0,0.0,0.0,0.0,0.0,0.0,0.0,0.0,0.0,0.0,0.0,0.0,0.0,0.0,0.0,0.0,0.0,0.0,0.0,0.0,0.0,0.0,0.0,0.0,0.0,0.0,0.0,0.0,0.0,0.0,0.0,0.0,0.0,0.0,0.0,0.0,0.0,0.0,0.0,0.0,0.0,0.0,0.0,0.0,0.0,0.0,0.0,0.0,0.0,0.0,0.0,0.0,0.0,0.0,0.0,0.0,0.0,0.0,0.0,0.0,0.0,0.0,0.0,0.0,0.0,0.0,0.0,0.0,0.0,0.0,0.0,0.0,0.0,0.0,0.0,0.0,0.0,0.0,0.0,0.0,0.0,0.0,0.0,0.0,0.0,0.0,0.0,0.0,0.0,0.0,0.0,0.0,0.0,0.0,0.0,0.0,0.0,0.0,0.0,0.0,0.0,0.0,0.0,0.0,0.0,0.0,0.0,0.0,0.0,0.0,0.0,0.0,0.0,0.0,0.0,0.0,0.0,0.0,0.0,0.0,0.0,0.0,0.0,0.0,0.0,0.0,0.0,0.0,0.0,0.0,0.0,0.0,0.0,0.0,0.0,0.0,0.0,0.0,0.0,0.0,0.0,0.0,0.0,0.0,0.0,0.0,0.0,0.0,0.0,0.0,0.0,0.0,0.0,0.0,0.0,0.0,0.0,0.0,0.0,0.0,0.0,0.0,0.0,0.0,0.0,0.0,0.0,0.0,0.0,0.0,0.0,0.0,0.0,0.0,0.0,0.0,0.0,0.0,0.0,0.0,0.0,0.0,0.0,0.0,0.0,0.0,0.0,0.0,0.0,0.0,0.0,0.0,0.0,0.0,0.0,0.0,0.0,0.0,0.0,0.0,0.0,0.0,0.0,0.0,0.0,0.0,0.0,0.0,0.0,0.0,0.0,0.0,0.0,0.0,0.0,0.0,0.0,0.0,0.0,0.0,0.0,0.0,0.0,0.0,0.0,0.0,0.0,0.0,0.0,0.0,0.0,0.0,0.0,0.0,0.0,0.0,0.0,0.0,0.0,0.0,0.0,0.0,0.0,0.0,0.0,0.0,0.0,0.0,0.0,0.0,0.0,0.0,0.0,0.0,0.0,0.0,0.0,0.0,0.0,0.0,0.0,0.0,0.0,0.0,0.0,0.0,0.0,0.0,0.0,0.0,0.0,0.0,0.0,0.0,0.0,0.0,0.0,0.0,0.0,0.0,0.0,0.0,0.0,0.0,0.0,0.0,0.0,0.0,0.0,0.0,0.0,0.0,0.0,0.0,0.0,0.0,0.0,0.0,0.0,0.0,0.0,0.0,0.0,0.0,0.0,0.0,0.0,0.0,0.0,0.0,0.0,0.0,0.0,0.0,0.0,0.0,0.0,0.0,0.0,0.0,0.0,0.0,0.0,0.0,0.0,0.0,0.0,0.0,0.0,0.0,0.0,0.0,0.0,0.0,0.0,0.0,0.0,0.0,0.0,0.0,0.0,0.0,0.0,0.0,0.0,0.0,0.0,0.0,0.0,0.0,0.0,0.0,0.0,0.0,0.0,0.0,0.0,0.0,0.0,0.0,0.0,0.0,0.0,0.0,0.0,0.0,0.0,0.0,0.0,0.0,0.0,0.0,0.0,0.0,0.0,0.0,0.0,0.0,0.0,0.0,0.0,0.0,0.0,0.0,0.0,0.0,0.0,0.0,0.0,0.0,0.0,0.0,0.0,0.0,0.0,0.0,0.0,0.0,0.0,0.0,0.0,0.0,0.0,0.0,0.0,0.0,0.0,0.0,0.0,0.0,0.0,0.0,0.0,0.0,0.0,0.0,0.0,0.0,-1.6465,0.0,0.0,0.0,0.0,0.0,0.0,0.0,0.0,0.0,0.0,0.0,0.0,0.0,0.0,0.0,0.0,0.0,0.0,0.0,0.0,0.0,0.0,0.0,0.0,0.0,0.0,0.0,0.0,0.0,0.0,0.0,0.0,0.0,0.0,0.0,0.0,0.0,0.0,0.0,-1.3006,-1.3663,-1.4096,-1.3805,-1.315,-1.223,0.0,0.0,0.0,0.0,0.0,0.0,0.0,0.0,0.0,0.0,0.0,0.0,0.0,0.0,0.0,0.0,0.0,0.0,0.0,0.0,0.0,0.0,0.0,0.0,0.0,0.0,0.0,0.0,0.0,0.0,0.0,0.0,0.0,0.0,0.0,0.0,0.0,0.0,0.0,0.0,0.0,0.0,0.0,0.0,0.0,0.0,0.0,0.0,0.0,0.0,0.0,0.0,0.0,0.0,0.0,0.0,0.0,0.0,0.0,0.0,0.0,0.0,0.0,0.0,0.0,0.0,0.0,0.0,0.0,0.0,0.0,-1.7444,0.0,0.0,0.0,0.0,0.0,0.0,0.0,0.0,0.0,0.0,0.0,0.0,0.0,0.0,0.0,0.0,0.0,0.0,0.0,0.0,0.0,0.0,0.0,0.0,0.0,0.0,0.0,0.0,0.0,0.0,0.0,0.0,0.0,0.0,0.0,0.0,0.0,0.0,-1.3993,-1.4997,-1.594,-1.6009,-1.5231,-1.3779,-1.3818,0.0,0.0,0.0,0.0,0.0,0.0,0.0,0.0,0.0,0.0,0.0,0.0,0.0,0.0,0.0,0.0,0.0,0.0,0.0,0.0,0.0,0.0,0.0,0.0,0.0,0.0,0.0,0.0,0.0,0.0,0.0,0.0,0.0,0.0,0.0,0.0,0.0,0.0,0.0,0.0,0.0,0.0,0.0,0.0,0.0,0.0,0.0,0.0,0.0,0.0,0.0,0.0,0.0,0.0,0.0,0.0,0.0,0.0,0.0,0.0,0.0,0.0,0.0,-2.1596,-2.226,-2.2978,-2.3066,-2.3244,-2.3372,-2.1151,-1.9941,-1.9546,0.0,0.0,0.0,0.0,0.0,0.0,0.0,0.0,0.0,0.0,0.0,0.0,0.0,0.0,0.0,0.0,0.0,0.0,0.0,0.0,0.0,0.0,0.0,0.0,0.0,0.0,0.0,0.0,0.0,0.0,0.0,0.0,0.0,0.0,-1.2906,-1.3443,-1.3841,-1.563,-1.6802,-1.7325,-1.7589,-1.7549,-1.7275,-1.5811,-1.5127,-1.5049,0.0,0.0,0.0,0.0,0.0,0.0,0.0,0.0,0.0,0.0,0.0,0.0,0.0,0.0,0.0,0.0,0.0,0.0,0.0,0.0,0.0,0.0,0.0,0.0,0.0,0.0,0.0,0.0,0.0,0.0,0.0,0.0,0.0,0.0,0.0,0.0,0.0,0.0,0.0,0.0,0.0,-1.2202,-1.3281,0.0,0.0,0.0,0.0,0.0,0.0,0.0,0.0,0.0,0.0,0.0,0.0,0.0,-2.0238,-2.1169,-2.1693,-2.2415,-2.3301,-2.3804,-2.4368,-2.4843,-2.527,-2.55,-2.5469,-2.4712,0.0,-2.145,-2.1384,0.0,0.0,0.0,0.0,0.0,0.0,0.0,0.0,0.0,0.0,0.0,0.0,0.0,0.0,0.0,0.0,0.0,0.0,0.0,0.0,0.0,0.0,0.0,0.0,0.0,0.0,0.0,0.0,0.0,0.0,0.0,0.0,0.0,-1.3981,-1.5029,-1.6018,-1.7024,-1.8002,-1.8895,-1.903,-1.9136,-1.9174,-1.8189,-1.7247,-1.6319,-1.571,0.0,0.0,0.0,0.0,0.0,0.0,0.0,0.0,0.0,0.0,0.0,0.0,0.0,0.0,0.0,0.0,0.0,0.0,0.0,0.0,0.0,0.0,0.0,0.0,0.0,0.0,0.0,0.0,0.0,0.0,0.0,0.0,0.0,0.0,0.0,0.0,0.0,0.0,0.0,-1.2274,-1.3716,-1.4753,-1.5301,-1.5694,0.0,0.0,0.0,0.0,0.0,0.0,0.0,0.0,0.0,-2.1396,-2.2182,-2.2914,-2.364,-2.4082,-2.4683,-2.5319,-2.559,-2.5928,-2.6387,-2.6594,-2.6693,-2.6682,-2.6463,-2.5664,-2.4401,-2.3306,-2.2262,-2.1285,0.0,0.0,0.0,0.0,-1.9287,-1.9287,0.0,0.0,0.0,0.0,0.0,0.0,0.0,0.0,0.0,0.0,0.0,0.0,0.0,0.0,0.0,-1.5277,0.0,0.0,0.0,0.0,0.0,0.0,0.0,0.0,0.0,-1.5252,-1.6527,-1.7714,-1.837,-1.9114,-1.9964,-2.0197,-2.0352,-2.0443,-2.0089,-1.9077,-1.7604,-1.6845,-1.601,-1.5116,0.0,0.0,0.0,0.0,0.0,0.0,0.0,0.0,0.0,0.0,0.0,0.0,0.0,0.0,0.0,0.0,0.0,0.0,0.0,0.0,0.0,0.0,0.0,0.0,0.0,0.0,0.0,0.0,0.0,0.0,0.0,0.0,0.0,0.0,0.0,0.0,0.0,-1.3837,-1.5135,-1.6331,-1.6901,-1.7407,0.0,0.0,0.0,0.0,0.0,0.0,-2.1187,-2.1942,-2.2761,-2.3711,-2.4585,-2.5196,-2.5546,-2.6147,-2.6693,-2.7173,-2.7173,-2.7413,-2.7861,-2.7741,-2.7687,-2.7676,-2.7555,-2.726,-2.6813,-2.4992,-2.3826,-2.3117,-2.2526,-2.2145,-2.1874,-2.1374,-2.123,-2.123,0.0,0.0,0.0,0.0,0.0,0.0,0.0,0.0,0.0,0.0,0.0,0.0,0.0,0.0,-1.5784,-1.6299,-1.7098,-1.7192,0.0,0.0,0.0,0.0,0.0,0.0,0.0,0.0,-1.7655,-1.7978,-1.9666,-2.0391,-2.0187,-2.1012,-2.1333,-2.1154,-2.0847,-2.0136,-1.9118,-1.8124,-1.7241,-1.6402,-1.5425,0.0,0.0,0.0,0.0,0.0,0.0,0.0,0.0,0.0,0.0,0.0,0.0,0.0,0.0,0.0,0.0,0.0,0.0,0.0,0.0,0.0,0.0,0.0,0.0,0.0,0.0,0.0,0.0,0.0,0.0,0.0,0.0,0.0,0.0,0.0,0.0,0.0,0.0,-1.8083,-1.8746,0.0,0.0,0.0,0.0,-2.1374,-2.1887,-2.2783,-2.4192,-2.4323,-2.4781,-2.5721,-2.6256,-2.6497,-2.6519,-2.7424,-2.8178,-2.8694,-2.8694,-2.8957,-2.9358,-2.8935,-2.8727,-2.8705,-2.82,-2.7947,-2.7816,-2.6398,-2.5491,-2.4975,-2.3995,-2.3602,-2.3525,-2.3034,-2.2896,-2.2896,0.0,0.0,0.0,0.0,0.0,0.0,0.0,0.0,0.0,0.0,0.0,0.0,0.0,-1.5484,-1.6436,-1.7181,-1.7513,-1.7564,-1.7274,0.0,0.0,0.0,0.0,0.0,0.0,0.0,-1.8364,-1.9425,-2.0024,-2.0628,-2.1246,-2.155,-2.1707,-2.1736,-2.1413,-2.0955,-2.0388,-1.9236,-1.8238,-1.7314,-1.6433,-1.5422,0.0,0.0,0.0,0.0,0.0,0.0,0.0,0.0,0.0,0.0,0.0,0.0,0.0,0.0,0.0,0.0,0.0,0.0,0.0,0.0,0.0,0.0,0.0,0.0,0.0,0.0,0.0,0.0,0.0,0.0,0.0,0.0,0.0,0.0,0.0,0.0,0.0,-1.9393,-2.0011,0.0,0.0,-2.2375,-2.3015,-2.3199,-2.4092,-2.4989,-2.5819,-2.6147,-2.6747,-2.7753,-2.8211,-2.8615,-2.8932,-2.927,-2.9521,-2.9696,-2.9696,-2.9784,-2.9936,-2.9445,-2.9274,-2.9194,-2.8713,-2.8495,-2.844,-2.761,-2.6988,-2.6485,-2.5799,-2.5559,-2.5461,-2.4694,-2.4439,-2.4395,0.0,0.0,0.0,0.0,0.0,0.0,0.0,0.0,0.0,0.0,0.0,-1.3493,-1.5059,-1.6053,-1.6964,-1.7874,-1.8092,-1.8123,-1.7957,0.0,0.0,0.0,-1.7499,0.0,0.0,-1.8529,-1.924,-2.0206,-2.0558,-2.1043,-2.1654,-2.1847,-2.1923,-2.1954,-2.1632,-2.1372,-2.1133,-2.0111,-1.9087,-1.8145,-1.7368,-1.6447,-1.5415,0.0,0.0,0.0,0.0,0.0,0.0,0.0,0.0,0.0,0.0,0.0,0.0,0.0,0.0,0.0,0.0,0.0,0.0,0.0,0.0,0.0,0.0,0.0,0.0,0.0,0.0,0.0,0.0,0.0,0.0,0.0,0.0,0.0,0.0,0.0,-1.8837,-2.0677,-2.1428,-2.2114,-2.2946,-2.4057,-2.4748,-2.4909,-2.5829,-2.6649,-2.7254,-2.7623,-2.8142,-2.8979,-2.9315,-2.964,-2.9905,-3.0078,-3.0203,-3.0302,-3.0302,-3.0351,-3.0428,-2.9947,-2.9642,-2.9467,-2.9186,-2.8957,-2.8781,-2.8418,-2.8091,-2.7741,-2.7108,-2.6824,-2.678,-2.6136,-2.5895,-2.5852,0.0,0.0,0.0,0.0,0.0,0.0,0.0,0.0,0.0,0.0,-1.2088,-1.3628,-1.5504,-1.649,-1.7399,-1.8351,-1.8839,-1.8911,-1.8433,-1.8209,0.0,0.0,0.0,0.0,-1.8052,-1.9483,-2.0225,-2.0224,-2.1281,-2.1682,-2.1441,-2.1894,-2.2,-2.1733,-2.1509,-2.1419,-2.1347,-2.0704,-1.9867,-1.898,-1.8305,-1.734,-1.6254,0.0,0.0,0.0,0.0,0.0,0.0,0.0,0.0,0.0,0.0,0.0,0.0,0.0,0.0,0.0,0.0,0.0,0.0,0.0,0.0,0.0,0.0,0.0,0.0,0.0,0.0,0.0,0.0,0.0,0.0,0.0,0.0,0.0,-1.7647,-1.8951,-2.0423,-2.1968,-2.2982,-2.3819,-2.4469,-2.5391,-2.6114,-2.6515,-2.7059,-2.7749,-2.8673,-2.8737,-2.8938,-2.9423,-2.9455,-2.9455,-2.9455,-2.9913,-3.0237,-3.0529,-3.0529,-3.0629,-3.0898,-3.0439,-2.998,-2.9521,-2.95,-2.9263,-2.8825,-2.8814,-2.8803,-2.8705,-2.7719,-2.7359,-2.7348,-2.7337,-2.7326,-2.7315,0.0,0.0,0.0,0.0,0.0,0.0,0.0,0.0,0.0,0.0,-1.2357,-1.4128,-1.5991,-1.6995,-1.7905,-1.8839,-1.8903,-1.8824,-1.8701,0.0,0.0,0.0,0.0,0.0,-1.9581,-2.0005,-2.0497,-2.1053,-2.1699,-2.2033,-2.2052,-2.2465,-2.2528,-2.2277,-2.1988,-2.1724,-2.1514,-2.0888,-2.0289,-1.9701,-1.8702,-1.8005,-1.742,0.0,0.0,0.0,0.0,0.0,0.0,0.0,0.0,0.0,0.0,0.0,0.0,0.0,0.0,0.0,0.0,0.0,0.0,0.0,0.0,0.0,0.0,0.0,0.0,0.0,0.0,0.0,0.0,0.0,0.0,0.0,0.0,-1.8465,-1.8504,-1.9778,-2.142,-2.3182,-2.3898,-2.4563,-2.543,-2.6519,-2.7163,-2.7279,-2.8227,-2.8955,-2.921,-2.9512,-2.9756,-2.9923,-3.0264,-3.0393,-3.0393,-3.0521,-3.0636,-3.0739,-3.0739,-3.0739,-3.082,-3.054,-3.0348,-3.0186,-2.9687,-2.9449,-2.9259,-2.8946,-2.8803,-2.8771,-2.8508,-2.8399,-2.8355,-2.7971,-2.7576,-2.7315,0.0,0.0,0.0,0.0,0.0,0.0,0.0,0.0,0.0,0.0,-1.2305,-1.4035,-1.5887,-1.6667,-1.7472,-1.8584,-1.8522,-1.8504,-1.8664,0.0,0.0,0.0,0.0,-1.9859,-2.0187,-2.0533,-2.0921,-2.1395,-2.1926,-2.2189,-2.2144,-2.2525,-2.2573,-2.2319,-2.187,-2.16,-2.1388,-2.0683,-2.0217,-1.9942,-1.9033,-1.8336,-1.7794,-1.7071,-1.6497,-1.6073,-1.5565,-1.5266,-1.5083,-1.4603,0.0,0.0,0.0,0.0,0.0,0.0,0.0,0.0,0.0,0.0,0.0,0.0,0.0,0.0,0.0,0.0,0.0,0.0,0.0,0.0,0.0,0.0,0.0,0.0,-1.8844,-1.9773,-2.042,-2.1423,-2.258,-2.3876,-2.4848,-2.5668,-2.6428,-2.7259,-2.789,-2.8275,-2.8956,-2.9444,-2.9634,-3.0096,-3.0348,-3.0348,-3.0811,-3.1053,-3.1053,-3.1053,-3.1,-3.0905,-3.0905,-3.0862,-3.0827,-3.0694,-3.0509,0.0,-2.9936,-2.9629,-2.9402,-2.8964,-2.8769,0.0,0.0,0.0,0.0,0.0,-2.8156,-2.7916,0.0,0.0,0.0,0.0,0.0,0.0,0.0,0.0,0.0,0.0,0.0,-1.3566,-1.5339,-1.5871,-1.6584,-1.7837,-1.7861,-1.7953,0.0,0.0,0.0,-1.864,-1.9677,-2.0302,-2.0262,-2.1011,-2.1414,-2.1417,-2.2052,-2.2208,-2.1986,-2.2398,-2.2461,-2.2157,-2.1538,-2.1252,-2.1133,-2.0288,-1.9891,-1.9812,-1.9253,-1.8559,-1.7794,-1.7474,-1.7092,-1.6636,-1.6238,-1.6181,-1.622,-1.5591,0.0,0.0,0.0,0.0,0.0,0.0,0.0,0.0,0.0,0.0,0.0,0.0,0.0,0.0,0.0,0.0,0.0,0.0,0.0,0.0,0.0,0.0,0.0,0.0,-2.0084,-2.1105,-2.278,-2.3428,-2.3896,-2.4336,-2.5704,-2.678,-2.7293,-2.7741,-2.8371,-2.9239,-2.9352,-2.9591,-3.0046,0.0,0.0,0.0,0.0,-3.1381,-3.1381,-3.1381,-3.1327,-3.1125,-3.1062,-3.0937,-3.0809,-3.0756,-3.0553,-3.0149,-3.0096,-2.9881,-2.9455,-2.8976,-2.8753,-2.8705,-2.8755,-2.8757,-2.8757,-2.8757,-2.8757,-2.871,0.0,0.0,0.0,0.0,0.0,0.0,0.0,0.0,0.0,-1.0262,-1.184,-1.3294,-1.4297,-1.541,-1.63,-1.684,-1.7069,-1.7288,0.0,0.0,-1.9124,-1.8916,-2.011,-2.0735,-2.0679,-2.1131,-2.1466,-2.1621,-2.2198,-2.2447,-2.2418,-2.2943,-2.3076,-2.2801,-2.2044,-2.1453,-2.1086,-2.026,-1.9799,-1.9617,-1.9306,-1.9015,-1.8682,-1.801,-1.7516,-1.7119,-1.6756,-1.6588,-1.6501,-1.6366,-1.6218,-1.6031,-1.5626,0.0,0.0,0.0,0.0,0.0,0.0,0.0,0.0,0.0,0.0,0.0,0.0,0.0,0.0,0.0,0.0,0.0,0.0,0.0,0.0,-2.0872,-2.1887,-2.2797,-2.3536,-2.4459,-2.5211,-2.5486,-2.6088,-2.6777,-2.7467,-2.8266,-2.887,-2.929,-2.9653,-3.0067,-3.0532,-3.0636,0.0,-3.1236,-3.1329,-3.1381,-3.1381,-3.1381,-3.1384,-3.1345,0.0,0.0,-3.0692,-3.058,-3.0453,-3.0348,-3.0183,-3.0072,-2.9944,-2.9476,-2.9051,-2.8705,-2.8531,-2.8488,-2.8488,-2.8488,-2.8337,-2.8128,0.0,0.0,0.0,0.0,0.0,0.0,0.0,0.0,0.0,0.0,-1.1306,-1.2546,-1.3596,-1.4251,-1.4928,-1.5727,-1.6435,0.0,0.0,-1.8514,-1.9114,-1.9004,-2.0191,-2.0808,-2.0796,-2.129,-2.1539,-2.1571,-2.2033,-2.2234,-2.2147,-2.2642,-2.2763,-2.2501,-2.1804,-2.123,-2.0852,-1.9923,-1.9471,-1.9387,-1.9104,-1.8803,-1.8434,-1.8027,-1.7675,-1.74,-1.7073,-1.6956,-1.6971,-1.6779,-1.6758,-1.6745,-1.6326,-1.5804,-1.5265,0.0,0.0,0.0,0.0,0.0,0.0,0.0,0.0,0.0,0.0,0.0,0.0,0.0,0.0,-1.8071,0.0,0.0,-2.0752,-2.205,-2.2832,-2.3467,-2.4171,-2.4851,-2.5409,-2.5597,-2.632,-2.7048,-2.7641,-2.8299,-2.8837,-2.9155,-2.9646,-3.0003,-3.0227,-3.0666,-3.1068,-3.147,-3.1752,-3.1932,-3.2054,-3.2054,-3.194,-3.1712,-3.1474,-3.1122,-3.0677,-3.0598,-3.0412,-3.0183,-3.0108,-3.0066,-3.0024,-2.9551,-2.9139,-2.8855,-2.872,-2.8482,-2.8196,-2.8196,-2.8139,-2.7998,0.0,0.0,0.0,0.0,0.0,0.0,0.0,0.0,0.0,0.0,-1.0658,-1.1653,-1.2748,-1.2932,-1.3432,0.0,0.0,0.0,0.0,-1.8199,-1.8881,-1.8931,-2.0057,-2.0722,-2.0755,-2.128,-2.1489,-2.1392,-2.1688,-2.1806,-2.1691,-2.1995,-2.2038,-2.1887,-2.1183,-2.0745,-2.0464,-1.9518,-1.9096,-1.905,-1.8702,-1.8284,-1.7913,-1.7667,-1.7544,-1.7417,-1.7146,-1.7098,-1.7162,-1.6858,-1.6876,-1.6955,-1.6577,-1.6167,-1.5847,-1.5658,-1.5068,0.0,0.0,0.0,0.0,0.0,0.0,0.0,0.0,0.0,-1.8174,-1.8484,-1.9097,-1.9842,-2.0922,-2.1254,-2.181,-2.2968,-2.3385,-2.3846,-2.4632,-2.4919,-2.5148,-2.5348,-2.6328,-2.7172,-2.7663,-2.8165,-2.8607,-2.9049,-2.9544,-2.9836,-2.9926,-3.0691,-3.1277,-3.164,-3.2007,-3.2315,-3.2612,-3.2612,-3.2483,-3.2112,-3.2029,-3.1661,-3.0946,-3.077,-3.0481,-3.0129,-3.0036,-2.9994,-2.9963,-2.9591,-2.9278,-2.9063,-2.9063,-2.8687,-2.8111,-2.8073,-2.7988,-2.7867,0.0,0.0,0.0,0.0,0.0,0.0,0.0,0.0,0.0,0.0,0.0,0.0,0.0,0.0,0.0,0.0,0.0,0.0,-1.6212,-1.7581,-1.8466,-1.8711,-1.9715,-2.0361,-2.0554,-2.0789,-2.1066,-2.1392,-2.1322,-2.1302,-2.1252,-2.1263,-2.1227,-2.1195,-2.0489,-2.0079,-1.9874,-1.9134,-1.8743,-1.8542,-1.7941,-1.7704,-1.7559,-1.6975,-1.6835,-1.6954,-1.6816,-1.6701,-1.6588,-1.6547,-1.6468,-1.6362,-1.6013,-1.5966,-1.592,-1.5229,0.0,-1.5051,-1.4872,-1.5167,-1.5689,-1.6413,-1.7062,-1.7677,0.0,0.0,-2.0191,-2.0204,-2.0869,-2.1548,-2.2034,-2.2352,-2.2777,-2.3653,-2.4041,-2.4345,-2.4799,-2.4914,-2.4914,-2.4963,-2.5887,-2.6743,-2.74,-2.7847,-2.8388,-2.9039,-2.9544,-2.9977,-3.0379,-3.0852,-3.1305,-3.1754,-3.1815,-3.2018,-3.2373,-3.2373,-3.2467,-3.2597,-3.2184,-3.1926,-3.1802,-3.105,-3.0657,-3.0584,-3.017,-2.9994,-2.9994,-2.9942,-2.9642,-2.9279,-2.9279,-2.8968,-2.851,-2.8359,-2.7892,-2.7409,0.0,0.0,0.0,0.0,0.0,0.0,0.0,0.0,0.0,0.0,0.0,0.0,0.0,0.0,0.0,0.0,0.0,0.0,-1.5536,-1.6953,-1.7906,-1.8161,-1.9158,-1.9791,-1.9989,-2.054,-2.0738,-2.0642,-2.0806,-2.0865,-2.0802,-2.0776,-2.0685,-2.0604,-2.0138,-1.973,-1.9273,-1.8634,-1.8215,-1.7948,-1.7512,-1.7127,-1.6819,-1.6442,-1.6171,-1.5973,-1.6038,-1.5975,0.0,0.0,-1.5963,-1.6117,-1.597,-1.5902,-1.5933,-1.5897,-1.5793,0.0,-1.6289,-1.667,-1.7156,0.0,-1.8673,-1.9119,-1.97,-2.048,-2.1078,-2.1078,-2.1671,-2.2288,-2.2677,-2.2986,-2.3369,0.0,-2.4287,-2.4489,-2.4658,-2.4784,-2.4883,-2.4883,-2.529,-2.5912,-2.6822,-2.7496,-2.8094,-2.8572,-2.9298,-2.9772,-2.9951,-3.0623,-3.1146,-3.1498,-3.1498,-3.1672,-3.2018,-3.2018,-3.2086,-3.2201,-3.195,-3.1726,-3.1452,-3.1075,-3.0683,-3.0163,-2.9705,-2.9459,-2.9459,-2.9459,-2.9504,-2.9486,-2.9486,-2.926,-2.8959,-2.8603,-2.8312,-2.8069,0.0,0.0,0.0,0.0,0.0,0.0,0.0,0.0,0.0,0.0,0.0,0.0,0.0,0.0,0.0,0.0,0.0,0.0,0.0,-1.6145,-1.7054,-1.7605,-1.8321,-1.8943,-1.9408,-1.991,-2.0057,-1.9931,-2.0121,-2.0121,-2.002,-1.9929,-1.9802,-1.9682,-1.9321,-1.8977,-1.8566,-1.7939,-1.7498,-1.7221,-1.6746,-1.6273,-1.585,-1.5644,-1.5277,-1.4914,-1.5329,-1.5342,0.0,0.0,-1.5407,-1.5554,-1.5592,-1.5601,-1.5655,-1.615,-1.6338,-1.659,-1.741,0.0,0.0,-1.947,-1.9948,-2.0342,-2.1002,-2.1496,-2.1808,-2.1808,-2.2325,-2.2844,-2.3121,-2.342,-2.3706,-2.4057,-2.4291,-2.444,-2.444,-2.4587,-2.4686,-2.4686,-2.4735,-2.5213,-2.626,-2.6985,-2.76,-2.8135,-2.9092,-2.9626,-2.9626,-3.041,-3.0995,-3.116,-3.1218,-3.1334,-3.1672,-3.1672,-3.173,-3.1787,-3.1787,-3.1616,-3.1295,-3.1053,-3.052,-2.9776,-2.9323,-2.9079,-2.9079,-2.9079,-2.9237,-2.9448,-2.9448,-2.936,-2.9188,-2.886,-2.8674,-2.8628,0.0,0.0,0.0,0.0,0.0,0.0,0.0,0.0,0.0,0.0,0.0,0.0,0.0,0.0,0.0,0.0,0.0,0.0,0.0,-1.4999,-1.5904,-1.7164,-1.7259,-1.7821,-1.8993,-1.8678,-1.8813,-1.9512,-1.9067,-1.8868,-1.8842,-1.8452,-1.8287,-1.8259,-1.7763,-1.758,-1.7492,-1.7029,-1.6662,-1.6375,-1.5489,-1.502,-1.4817,-1.4409,-1.4057,-1.3851,-1.478,0.0,0.0,0.0,-1.4702,-1.4457,-1.4601,-1.4772,0.0,-1.541,-1.6307,-1.7299,0.0,0.0,-1.935,-2.0114,-2.0715,-2.1281,-2.1665,-2.225,-2.2677,-2.2677,-2.3036,-2.337,-2.3379,-2.3628,-2.3786,-2.3795,-2.4053,-2.4202,-2.4202,-2.4202,-2.4202,-2.4202,-2.439,-2.4864,0.0,-2.6304,-2.701,-2.7839,-2.8972,-2.9626,-2.9626,-3.041,-3.0889,-3.0889,-3.0889,-3.1054,-3.1325,-3.1325,-3.1498,-3.1787,-3.1787,-3.1777,-3.1737,-3.0882,-3.0238,-2.9776,-2.9323,-2.9079,-2.9079,-2.9079,-2.9132,-2.9132,-2.9132,-2.9122,-2.9112,-2.9102,-2.8859,-2.868,0.0,0.0,0.0,0.0,0.0,0.0,0.0,0.0,0.0,0.0,0.0,0.0,0.0,0.0,0.0,0.0,0.0,0.0,0.0,-1.4203,-1.5176,-1.5767,-1.646,-1.7054,-1.7607,-1.7881,-1.807,-1.8152,-1.8133,-1.8053,-1.7888,-1.7597,-1.7297,-1.7004,-1.6886,-1.6676,-1.6323,-1.5804,-1.5458,-1.513,-1.455,-1.4259,-1.4149,-1.3567,-1.3264,-1.3167,0.0,0.0,0.0,0.0,-1.375,-1.4081,-1.4116,-1.4589,-1.5277,-1.628,-1.7105,-1.7888,-1.8953,0.0,-1.9938,-2.1126,-2.1564,-2.1859,-2.2229,-2.251,-2.2536,-2.2284,-2.2484,-2.264,-2.2377,-2.2566,-2.2759,-2.2759,-2.3041,-2.3318,-2.3514,-2.379,-2.4003,-2.4202,-2.4251,0.0,0.0,0.0,0.0,-2.7527,-2.8475,-2.9,-2.9,-2.9988,-3.0577,-3.0577,-3.0762,-3.0947,-3.1054,-3.1054,-3.1112,-3.117,-3.117,-3.117,-3.1208,-3.0606,-3.0092,-2.9658,-2.9169,-2.8814,-2.8558,-2.8558,-2.8664,-2.8834,-2.8834,-2.893,-2.9079,-2.9079,-2.9046,-2.8969,0.0,0.0,0.0,0.0,0.0,0.0,0.0,0.0,0.0,0.0,0.0,0.0,0.0,0.0,0.0,0.0,0.0,0.0,0.0,0.0,-1.4014,-1.4574,-1.5286,-1.5815,-1.6175,-1.6645,-1.6851,-1.6791,-1.6973,-1.6923,-1.6727,-1.654,-1.6253,-1.5849,-1.5777,-1.5469,-1.4984,-1.454,-1.418,-1.3885,-1.346,-1.3258,-1.3127,-1.2651,-1.2464,0.0,0.0,0.0,0.0,-1.2934,-1.329,-1.3747,-1.4135,-1.4959,-1.5911,-1.6815,-1.771,-1.8584,-1.9509,-2.0037,-2.0559,-2.1474,-2.1793,-2.2003,-2.2333,-2.234,-2.2187,-2.2047,-2.1928,-2.1756,-2.1553,-2.1576,-2.171,-2.1861,-2.2194,-2.2556,-2.2987,-2.3287,-2.3543,-2.3886,-2.4031,0.0,0.0,0.0,0.0,-2.7213,-2.8143,-2.8728,-2.8728,-2.9699,-3.0216,-3.0216,-3.0401,-3.0528,-3.0528,-3.0528,-3.0587,-3.0704,-3.0704,-3.0762,-3.0869,-3.041,-3.0049,-2.9766,-2.9336,-2.8994,-2.875,-2.875,-2.8868,-2.9031,-2.9031,-2.9129,-2.9281,-2.9281,-2.9281,-2.9232,0.0,0.0,0.0,0.0,0.0,0.0,0.0,0.0,0.0,0.0,0.0,0.0,0.0,0.0,0.0,0.0,0.0,0.0,0.0,0.0,0.0,-1.3538,-1.3832,-1.4237,-1.4806,-1.4999,-1.5206,-1.5413,-1.5513,-1.5503,-1.5381,-1.5322,-1.5117,-1.4797,-1.4373,-1.397,-1.3534,-1.3252,-1.2931,-1.2611,-1.2286,-1.2028,-1.1846,-1.1723,0.0,0.0,0.0,0.0,0.0,0.0,0.0,0.0,-1.4616,-1.5787,-1.677,-1.7106,-1.8143,-1.9274,-1.9524,-2.0398,-2.1197,-2.1263,-2.1511,-2.1793,-2.2005,-2.1778,-2.1617,-2.182,-2.1319,-2.0788,0.0,0.0,-2.0734,-2.1118,-2.1408,-2.1904,-2.2611,-2.2753,-2.293,0.0,0.0,0.0,0.0,0.0,0.0,-2.6881,0.0,-2.8672,-2.8672,-2.9409,-2.9863,-2.9863,-2.9863,-2.9922,-2.9922,-2.9922,-3.0039,-3.0392,-3.0392,-3.0518,-3.0811,-3.0382,-3.0158,-3.0119,-2.9775,-2.959,-2.957,-2.957,-2.957,-2.957,-2.957,-2.957,-2.957,-2.957,-2.957,-2.9509,0.0,0.0,0.0,0.0,0.0,0.0,0.0,0.0,0.0,0.0,0.0,0.0,0.0,0.0,0.0,0.0,0.0,0.0,0.0,0.0,0.0,0.0,0.0,0.0,0.0,0.0,0.0,-1.4089,-1.4024,-1.4029,-1.4092,-1.3962,-1.3685,-1.3316,-1.3108,-1.2882,-1.2595,-1.2249,-1.204,-1.1929,0.0,-1.1571,-1.151,0.0,0.0,0.0,0.0,0.0,0.0,0.0,0.0,0.0,0.0,-1.6404,-1.7066,-1.8057,-1.8824,-1.9589,-2.0565,-2.1036,-2.1414,-2.1897,-2.208,-2.1998,-2.1545,-2.1147,-2.0789,-2.0317,-1.9723,-1.9259,0.0,0.0,0.0,-1.9281,-2.0067,0.0,-2.1567,-2.2175,0.0,-2.366,0.0,-2.4207,-2.5005,-2.5165,0.0,0.0,-2.7424,-2.8049,-2.8049,-2.906,-2.9627,-2.9627,-2.9804,-2.9922,-2.9922,-2.9922,-2.9922,-3.0039,-3.0039,-3.0049,-3.0167,-3.0043,-2.9823,-2.9537,-2.9432,-2.9203,-2.8851,-2.8851,-2.8851,-2.8851,-2.8851,-2.8851,-2.8851,-2.8851,-2.8851,-2.8822,0.0,0.0,0.0,0.0,0.0,0.0,0.0,0.0,0.0,0.0,0.0,0.0,0.0,0.0,0.0,0.0,0.0,0.0,0.0,0.0,0.0,0.0,0.0,0.0,0.0,0.0,0.0,0.0,0.0,0.0,-1.2806,-1.2755,-1.2521,-1.2089,-1.1929,-1.1625,-1.1241,-1.1012,0.0,0.0,0.0,0.0,0.0,0.0,0.0,0.0,0.0,0.0,0.0,0.0,0.0,-1.4667,-1.5741,-1.6777,-1.7762,-1.8478,0.0,-2.0227,-2.091,-2.1346,-2.1647,-2.186,-2.1799,-2.155,-2.0925,-2.0409,-1.9874,-1.9277,-1.8636,0.0,0.0,0.0,0.0,0.0,0.0,0.0,-2.0752,-2.1505,-2.2316,0.0,-2.3625,0.0,-2.4843,-2.5204,-2.5646,0.0,-2.6987,-2.7447,-2.7627,-2.8392,-2.8916,-2.9044,-2.9222,-2.934,-2.9509,-2.9518,-2.9577,-2.9745,-2.9745,-2.9804,-2.9922,-2.9922,-2.9799,-2.9581,0.0,-2.939,-2.9173,-2.9173,-2.9173,-2.9173,-2.9173,-2.9173,-2.9173,-2.9173,-2.9173,-2.9173,0.0,0.0,0.0,0.0,0.0,0.0,0.0,0.0,0.0,0.0,0.0,0.0,0.0,0.0,0.0,0.0,0.0,0.0,0.0,0.0,0.0,0.0,0.0,0.0,0.0,0.0,0.0,0.0,0.0,0.0,0.0,0.0,0.0,0.0,0.0,0.0,0.0,0.0,0.0,0.0,0.0,0.0,0.0,0.0,0.0,0.0,0.0,0.0,0.0,0.0,-1.4052,-1.5282,-1.5699,-1.7066,-1.8466,-1.8559,-1.9646,-2.0893,-2.0949,-2.1444,-2.1886,-2.1539,-2.1167,-2.0777,-2.0289,-1.9562,-1.8876,-1.838,0.0,-1.6956,-1.6624,0.0,-1.6466,-1.7313,0.0,-1.8617,-1.9903,-2.0738,-2.1539,-2.2399,-2.3151,-2.3811,-2.4484,-2.5202,-2.5735,-2.6079,-2.6553,-2.6973,-2.7376,-2.7756,-2.8148,-2.8397,-2.8457,-2.8567,-2.8865,-2.8865,-2.9035,-2.9331,-2.9331,-2.945,-2.9627,-2.9627,-2.9627,-2.9627,0.0,0.0,-2.9627,-2.9627,-2.9627,-2.9627,-2.9627,-2.9627,-2.9627,-2.9627,-2.9627,-2.9627,0.0,0.0,0.0,0.0,0.0,0.0,0.0,0.0,0.0,0.0,-0.7675,0.0,0.0,0.0,0.0,0.0,0.0,0.0,0.0,0.0,0.0,0.0,0.0,0.0,0.0,0.0,0.0,0.0,0.0,0.0,0.0,0.0,0.0,0.0,0.0,0.0,0.0,0.0,0.0,0.0,0.0,0.0,0.0,0.0,0.0,0.0,0.0,0.0,0.0,0.0,-1.3638,-1.4924,-1.6201,-1.7364,-1.8354,-1.8842,-1.9775,-2.0778,-2.133,-2.154,-2.1618,-2.1832,-2.1393,-2.0662,-1.9782,-1.8768,0.0,0.0,0.0,-1.5231,-1.4909,-1.5174,0.0,-1.5721,0.0,0.0,0.0,0.0,-2.0722,0.0,0.0,0.0,0.0,0.0,0.0,0.0,0.0,0.0,-2.7385,-2.7756,-2.802,-2.808,-2.8089,-2.808,-2.8199,-2.8199,-2.8199,-2.8259,-2.8259,-2.8259,-2.8319,-2.8319,-2.8319,-2.8319,-2.8319,0.0,-2.8319,-2.8319,-2.8319,-2.8319,-2.8319,-2.8319,-2.8319,-2.8319,-2.8319,-2.8319,0.0,0.0,0.0,0.0,0.0,0.0,0.0,0.0,0.0,0.0,-0.8069,-0.8246,0.0,0.0,0.0,0.0,0.0,0.0,0.0,0.0,0.0,0.0,0.0,0.0,0.0,0.0,0.0,0.0,0.0,0.0,0.0,0.0,0.0,0.0,0.0,0.0,0.0,0.0,0.0,0.0,0.0,0.0,0.0,0.0,0.0,0.0,0.0,0.0,0.0,0.0,-1.3165,-1.4358,-1.5901,-1.7022,-1.7948,-1.869,-1.9573,-2.0451,-2.0955,-2.1179,-2.1264,-2.1247,-2.0747,-1.9976,-1.8948,0.0,0.0,0.0,-1.5043,-1.4517,-1.4044,0.0,0.0,0.0,0.0,0.0,0.0,0.0,0.0,0.0,0.0,0.0,0.0,0.0,0.0,0.0,0.0,0.0,-2.697,-2.7434,-2.7762,-2.7762,-2.79,-2.802,-2.802,-2.802,-2.802,-2.802,-2.802,-2.802,-2.802,-2.802,-2.802,-2.802,-2.802,0.0,-2.802,-2.802,-2.802,-2.802,-2.802,-2.802,-2.802,-2.802,-2.802,-2.802,0.0,0.0,0.0,0.0,0.0,0.0,0.0,-0.7118,-0.7762,-0.8061,-0.8426,-0.8684,-0.8704,-0.9005,0.0,0.0,0.0,0.0,0.0,0.0,0.0,0.0,0.0,0.0,0.0,0.0,0.0,0.0,0.0,0.0,0.0,0.0,0.0,0.0,0.0,0.0,0.0,0.0,0.0,0.0,0.0,0.0,0.0,0.0,0.0,0.0,0.0,0.0,0.0,0.0,-1.2546,-1.3548,-1.5014,-1.6332,-1.7443,-1.8134,-1.9095,-1.9992,-2.0302,-2.0674,-2.0856,-2.0567,-1.9926,-1.9124,-1.8102,-1.7041,0.0,0.0,-1.4181,-1.3788,-1.3366,0.0,0.0,0.0,0.0,0.0,0.0,0.0,0.0,0.0,0.0,0.0,0.0,0.0,0.0,0.0,0.0,0.0,-2.6449,-2.6918,-2.722,-2.722,-2.747,-2.759,-2.759,-2.759,-2.759,-2.759,-2.759,-2.759,-2.759,-2.759,-2.759,-2.759,-2.759,0.0,0.0,-2.759,-2.759,-2.759,-2.759,-2.759,-2.759,-2.759,-2.759,-2.759,0.0,0.0,0.0,0.0,0.0,0.0,0.0,-0.7189,-0.7842,-0.7753,-0.8402,-0.8841,-0.8715,-0.8837,0.0,0.0,0.0,0.0,0.0,0.0,0.0,0.0,0.0,0.0,0.0,0.0,0.0,0.0,0.0,0.0,0.0,0.0,0.0,0.0,0.0,0.0,0.0,0.0,0.0,0.0,0.0,0.0,0.0,0.0,0.0,0.0,0.0,0.0,0.0,0.0,0.0,-1.243,-1.3507,-1.5282,-1.7041,-1.7138,0.0,0.0,-1.9717,-2.0016,-2.0242,-2.0164,-1.9399,-1.8422,-1.7437,0.0,0.0,-1.3925,-1.2946,-1.2288,-1.2258,-1.2243,-1.2537,0.0,0.0,-1.4998,0.0,0.0,0.0,0.0,0.0,0.0,0.0,0.0,0.0,0.0,0.0,0.0,0.0,-2.6197,-2.6258,-2.6258,-2.625,-2.6258,-2.6258,-2.6258,-2.6258,-2.6258,-2.6258,-2.6258,-2.6258,-2.6258,-2.6258,-2.6258,-2.6258,0.0,0.0,-2.6258,-2.6258,-2.6258,-2.6258,-2.6258,-2.6258,-2.6258,-2.6258,-2.6258,0.0,0.0,0.0,0.0,0.0,0.0,0.0,-0.6902,-0.7699,-0.7646,-0.8296,-0.8753,-0.8695,-0.8671,-0.8692,0.0,0.0,0.0,0.0,0.0,0.0,0.0,0.0,0.0,0.0,0.0,0.0,0.0,0.0,0.0,0.0,0.0,0.0,0.0,0.0,0.0,0.0,0.0,0.0,0.0,0.0,0.0,0.0,0.0,0.0,0.0,0.0,0.0,0.0,0.0,0.0,0.0,-1.2404,-1.3634,0.0,0.0,-1.6935,-1.776,-1.8045,-1.8383,-1.86,-1.8474,-1.8059,-1.7429,-1.658,0.0,-1.4493,-1.3613,-1.2636,-1.1904,-1.1821,-1.179,-1.1974,0.0,0.0,0.0,0.0,0.0,0.0,0.0,0.0,0.0,0.0,0.0,0.0,0.0,0.0,0.0,0.0,-2.5647,-2.6075,-2.6075,-2.6075,-2.6075,-2.6075,-2.6075,-2.6075,-2.6075,-2.6075,-2.6075,-2.6075,-2.6075,-2.6075,-2.6075,-2.6075,0.0,0.0,-2.6075,-2.6075,-2.6075,-2.6075,-2.6075,-2.6075,-2.6075,-2.6075,-2.6075,0.0,0.0,0.0,0.0,0.0,0.0,-0.5465,-0.6518,-0.7363,-0.7524,-0.8062,-0.8459,-0.8553,-0.8439,-0.839,-0.8492,0.0,0.0,0.0,0.0,0.0,0.0,0.0,0.0,0.0,0.0,0.0,0.0,0.0,0.0,0.0,0.0,0.0,0.0,0.0,0.0,0.0,0.0,0.0,0.0,0.0,0.0,0.0,0.0,0.0,0.0,0.0,0.0,0.0,0.0,0.0,0.0,0.0,0.0,0.0,0.0,-1.5807,-1.6411,-1.6629,-1.7035,-1.7267,-1.7101,-1.6764,-1.6314,0.0,0.0,-1.3688,-1.2851,-1.1978,-1.1382,-1.1428,-1.1382,-1.1488,-1.2056,0.0,-1.3747,0.0,0.0,0.0,0.0,0.0,0.0,0.0,0.0,0.0,0.0,0.0,0.0,0.0,-2.4972,-2.5525,-2.5525,-2.5525,-2.5525,-2.5525,-2.5525,-2.5525,-2.5525,-2.5525,-2.5525,-2.5525,-2.5525,-2.5525,-2.5525,0.0,0.0,0.0,-2.5525,-2.5525,-2.5525,-2.5525,-2.5525,-2.5525,-2.5525,-2.5525,-2.5525,0.0,0.0,0.0,0.0,0.0,0.0,0.0,-0.6089,-0.681,-0.7335,-0.7637,-0.7917,-0.8177,-0.8098,-0.8,-0.8,0.0,0.0,0.0,0.0,0.0,0.0,0.0,0.0,0.0,0.0,0.0,-0.8002,-0.8002,0.0,0.0,0.0,0.0,0.0,0.0,0.0,0.0,0.0,0.0,0.0,0.0,0.0,0.0,0.0,0.0,0.0,0.0,0.0,0.0,0.0,0.0,0.0,0.0,0.0,0.0,0.0,-1.4873,-1.5826,-1.5826,-1.6232,-1.6626,-1.6317,-1.5768,-1.5071,0.0,0.0,-1.2297,-1.1486,-1.0779,-1.0487,-1.1019,-1.0843,-1.0968,-1.2106,-1.2587,0.0,0.0,0.0,0.0,0.0,0.0,0.0,0.0,0.0,0.0,0.0,0.0,0.0,0.0,-2.4108,-2.4108,-2.4108,-2.4108,-2.4108,-2.4108,-2.4108,-2.4108,-2.4108,-2.4108,-2.4108,-2.4108,-2.4108,-2.4108,0.0,0.0,0.0,0.0,-2.4108,-2.4108,-2.4108,-2.4108,-2.4108,-2.4108,-2.4108,-2.4108,-2.4108,0.0,0.0,0.0,0.0,0.0,0.0,0.0,-0.5875,-0.6451,-0.6817,-0.7116,-0.7439,-0.7753,-0.7744,-0.7796,-0.7977,0.0,0.0,0.0,0.0,0.0,0.0,0.0,0.0,0.0,0.0,-0.7709,-0.7855,-0.7772,-0.7898,-0.8216,0.0,0.0,0.0,0.0,0.0,0.0,0.0,0.0,0.0,0.0,0.0,0.0,0.0,0.0,0.0,0.0,0.0,0.0,0.0,0.0,0.0,0.0,0.0,0.0,-1.1348,0.0,0.0,-1.3823,-1.4352,-1.4874,-1.4731,-1.4393,-1.3909,-1.3355,-1.2677,-1.1961,-1.1301,-1.0622,-1.0214,-1.04,-1.0343,-1.0513,-1.13,-1.1904,0.0,0.0,0.0,0.0,0.0,0.0,0.0,0.0,0.0,0.0,0.0,0.0,0.0,0.0,-2.2476,-2.2948,-2.41,-2.4108,-2.4108,-2.4108,-2.4108,-2.4108,-2.4108,-2.4108,-2.4108,-2.4108,-2.4108,0.0,0.0,0.0,0.0,0.0,-2.4108,-2.4108,-2.4108,-2.4108,-2.4108,-2.4108,-2.4108,-2.4108,-2.4108,0.0,0.0,0.0,0.0,0.0,0.0,0.0,-0.542,-0.5898,-0.6361,-0.6664,-0.6957,-0.7273,-0.7258,-0.7284,-0.7415,0.0,0.0,0.0,0.0,0.0,0.0,0.0,0.0,0.0,-0.756,-0.7707,-0.7916,-0.7872,-0.8056,-0.8415,-0.8055,-0.7942,0.0,0.0,0.0,0.0,0.0,0.0,0.0,0.0,0.0,-0.7279,0.0,0.0,0.0,0.0,0.0,0.0,0.0,0.0,0.0,0.0,0.0,0.0,0.0,-1.0615,-1.1674,0.0,-1.2766,-1.3213,-1.3173,-1.2983,0.0,0.0,-1.1833,-1.1295,-1.075,-1.0319,-1.0049,-1.0099,-1.0197,-1.0476,-1.109,-1.1745,0.0,0.0,0.0,0.0,0.0,0.0,0.0,0.0,0.0,0.0,0.0,0.0,0.0,0.0,0.0,-2.1993,-2.2985,-2.3237,-2.3362,-2.3362,-2.3362,-2.3362,-2.3362,-2.3362,-2.3362,-2.3362,-2.3362,0.0,0.0,0.0,0.0,0.0,-2.3362,-2.3362,-2.3362,-2.3362,-2.3362,-2.3362,-2.3362,-2.3362,-2.3362,0.0,0.0,0.0,0.0,0.0,0.0,0.0,0.0,0.0,0.0,-0.6201,-0.6424,-0.6716,-0.6629,-0.6546,0.0,0.0,0.0,0.0,0.0,0.0,0.0,0.0,0.0,0.0,-0.7628,-0.7873,-0.8065,-0.8212,-0.8409,-0.8606,-0.8372,-0.8244,-0.816,-0.761,-0.7337,-0.7294,-0.7007,-0.7043,-0.7257,-0.6987,-0.6879,0.0,0.0,0.0,0.0,0.0,0.0,0.0,0.0,0.0,0.0,0.0,0.0,0.0,0.0,0.0,0.0,0.0,-1.1461,0.0,0.0,0.0,0.0,-1.1222,-1.083,0.0,-0.9973,-0.988,-0.9909,-1.0047,-1.0326,-1.0773,-1.1374,-1.1978,0.0,0.0,0.0,0.0,0.0,0.0,0.0,0.0,0.0,0.0,0.0,0.0,0.0,0.0,0.0,-2.1046,-2.1067,-2.1623,-2.193,-2.2076,-2.2097,-2.2111,-2.2111,-2.2111,-2.2111,-2.2111,-2.2111,0.0,0.0,0.0,0.0,0.0,-2.2111,-2.2111,-2.2111,-2.2111,-2.2111,-2.2111,-2.2111,-2.2111,-2.2111,0.0,0.0,0.0,0.0,0.0,0.0,0.0,0.0,0.0,0.0,0.0,-0.5596,-0.6126,-0.6166,0.0,0.0,0.0,0.0,0.0,0.0,0.0,0.0,0.0,0.0,0.0,-0.7401,-0.7599,-0.7791,-0.8126,-0.8413,-0.8616,-0.8739,-0.8563,-0.8118,-0.7976,-0.7672,-0.7281,-0.7009,-0.6934,-0.6987,-0.6815,-0.6761,0.0,0.0,0.0,0.0,-0.6815,-0.6901,0.0,0.0,0.0,0.0,0.0,0.0,0.0,0.0,-0.8364,-0.8771,-0.9082,0.0,-1.0844,-1.1061,-1.0942,-1.0746,0.0,-1.0399,-1.0046,-0.973,-0.9659,-0.9683,-0.9719,-0.9946,-1.0425,-1.1218,-1.1654,0.0,0.0,0.0,0.0,0.0,0.0,0.0,0.0,0.0,0.0,0.0,0.0,0.0,0.0,0.0,-1.9513,-1.9735,-1.9865,-2.0535,-2.1761,-2.1992,-2.2111,-2.2111,-2.2111,-2.2111,-2.2111,-2.2111,0.0,0.0,0.0,0.0,-2.2111,-2.2111,-2.2111,-2.2111,-2.2111,-2.2111,-2.2111,-2.2111,-2.2111,-2.2111,0.0,0.0,0.0,0.0,0.0,0.0,0.0,0.0,0.0,0.0,0.0,0.0,0.0,0.0,0.0,0.0,0.0,0.0,0.0,0.0,0.0,0.0,0.0,0.0,-0.7241,-0.7377,-0.7564,-0.7793,-0.8233,-0.8443,-0.8459,-0.8677,-0.8485,-0.801,-0.7811,-0.7494,-0.7095,-0.696,-0.6874,-0.6793,-0.6625,0.0,0.0,0.0,0.0,0.0,-0.6674,-0.6761,0.0,-0.682,-0.696,-0.7128,0.0,0.0,0.0,0.0,-0.7823,-0.8068,-0.8184,-0.9023,-0.9892,-1.0035,-1.0125,-1.0184,-1.0184,-1.0002,-0.9787,0.0,0.0,0.0,0.0,0.0,0.0,0.0,0.0,0.0,0.0,0.0,0.0,0.0,0.0,0.0,0.0,0.0,0.0,0.0,0.0,0.0,0.0,0.0,-1.8714,-1.8866,-1.906,-1.9562,-2.0584,-2.0738,-2.0893,-2.102,-2.102,-2.1032,-2.1172,-2.1172,-2.1172,0.0,0.0,0.0,-2.1172,-2.1172,-2.1172,-2.1172,-2.1172,-2.1172,-2.1172,-2.1172,-2.1172,-2.1172,0.0,0.0,0.0,0.0,0.0,0.0,0.0,0.0,0.0,0.0,0.0,0.0,0.0,0.0,0.0,0.0,0.0,0.0,0.0,0.0,0.0,0.0,0.0,-0.6987,-0.7267,-0.7395,-0.7621,-0.791,-0.836,-0.851,-0.836,-0.8504,-0.8352,-0.7909,-0.7472,-0.7128,-0.6906,-0.6852,-0.6766,-0.6647,-0.6436,0.0,0.0,0.0,0.0,0.0,0.0,0.0,0.0,-0.6592,-0.6688,-0.6805,-0.6864,0.0,0.0,0.0,0.0,0.0,-0.775,-0.8375,-0.8992,-0.9028,-0.9374,-0.967,-0.967,0.0,0.0,0.0,0.0,0.0,0.0,0.0,0.0,0.0,0.0,0.0,0.0,0.0,0.0,0.0,0.0,0.0,0.0,0.0,0.0,0.0,0.0,0.0,0.0,0.0,0.0,-1.8123,-1.8414,-1.8646,-1.8878,-1.9149,-1.943,-1.9666,-1.9666,-1.9757,-2.0043,-2.0043,-2.0062,0.0,0.0,0.0,-2.0106,-2.0106,-2.0106,-2.0106,-2.0106,-2.0106,-2.0106,-2.0106,-2.0106,-2.017,0.0,0.0,0.0,0.0,0.0,0.0,0.0,0.0,0.0,0.0,0.0,0.0,0.0,0.0,0.0,0.0,0.0,0.0,0.0,0.0,0.0,0.0,-0.6757,-0.6864,-0.7115,-0.7261,-0.7524,-0.7894,-0.8312,-0.8533,-0.8567,-0.882,-0.8626,-0.8054,-0.746,-0.7112,-0.6879,-0.6603,-0.6463,-0.6436,-0.6282,0.0,0.0,0.0,0.0,0.0,0.0,0.0,0.0,-0.6134,-0.6276,-0.6431,-0.6645,0.0,0.0,0.0,0.0,0.0,-0.7388,-0.7898,-0.8478,-0.8692,-0.8928,-0.9119,-0.9119,-0.9278,0.0,0.0,0.0,0.0,0.0,0.0,0.0,0.0,0.0,0.0,0.0,0.0,0.0,0.0,0.0,0.0,0.0,0.0,0.0,0.0,0.0,0.0,0.0,0.0,0.0,-1.6773,-1.6808,-1.6908,-1.6948,-1.853,-1.9334,-1.9379,-1.9379,-1.9526,-1.9731,-1.9731,-1.9871,0.0,0.0,-2.0106,-2.0106,-2.0106,-2.0106,-2.0106,-2.0106,-2.0106,-2.0106,-2.0106,-2.0106,-2.0106,0.0,0.0,0.0,0.0,0.0,0.0,0.0,0.0,0.0,0.0,0.0,0.0,0.0,0.0,0.0,0.0,0.0,0.0,0.0,0.0,0.0,-0.6194,-0.6449,-0.6773,-0.7211,-0.7261,-0.7526,-0.8007,-0.8276,-0.8441,-0.8502,-0.8546,-0.8315,-0.782,-0.7404,-0.6999,-0.663,-0.6468,-0.6359,-0.6282,0.0,0.0,0.0,0.0,0.0,0.0,0.0,0.0,0.0,0.0,-0.5921,-0.6082,-0.63,0.0,0.0,0.0,0.0,0.0,-0.7095,-0.7559,-0.8066,-0.8177,-0.8713,-0.9228,-0.9222,-0.9383,0.0,0.0,0.0,0.0,0.0,0.0,0.0,0.0,0.0,0.0,0.0,0.0,0.0,0.0,0.0,0.0,0.0,0.0,0.0,0.0,0.0,0.0,0.0,0.0,0.0,0.0,-1.6478,-1.6478,-1.6478,-1.7363,-1.7853,-1.7991,-1.7991,-1.8136,-1.8401,-1.8545,-1.8677,-1.881,0.0,-1.8938,-1.8938,-1.8938,-1.8938,-1.9008,-1.9206,-1.9276,-1.934,-1.9462,-1.9654,-1.9839,0.0,0.0,0.0,0.0,0.0,0.0,0.0,0.0,0.0,0.0,0.0,0.0,0.0,0.0,0.0,0.0,0.0,0.0,0.0,0.0,-0.5647,-0.5765,-0.6236,-0.6701,-0.7176,-0.7243,-0.7529,-0.8074,-0.8183,-0.8259,-0.8362,-0.8209,-0.7905,-0.7528,-0.7231,-0.6832,-0.6408,-0.6359,-0.6277,-0.6146,0.0,0.0,0.0,0.0,0.0,0.0,0.0,0.0,0.0,0.0,0.0,0.0,0.0,0.0,0.0,-0.6419,-0.6616,-0.6769,-0.6769,-0.72,-0.7677,-0.7677,-0.8498,-0.9288,-0.9333,-0.9551,-0.9807,0.0,0.0,0.0,0.0,0.0,0.0,0.0,0.0,0.0,0.0,0.0,0.0,0.0,0.0,0.0,0.0,0.0,0.0,0.0,0.0,0.0,0.0,0.0,0.0,0.0,-1.6065,-1.6065,-1.6065,-1.6065,-1.6337,-1.6823,-1.6823,-1.696,-1.7217,-1.7405,-1.7531,-1.7599,-1.7845,-1.7948,-1.7953,-1.8011,-1.7969,-1.8033,-1.8366,-1.8437,-1.8501,-1.8752,-1.9002,-1.9246,0.0,0.0,0.0,0.0,0.0,0.0,0.0,0.0,0.0,0.0,0.0,0.0,0.0,0.0,0.0,0.0,0.0,0.0,0.0,0.0,-0.545,-0.5699,-0.6165,-0.6551,-0.6828,-0.7018,-0.7396,-0.7999,-0.8016,-0.8082,-0.8205,-0.8001,-0.7716,-0.7305,-0.6967,-0.6664,-0.6381,-0.6255,-0.6146,-0.6005,-0.6005,0.0,0.0,0.0,0.0,0.0,0.0,0.0,0.0,0.0,0.0,0.0,0.0,0.0,-0.5844,-0.5859,-0.6082,-0.6349,-0.6349,-0.6819,-0.7344,-0.7344,-0.8143,-0.8988,-0.9165,-0.957,0.0,-1.023,0.0,0.0,0.0,0.0,0.0,0.0,0.0,0.0,0.0,0.0,0.0,0.0,0.0,0.0,0.0,0.0,0.0,0.0,0.0,0.0,0.0,0.0,0.0,0.0,0.0,-1.4714,-1.4714,-1.4714,-1.5369,-1.6507,-1.6507,-1.6691,-1.6937,-1.6954,-1.7097,-1.7342,-1.7594,-1.7702,-1.7714,-1.7942,-1.7969,-1.7969,-1.8033,-1.8033,-1.8039,-1.8098,-1.8098,-1.8069,0.0,0.0,0.0,0.0,0.0,0.0,0.0,0.0,0.0,0.0,0.0,0.0,0.0,0.0,0.0,0.0,0.0,0.0,0.0,0.0,-0.5127,-0.5319,-0.5777,-0.6091,-0.6229,-0.6765,-0.7302,-0.7805,-0.7901,-0.7996,-0.8074,-0.7859,-0.7568,-0.7166,-0.6909,-0.6613,-0.6282,-0.6141,-0.6059,-0.5991,-0.5761,-0.5488,0.0,0.0,0.0,0.0,0.0,0.0,0.0,0.0,-0.4982,-0.5042,-0.5321,-0.5453,-0.5524,-0.5639,-0.5901,-0.6174,-0.6174,-0.6726,-0.732,-0.7461,-0.8131,0.0,0.0,-0.9425,-0.9862,-1.0383,-1.0625,0.0,0.0,0.0,0.0,0.0,0.0,0.0,0.0,0.0,0.0,0.0,0.0,0.0,0.0,0.0,0.0,0.0,0.0,0.0,0.0,0.0,0.0,0.0,0.0,-1.4595,-1.4595,-1.4595,-1.4828,-1.5299,-1.5299,-1.5461,-1.5785,-1.5942,-1.6182,-1.653,-1.6712,-1.6822,-1.6827,-1.6915,-1.7042,-1.7191,-1.7532,-1.7755,-1.7811,-1.7811,-1.7714,-1.7565,0.0,0.0,0.0,0.0,0.0,0.0,0.0,0.0,0.0,0.0,0.0,0.0,0.0,0.0,0.0,0.0,0.0,0.0,0.0,-0.4581,-0.4788,-0.4958,-0.534,-0.5636,-0.5841,-0.6323,-0.6855,-0.7388,-0.7628,-0.7721,-0.7706,-0.7521,-0.7245,-0.6915,-0.6668,-0.6411,-0.6119,-0.6005,-0.5887,-0.5766,-0.5523,-0.5191,0.0,0.0,0.0,0.0,0.0,0.0,0.0,0.0,-0.4731,-0.478,-0.5006,-0.507,-0.5102,-0.5246,-0.553,-0.5821,-0.5821,-0.6405,-0.7075,-0.7226,0.0,0.0,-0.8748,-0.934,-0.9988,-1.0593,-1.0829,0.0,0.0,0.0,0.0,0.0,0.0,0.0,0.0,0.0,0.0,0.0,0.0,0.0,0.0,0.0,0.0,0.0,0.0,0.0,0.0,0.0,0.0,0.0,0.0,-1.3988,-1.3988,-1.3988,-1.3988,-1.3988,-1.3988,-1.4346,-1.4942,-1.5107,-1.5361,-1.5547,-1.579,-1.5891,-1.5896,-1.597,-1.6091,-1.6313,-1.6663,-1.6879,-1.6984,-1.6984,-1.6884,-1.6668,0.0,0.0,0.0,0.0,0.0,0.0,0.0,0.0,0.0,0.0,0.0,0.0,0.0,0.0,0.0,0.0,0.0,0.0,-0.4096,-0.423,-0.4418,-0.4688,-0.4888,-0.5213,-0.5687,-0.5698,-0.6034,-0.6701,-0.7155,-0.729,-0.7081,-0.6885,-0.6701,-0.6492,-0.6147,-0.6,-0.6,-0.5845,-0.56,-0.5297,-0.5293,-0.4969,-0.4501,0.0,0.0,0.0,0.0,0.0,0.0,0.0,-0.4591,-0.4591,-0.4591,0.0,-0.4596,-0.4596,-0.4876,-0.5191,-0.5191,-0.5782,-0.6419,0.0,0.0,0.0,-0.8299,-0.9382,-1.0401,-1.0899,0.0,-1.1675,0.0,0.0,0.0,0.0,0.0,0.0,0.0,0.0,0.0,0.0,0.0,0.0,0.0,0.0,0.0,0.0,0.0,0.0,0.0,0.0,0.0,0.0,0.0,0.0,-1.2719,-1.2719,-1.2719,-1.2719,-1.2719,-1.3384,-1.4595,-1.4595,-1.4595,-1.4605,-1.4882,-1.4978,-1.4993,-1.5278,-1.5426,-1.5426,-1.5369,-1.5369,-1.5426,-1.5426,-1.5364,-1.5328,0.0,0.0,0.0,0.0,0.0,0.0,0.0,0.0,0.0,0.0,0.0,0.0,0.0,0.0,0.0,0.0,0.0,0.0,-0.4026,-0.4071,-0.4186,-0.4408,-0.4654,-0.4878,-0.506,-0.5298,-0.5766,-0.649,-0.6827,-0.6964,-0.6877,-0.6687,-0.6506,-0.6358,-0.6124,-0.595,-0.5837,-0.557,-0.54,-0.5276,-0.4886,-0.4641,-0.4485,0.0,0.0,0.0,0.0,0.0,0.0,0.0,0.0,0.0,-0.4424,0.0,-0.4596,-0.4596,-0.4876,-0.5191,-0.5191,-0.5782,0.0,-0.6743,0.0,0.0,0.0,-0.9155,0.0,0.0,0.0,0.0,0.0,0.0,0.0,0.0,0.0,0.0,0.0,0.0,0.0,0.0,0.0,0.0,0.0,0.0,0.0,0.0,0.0,0.0,0.0,0.0,0.0,0.0,0.0,0.0,-1.2719,-1.2719,-1.2719,-1.2719,-1.2719,-1.302,-1.3629,-1.3868,-1.4112,-1.4356,-1.46,-1.4691,-1.4766,-1.4983,-1.5141,-1.5151,-1.5308,-1.5273,-1.5141,-1.5141,-1.4978,-1.4837,0.0,0.0,0.0,0.0,0.0,0.0,0.0,0.0,0.0,0.0,0.0,0.0,0.0,0.0,0.0,0.0,0.0,0.0,0.0,0.0,-0.3973,-0.4166,-0.4428,-0.4655,-0.4807,-0.5077,-0.54,-0.5798,-0.6169,-0.6355,-0.6369,-0.6266,-0.6187,-0.6103,-0.5922,-0.5786,-0.5696,-0.5373,-0.5151,-0.498,-0.4614,-0.4411,-0.4339,0.0,0.0,0.0,0.0,0.0,0.0,0.0,0.0,0.0,-0.4102,0.0,-0.4359,-0.4359,-0.4681,-0.5038,-0.5038,-0.5614,0.0,-0.6526,-0.7051,-0.7738,-0.8488,0.0,0.0,0.0,0.0,0.0,0.0,0.0,0.0,0.0,0.0,0.0,0.0,0.0,0.0,0.0,0.0,0.0,0.0,0.0,0.0,0.0,0.0,0.0,0.0,0.0,0.0,0.0,0.0,0.0,-1.1937,-1.1937,-1.19,-1.1894,-1.1894,-1.1912,-1.2082,-1.2892,-1.3389,-1.3629,-1.3808,-1.3868,-1.3878,-1.4002,-1.4115,-1.4125,-1.4255,-1.4226,-1.4115,-1.4115,-1.3925,-1.3748,0.0,0.0,0.0,0.0,0.0,0.0,0.0,0.0,0.0,0.0,0.0,0.0,0.0,0.0,0.0,0.0,0.0,0.0,0.0,0.0,-0.3768,-0.395,-0.422,-0.4495,-0.477,-0.4965,-0.4987,-0.4867,-0.5428,-0.5687,-0.5692,-0.5757,-0.5795,-0.5768,-0.565,-0.5586,-0.5529,-0.5185,-0.4878,-0.4579,-0.4428,-0.424,-0.4086,-0.4071,0.0,0.0,0.0,0.0,0.0,0.0,0.0,0.0,-0.3677,-0.3834,-0.3995,-0.3995,-0.439,-0.4804,-0.4779,0.0,0.0,-0.6042,-0.6601,0.0,0.0,0.0,0.0,0.0,0.0,0.0,0.0,0.0,0.0,0.0,0.0,0.0,0.0,0.0,0.0,0.0,0.0,0.0,0.0,0.0,0.0,0.0,0.0,0.0,0.0,0.0,0.0,0.0,0.0,-1.0789,-1.0789,-1.0774,-1.0696,0.0,-1.0598,-1.0453,-1.037,-1.1857,-1.2547,-1.2607,-1.2607,-1.2607,-1.2667,-1.2667,-1.2667,-1.2667,-1.2667,-1.2667,-1.2667,-1.2667,-1.2561,-1.2479,0.0,0.0,0.0,0.0,0.0,0.0,0.0,0.0,0.0,0.0,0.0,0.0,0.0,0.0,0.0,0.0,0.0,0.0,0.0,0.0,-0.3566,-0.3607,-0.3912,-0.4262,-0.4631,-0.4684,-0.4684,-0.4657,-0.5253,-0.5548,-0.5553,-0.573,-0.5736,-0.565,-0.5622,-0.546,-0.5181,-0.4848,-0.4596,-0.442,-0.4134,-0.398,-0.3935,-0.3889,-0.3858,0.0,0.0,0.0,0.0,0.0,0.0,0.0,-0.3541,-0.376,-0.3995,-0.3995,-0.439,-0.4779,-0.4664,-0.5144,0.0,0.0,-0.6712,0.0,0.0,0.0,0.0,0.0,0.0,0.0,0.0,0.0,0.0,0.0,0.0,0.0,0.0,0.0,0.0,0.0,0.0,0.0,0.0,0.0,0.0,0.0,0.0,0.0,0.0,0.0,0.0,0.0,0.0,-1.0789,-1.0789,-1.0726,-1.0647,0.0,-1.042,-1.0338,-1.0304,-1.0957,-1.1516,-1.1981,-1.1981,-1.2097,-1.2329,-1.2329,-1.2329,-1.2329,-1.2329,-1.2329,-1.2329,-1.2329,-1.2303,-1.2267,0.0,0.0,0.0,0.0,0.0,0.0,0.0,0.0,0.0,0.0,0.0,0.0,0.0,0.0,0.0,0.0,0.0,0.0,0.0,0.0,0.0,-0.3637,-0.3818,-0.4027,-0.4259,-0.4354,-0.4375,-0.4316,-0.479,-0.5094,-0.5259,-0.5404,-0.546,-0.5462,-0.5462,-0.5273,-0.499,-0.4713,-0.4444,-0.4179,-0.3924,-0.3767,-0.3695,-0.3674,-0.3625,-0.354,-0.344,0.0,0.0,0.0,0.0,0.0,0.0,0.0,-0.3781,-0.3838,-0.4199,-0.4565,-0.4596,0.0,0.0,-0.601,0.0,0.0,0.0,0.0,0.0,0.0,0.0,0.0,0.0,0.0,0.0,0.0,0.0,0.0,0.0,0.0,0.0,0.0,0.0,0.0,0.0,0.0,0.0,0.0,0.0,0.0,0.0,0.0,0.0,0.0,-0.9745,-0.9724,-0.9724,-0.9648,-0.9576,-0.9507,-0.9367,-0.9403,-0.9447,-1.023,-1.0763,-1.1051,-1.1051,-1.1166,-1.1282,-1.1282,-1.1282,-1.1282,-1.1282,-1.1282,-1.1282,-1.1282,-1.1228,-1.1208,0.0,0.0,0.0,0.0,0.0,0.0,0.0,0.0,0.0,0.0,0.0,0.0,0.0,0.0,0.0,0.0,0.0,0.0,0.0,0.0,0.0,-0.3739,-0.3747,-0.3785,-0.3859,-0.4026,-0.4077,-0.3995,-0.4264,-0.4576,0.0,-0.502,-0.5124,-0.527,-0.5242,-0.5069,-0.4813,-0.4601,-0.4308,-0.3929,-0.3753,-0.3608,-0.3517,-0.351,-0.3421,-0.3304,-0.3291,-0.3241,-0.3192,-0.3192,0.0,0.0,0.0,0.0,-0.3513,-0.3636,-0.3971,-0.4319,-0.4451,0.0,-0.5453,-0.6061,0.0,0.0,0.0,0.0,0.0,0.0,0.0,0.0,0.0,0.0,0.0,0.0,0.0,0.0,0.0,0.0,0.0,0.0,0.0,0.0,0.0,0.0,0.0,0.0,0.0,0.0,0.0,0.0,-0.8701,-0.882,-0.861,-0.85,-0.85,-0.8479,-0.8414,-0.8309,-0.8285,-0.8323,-0.8439,-0.9468,-0.9989,-1.0161,-1.0161,-1.0161,-1.0219,-1.0219,-1.0219,-1.0219,-1.0219,-1.0219,-1.0219,-1.0219,-1.0129,-1.0066,0.0,0.0,0.0,0.0,0.0,0.0,0.0,0.0,0.0,0.0,0.0,0.0,0.0,0.0,0.0,0.0,0.0,0.0,-0.2953,0.0,0.0,-0.353,-0.3542,-0.3602,-0.3717,-0.3745,-0.3834,-0.3995,-0.3932,0.0,0.0,0.0,0.0,-0.5128,-0.5011,-0.4782,-0.4467,-0.4307,-0.405,-0.3728,-0.3651,-0.3612,-0.3578,-0.3531,-0.341,-0.3308,-0.3297,-0.3224,-0.3122,-0.3175,-0.3192,0.0,0.0,0.0,-0.351,-0.3513,-0.3898,-0.4262,0.0,0.0,-0.5102,0.0,0.0,0.0,0.0,0.0,0.0,0.0,0.0,0.0,0.0,0.0,0.0,0.0,0.0,0.0,0.0,0.0,0.0,0.0,0.0,0.0,0.0,0.0,0.0,0.0,0.0,0.0,0.0,-0.8298,-0.8375,-0.8394,-0.8445,-0.85,-0.85,-0.8392,-0.8328,-0.8309,-0.813,-0.8063,-0.8045,-0.8248,-0.8768,-0.9495,-0.9495,-0.9661,-0.988,-0.988,-0.988,-0.988,-0.988,-0.988,-0.988,-0.988,-0.9865,-0.9846,0.0,0.0,0.0,0.0,0.0,0.0,0.0,0.0,0.0,0.0,0.0,0.0,0.0,0.0,0.0,-0.29,-0.29,-0.29,-0.29,-0.2953,-0.3037,-0.3164,-0.3168,-0.3224,-0.3369,-0.3432,-0.3566,-0.3779,0.0,0.0,0.0,-0.4491,-0.4685,0.0,0.0,0.0,-0.4445,-0.4286,-0.4017,-0.3755,-0.3634,-0.3527,-0.3421,-0.3399,-0.336,-0.329,-0.3298,-0.3238,-0.3168,-0.3238,-0.3205,-0.3159,-0.3192,0.0,0.0,0.0,-0.3669,0.0,-0.3987,0.0,0.0,0.0,0.0,0.0,0.0,0.0,0.0,0.0,0.0,0.0,0.0,0.0,0.0,0.0,0.0,0.0,0.0,0.0,0.0,0.0,0.0,0.0,0.0,0.0,0.0,0.0,0.0,0.0,-0.7989,-0.7938,-0.7915,-0.7915,-0.7796,-0.7766,-0.7766,-0.7711,-0.7685,-0.7685,-0.7741,-0.7771,-0.7771,-0.7934,-0.8211,-0.8602,-0.8602,-0.8657,-0.8819,-0.8985,-0.9096,-0.9096,-0.921,-0.9323,-0.9323,-0.9323,-0.9323,-0.9323,0.0,0.0,0.0,0.0,0.0,0.0,0.0,0.0,0.0,0.0,0.0,0.0,0.0,0.0,0.0,0.0,-0.2854,-0.2854,-0.2871,-0.2874,-0.2887,-0.29,-0.29,-0.2953,-0.3056,-0.3149,-0.3295,0.0,0.0,0.0,-0.4217,-0.4182,-0.4367,0.0,-0.4772,-0.4649,0.0,0.0,0.0,-0.3782,-0.3699,-0.3565,-0.3423,-0.346,-0.3447,-0.3432,-0.3413,-0.3358,-0.3272,-0.3305,-0.323,-0.3138,-0.3193,-0.3195,0.0,0.0,0.0,0.0,0.0,0.0,0.0,0.0,0.0,0.0,0.0,0.0,0.0,0.0,0.0,0.0,0.0,0.0,0.0,0.0,0.0,0.0,0.0,0.0,0.0,0.0,0.0,0.0,0.0,0.0,0.0,0.0,0.0,0.0,-0.7657,-0.7493,-0.7329,-0.7274,-0.7157,-0.7102,-0.7102,-0.7154,-0.721,-0.721,-0.7379,-0.7493,-0.7493,-0.7712,-0.7823,-0.782,-0.7934,-0.7989,-0.8045,-0.8266,-0.8377,-0.8377,-0.8602,-0.866,-0.866,-0.866,-0.866,-0.866,0.0,0.0,0.0,0.0,0.0,0.0,0.0,0.0,0.0,0.0,0.0,0.0,-0.2527,-0.2626,-0.2712,-0.2712,-0.2712,-0.2729,-0.2799,-0.2799,-0.2828,-0.29,-0.29,0.0,-0.2916,-0.2907,-0.3013,0.0,0.0,0.0,-0.3728,-0.3931,-0.4082,-0.4237,-0.4426,-0.4409,-0.4213,0.0,0.0,0.0,0.0,0.0,0.0,0.0,0.0,0.0,0.0,-0.3602,-0.3474,-0.3422,-0.3313,-0.3193,-0.3193,-0.3153,-0.3109,0.0,0.0,0.0,0.0,0.0,0.0,0.0,0.0,0.0,0.0,0.0,0.0,0.0,0.0,0.0,0.0,0.0,0.0,0.0,0.0,0.0,0.0,0.0,0.0,0.0,0.0,0.0,0.0,0.0,0.0,0.0,0.0,0.0,-0.6771,-0.6768,-0.6604,-0.6386,-0.6606,-0.6712,-0.6712,-0.7043,-0.721,-0.721,-0.721,-0.721,-0.721,-0.721,-0.7265,-0.7265,-0.7768,-0.7989,-0.7989,-0.8045,-0.8045,-0.8045,-0.8045,-0.8045,-0.8045,-0.8045,-0.8045,-0.81,0.0,0.0,0.0,0.0,0.0,0.0,0.0,0.0,0.0,0.0,0.0,0.0,0.0,-0.2477,-0.251,-0.251,-0.251,-0.251,-0.2543,-0.2577,-0.261,-0.2639,-0.2726,-0.2792,-0.2828,-0.2845,-0.2921,0.0,0.0,-0.328,-0.3644,-0.3709,-0.387,-0.4089,-0.4382,-0.446,-0.4375,-0.4203,0.0,0.0,0.0,0.0,0.0,0.0,0.0,0.0,0.0,0.0,0.0,-0.3717,-0.3584,-0.339,-0.3346,-0.3253,-0.3147,-0.3016,0.0,0.0,0.0,0.0,0.0,0.0,0.0,0.0,0.0,0.0,0.0,0.0,0.0,0.0,0.0,0.0,0.0,0.0,0.0,0.0,0.0,0.0,0.0,0.0,0.0,0.0,0.0,0.0,0.0,0.0,0.0,0.0,-0.6283,-0.6297,-0.6279,-0.6172,-0.6347,-0.6439,-0.6439,-0.655,-0.6606,-0.6606,-0.6606,-0.6606,-0.6606,-0.6606,-0.6606,-0.6659,-0.6993,-0.7268,-0.7487,-0.7657,-0.7771,-0.7771,-0.7934,-0.7989,-0.7989,-0.7989,-0.7989,-0.7989,0.0,0.0,0.0,0.0,0.0,0.0,0.0,0.0,0.0,0.0,0.0,0.0,0.0,0.0,-0.2509,-0.2464,-0.2461,-0.2457,-0.2411,-0.2441,-0.2457,-0.2457,-0.2577,-0.2646,-0.2696,-0.2749,-0.2815,0.0,0.0,0.0,0.0,-0.3485,-0.3638,-0.3811,-0.4104,-0.4234,0.0,0.0,0.0,-0.3988,0.0,0.0,-0.3871,0.0,0.0,0.0,0.0,0.0,0.0,0.0,-0.3708,-0.3478,0.0,0.0,0.0,0.0,0.0,0.0,-0.299,0.0,0.0,0.0,0.0,0.0,0.0,0.0,0.0,0.0,0.0,0.0,0.0,0.0,0.0,0.0,0.0,0.0,0.0,0.0,0.0,0.0,0.0,0.0,0.0,0.0,0.0,0.0,0.0,0.0,-0.5847,-0.5915,-0.5969,-0.5947,-0.6051,-0.6161,-0.6274,-0.6274,-0.6274,-0.6274,-0.6274,-0.6274,-0.6274,-0.6274,-0.6274,-0.633,-0.6495,-0.6771,-0.7046,-0.7326,-0.7493,-0.7493,-0.7657,-0.7709,-0.7709,-0.7709,-0.7709,-0.7768,0.0,0.0,0.0,0.0,0.0,0.0,0.0,0.0,0.0,-0.2267,0.0,0.0,0.0,0.0,0.0,-0.2613,-0.26,-0.2543,-0.2406,-0.2397,-0.2394,-0.2391,-0.2457,-0.2494,-0.2494,-0.263,-0.2696,0.0,0.0,0.0,0.0,0.0,-0.3382,-0.3398,-0.3582,-0.3701,-0.3773,0.0,-0.3602,-0.362,0.0,-0.3878,-0.4017,0.0,0.0,0.0,-0.4266,-0.4221,0.0,0.0,0.0,0.0,0.0,0.0,0.0,0.0,0.0,0.0,0.0,0.0,0.0,0.0,0.0,0.0,0.0,0.0,0.0,0.0,0.0,0.0,0.0,0.0,0.0,0.0,0.0,0.0,0.0,0.0,0.0,0.0,0.0,0.0,0.0,0.0,0.0,0.0,0.0,-0.584,-0.5571,-0.5574,-0.5623,-0.5671,-0.5766,-0.5933,-0.6274,-0.6274,-0.6274,-0.6274,-0.6274,-0.6274,-0.6274,-0.6274,-0.6274,-0.6274,-0.6274,-0.6439,-0.6715,-0.7043,-0.7154,-0.7154,-0.7154,-0.7154,-0.7154,-0.7154,-0.7154,-0.7213,0.0,0.0,0.0,0.0,0.0,0.0,0.0,0.0,-0.2121,0.0,0.0,0.0,-0.2231,-0.2353,-0.2457,-0.2514,-0.2528,-0.2477,-0.2342,-0.2416,-0.2428,-0.2336,-0.2394,-0.2424,-0.2424,-0.251,-0.2527,0.0,0.0,0.0,0.0,0.0,0.0,0.0,-0.2989,-0.3031,-0.3161,-0.3526,0.0,0.0,-0.3773,-0.3878,0.0,0.0,0.0,0.0,0.0,-0.4513,-0.4408,0.0,-0.4154,-0.3805,0.0,0.0,0.0,0.0,0.0,0.0,-0.2583,0.0,0.0,0.0,0.0,0.0,0.0,0.0,0.0,0.0,0.0,0.0,0.0,0.0,0.0,0.0,0.0,0.0,0.0,0.0,0.0,0.0,0.0,0.0,0.0,0.0,0.0,0.0,-0.5114,-0.5012,-0.4759,-0.482,-0.5031,-0.5347,-0.5377,-0.5478,-0.5661,-0.5661,-0.5661,-0.5661,-0.5661,-0.5661,-0.5661,-0.5661,-0.5661,-0.5661,-0.588,-0.5991,-0.61,-0.6437,-0.655,-0.655,-0.655,-0.655,-0.655,-0.655,-0.655,-0.655,0.0,0.0,0.0,0.0,0.0,0.0,0.0,0.0,-0.2197,0.0,0.0,0.0,-0.2389,-0.2459,-0.2509,-0.2496,-0.2506,-0.2442,-0.2307,-0.232,-0.2333,-0.2301,-0.2346,-0.2364,-0.2364,-0.2427,-0.2441,0.0,0.0,0.0,0.0,0.0,0.0,0.0,0.0,0.0,0.0,0.0,0.0,0.0,-0.3673,0.0,0.0,-0.4113,-0.4196,0.0,0.0,0.0,-0.4314,-0.4345,-0.416,0.0,0.0,0.0,0.0,0.0,0.0,0.0,0.0,0.0,0.0,0.0,0.0,0.0,0.0,-0.2781,0.0,0.0,0.0,0.0,0.0,0.0,0.0,0.0,0.0,0.0,0.0,0.0,0.0,0.0,0.0,0.0,0.0,0.0,0.0,0.0,-0.4432,-0.4347,-0.4234,-0.4364,-0.4555,-0.4756,-0.4794,-0.4852,-0.4993,-0.4993,-0.501,-0.5043,-0.5043,-0.5043,-0.5043,-0.5156,-0.5212,-0.5212,-0.5491,-0.5656,-0.5656,-0.5826,-0.6051,-0.6274,-0.6274,-0.6274,-0.6274,-0.6274,-0.6274,-0.6274,0.0,0.0,0.0,0.0,0.0,0.0,0.0,0.0,0.0,0.0,-0.2562,-0.2638,-0.278,-0.2789,-0.2714,-0.2553,-0.2547,-0.2473,-0.2327,-0.2221,-0.2186,-0.2278,-0.2281,-0.2284,-0.227,-0.2347,-0.2374,0.0,0.0,0.0,0.0,0.0,0.0,0.0,0.0,0.0,0.0,0.0,0.0,-0.319,-0.3458,-0.3666,0.0,0.0,-0.4096,0.0,-0.4068,-0.4031,-0.4022,-0.3971,-0.3877,0.0,0.0,0.0,0.0,0.0,-0.2867,0.0,0.0,0.0,0.0,0.0,0.0,0.0,-0.2453,-0.2559,-0.2634,0.0,0.0,0.0,0.0,0.0,0.0,0.0,0.0,0.0,0.0,0.0,0.0,0.0,0.0,0.0,0.0,0.0,-0.3888,-0.3903,-0.3866,-0.39,-0.3966,-0.4094,-0.414,-0.4198,-0.4266,-0.4338,-0.4361,-0.4363,-0.4397,-0.4468,-0.4468,-0.4472,-0.4536,-0.4761,-0.4873,-0.4873,-0.5156,-0.5324,-0.5324,-0.5324,-0.5659,-0.6219,-0.6219,-0.6219,-0.6219,-0.6219,-0.6219,-0.6219,-0.2217,0.0,0.0,0.0,0.0,0.0,0.0,0.0,0.0,-0.2411,-0.252,-0.2639,-0.2711,-0.2713,-0.275,-0.2815,-0.2761,-0.2671,-0.2481,-0.2447,-0.2343,-0.2143,-0.2146,-0.2146,-0.2136,-0.225,-0.2267,0.0,0.0,0.0,0.0,0.0,0.0,0.0,0.0,0.0,0.0,0.0,0.0,-0.2918,-0.3239,0.0,-0.3551,-0.3939,-0.4099,-0.4143,-0.4258,-0.4235,-0.4121,0.0,-0.3714,-0.3589,0.0,0.0,0.0,0.0,0.0,0.0,0.0,0.0,0.0,0.0,0.0,0.0,-0.2326,-0.2287,-0.2238,0.0,0.0,0.0,0.0,0.0,0.0,0.0,0.0,0.0,0.0,0.0,0.0,0.0,0.0,0.0,0.0,0.0,-0.3677,-0.3881,-0.3696,-0.3684,-0.3892,-0.3767,-0.3883,-0.4197,-0.4214,-0.4259,-0.4336,-0.4336,-0.4374,-0.4395,-0.4395,-0.4424,-0.448,-0.4536,-0.4592,-0.4592,-0.4648,-0.4648,-0.4648,-0.4648,-0.5043,-0.5549,-0.5549,-0.5549,-0.5549,-0.5549,-0.5549,-0.5549,-0.1973,0.0,0.0,0.0,0.0,0.0,0.0,0.0,0.0,-0.2308,-0.2421,-0.2556,-0.2672,-0.2701,-0.274,-0.2835,-0.2799,-0.2704,-0.2605,-0.2477,-0.237,-0.2298,-0.2173,-0.2087,-0.2048,-0.2118,-0.2107,0.0,0.0,0.0,0.0,0.0,0.0,0.0,0.0,0.0,0.0,0.0,-0.2488,-0.2739,-0.3076,0.0,-0.3432,-0.3811,-0.3966,-0.3955,-0.4081,-0.409,-0.4014,-0.381,-0.3709,0.0,0.0,-0.323,-0.3072,0.0,-0.276,-0.263,0.0,0.0,0.0,-0.2259,0.0,0.0,0.0,-0.2114,-0.2114,0.0,0.0,0.0,0.0,0.0,0.0,0.0,0.0,0.0,0.0,0.0,0.0,0.0,0.0,0.0,0.0,0.0,-0.3079,-0.3375,-0.333,-0.3337,-0.3479,-0.3399,-0.345,-0.3632,-0.3666,-0.3716,-0.3785,-0.3785,-0.382,-0.3888,-0.3888,-0.3921,-0.3983,-0.4148,-0.4225,-0.4258,-0.4424,-0.448,-0.448,-0.448,-0.4704,-0.4931,-0.4931,-0.4931,-0.4931,-0.4931,-0.4931,-0.4931,-0.1748,0.0,0.0,0.0,0.0,0.0,0.0,0.0,0.0,-0.2224,-0.2345,-0.2509,-0.2667,-0.2682,-0.2726,-0.2783,-0.2712,-0.2645,0.0,0.0,0.0,-0.2452,-0.2261,-0.2108,-0.2064,-0.2022,-0.1979,-0.1926,0.0,0.0,0.0,0.0,0.0,0.0,0.0,0.0,0.0,0.0,0.0,-0.2536,0.0,-0.3074,-0.3308,-0.3567,-0.3674,-0.3627,-0.3659,-0.3705,-0.3728,-0.3633,0.0,-0.3498,-0.342,-0.3219,0.0,0.0,0.0,0.0,0.0,0.0,0.0,0.0,0.0,-0.1995,0.0,0.0,0.0,0.0,0.0,0.0,0.0,0.0,0.0,0.0,0.0,0.0,0.0,0.0,0.0,0.0,0.0,0.0,0.0,0.0,-0.2422,-0.2741,-0.2856,-0.2921,-0.2921,-0.2939,-0.2933,-0.2943,-0.3038,-0.309,-0.3148,-0.3148,-0.3178,-0.3235,-0.3235,-0.3264,-0.3425,-0.3644,-0.3789,-0.3905,-0.418,-0.43,-0.4313,-0.4313,-0.4313,-0.4313,-0.448,-0.448,-0.448,-0.448,-0.448,-0.448,-0.1591,-0.1614,0.0,0.0,0.0,0.0,0.0,0.0,0.0,-0.2272,-0.2465,0.0,0.0,0.0,0.0,0.0,0.0,0.0,-0.2433,0.0,0.0,-0.2318,-0.2305,-0.227,-0.2261,-0.2097,-0.1997,-0.1983,0.0,0.0,0.0,0.0,0.0,0.0,-0.1814,0.0,0.0,0.0,-0.1956,0.0,-0.2362,-0.2541,0.0,-0.3151,-0.3169,-0.3006,-0.3123,-0.313,-0.309,0.0,-0.2963,-0.2866,0.0,-0.269,0.0,0.0,0.0,0.0,0.0,0.0,0.0,0.0,-0.2021,0.0,0.0,0.0,0.0,0.0,0.0,0.0,0.0,0.0,0.0,0.0,0.0,0.0,0.0,0.0,0.0,0.0,0.0,0.0,0.0,0.0,0.0,-0.2199,-0.225,-0.2305,-0.2305,-0.2345,-0.2411,-0.2499,-0.2507,-0.2483,-0.2479,-0.248,-0.2554,-0.2601,-0.2601,-0.2784,-0.3047,-0.3101,-0.3291,-0.3562,-0.3616,-0.3647,-0.3699,-0.3699,-0.3699,-0.3755,-0.4313,-0.448,-0.448,-0.448,-0.448,-0.448,-0.1389,-0.1456,0.0,0.0,0.0,0.0,0.0,0.0,0.0,-0.2217,0.0,0.0,0.0,0.0,0.0,0.0,0.0,-0.2638,0.0,0.0,0.0,0.0,0.0,0.0,0.0,-0.1899,-0.1789,-0.171,-0.1645,0.0,0.0,0.0,0.0,0.0,-0.1682,0.0,-0.1868,0.0,0.0,0.0,0.0,0.0,0.0,-0.2903,-0.3006,-0.3016,-0.308,-0.3081,-0.3036,0.0,-0.2892,0.0,0.0,0.0,0.0,0.0,0.0,0.0,0.0,0.0,0.0,0.0,0.0,0.0,0.0,0.0,-0.1511,0.0,0.0,0.0,0.0,0.0,0.0,0.0,0.0,0.0,0.0,0.0,0.0,0.0,0.0,0.0,0.0,0.0,0.0,0.0,0.0,-0.2078,-0.2078,-0.2192,-0.2265,-0.2283,-0.2361,-0.2411,-0.2382,-0.2408,-0.2431,-0.245,-0.245,-0.2525,-0.2728,-0.2728,-0.2824,-0.2953,-0.2953,-0.3091,-0.3306,-0.3306,-0.3418,-0.3587,-0.3642,-0.381,-0.3977,-0.3977,-0.3977,-0.3977,-0.1162,0.0,0.0,0.0,0.0,0.0,0.0,0.0,0.0,0.0,0.0,0.0,-0.2376,-0.2525,0.0,0.0,0.0,-0.2713,0.0,0.0,-0.2442,0.0,0.0,0.0,0.0,0.0,-0.1692,-0.1546,0.0,0.0,0.0,0.0,0.0,0.0,0.0,-0.1676,-0.1678,0.0,0.0,-0.2026,-0.219,-0.2236,-0.2273,-0.2613,-0.2836,-0.2943,-0.2865,-0.2865,-0.2846,-0.2652,-0.2601,0.0,-0.245,0.0,0.0,0.0,0.0,0.0,-0.1834,0.0,0.0,0.0,0.0,0.0,0.0,0.0,0.0,0.0,0.0,0.0,0.0,0.0,0.0,0.0,0.0,0.0,0.0,0.0,0.0,0.0,0.0,0.0,0.0,0.0,0.0,0.0,-0.1747,-0.1799,-0.181,-0.1879,-0.1952,-0.1973,-0.2083,-0.2147,-0.2158,-0.2199,-0.217,-0.217,-0.217,-0.2237,-0.2369,-0.2369,-0.2468,-0.2607,-0.2607,-0.2749,-0.2971,-0.2971,-0.3139,-0.3309,-0.3083,-0.3139,-0.3365,-0.3365,-0.3365,-0.3363,-0.0902,-0.1013,0.0,0.0,0.0,0.0,0.0,0.0,0.0,0.0,0.0,0.0,0.0,0.0,0.0,0.0,0.0,-0.2567,-0.2506,0.0,-0.255,0.0,0.0,-0.2325,0.0,0.0,0.0,0.0,0.0,0.0,0.0,0.0,0.0,0.0,0.0,-0.1614,-0.1592,-0.1549,-0.1511,-0.1517,-0.1607,-0.1692,-0.185,0.0,-0.2456,-0.2511,-0.2314,0.0,0.0,-0.1908,-0.1787,0.0,0.0,0.0,0.0,0.0,0.0,0.0,0.0,0.0,0.0,-0.1394,0.0,0.0,0.0,0.0,-0.1291,0.0,0.0,0.0,0.0,0.0,0.0,0.0,0.0,0.0,0.0,0.0,0.0,0.0,0.0,0.0,0.0,0.0,0.0,-0.1122,-0.1181,-0.1266,-0.1335,-0.1317,-0.1377,-0.1433,-0.1495,-0.1541,-0.162,-0.1602,-0.1617,-0.1617,-0.1617,-0.1769,-0.2023,-0.2023,-0.2218,-0.2613,-0.2613,-0.2665,-0.2693,-0.2693,-0.2693,-0.275,-0.2693,-0.2693,-0.275,-0.275,-0.275,-0.275,0.0,0.0,0.0,0.0,0.0,0.0,0.0,-0.1534,0.0,0.0,0.0,0.0,0.0,0.0,-0.2136,0.0,0.0,-0.2231,-0.218,-0.2125,0.0,0.0,0.0,-0.1833,0.0,0.0,0.0,0.0,0.0,0.0,0.0,0.0,0.0,0.0,0.0,-0.1298,0.0,0.0,0.0,0.0,0.0,-0.1714,-0.1818,0.0,0.0,-0.2082,-0.2043,-0.2004,0.0,-0.1834,-0.1751,-0.1707,-0.1697,-0.1651,-0.1611,-0.1562,-0.1557,0.0,0.0,0.0,-0.1106,-0.0981,0.0,0.0,0.0,0.0,0.0,0.0,0.0,0.0,0.0,0.0,0.0,0.0,0.0,0.0,0.0,0.0,0.0,0.0,0.0,0.0,0.0,0.0,0.0,-0.1032,-0.1088,-0.1135,0.0,-0.1244,-0.1316,-0.1333,-0.139,-0.1443,-0.1541,-0.1571,-0.1597,-0.1617,-0.1617,-0.1667,-0.1718,-0.1718,-0.1855,-0.2024,-0.2024,-0.212,-0.2356,-0.2356,-0.2525,-0.2693,-0.2469,-0.2356,-0.2413,-0.2637,-0.2693,-0.2693,-0.0655,0.0,0.0,0.0,0.0,0.0,0.0,0.0,0.0,0.0,-0.1604,0.0,-0.1722,0.0,-0.1995,0.0,-0.2082,-0.2115,-0.2026,-0.1956,0.0,-0.1831,-0.1735,0.0,0.0,0.0,0.0,0.0,0.0,-0.117,0.0,0.0,0.0,0.0,0.0,0.0,0.0,0.0,-0.128,0.0,0.0,-0.1564,0.0,0.0,-0.1744,-0.1887,0.0,-0.1807,-0.1764,-0.1659,-0.1576,-0.1527,-0.1537,-0.149,-0.1412,-0.1412,-0.1412,-0.1373,-0.1184,-0.1016,0.0,-0.0664,-0.0533,0.0,-0.0402,0.0,0.0,0.0,0.0,0.0,0.0,0.0,0.0,0.0,0.0,0.0,0.0,-0.0405,0.0,0.0,0.0,0.0,0.0,0.0,-0.082,-0.082,-0.0866,-0.0906,0.0,0.0,-0.107,-0.108,-0.1137,-0.119,-0.1239,-0.1313,-0.1339,-0.1314,-0.1314,-0.1364,-0.1465,-0.1475,-0.1555,-0.1705,-0.1716,-0.1858,-0.2076,-0.2076,-0.2188,-0.2356,-0.2132,-0.2076,-0.2076,-0.23,-0.2413,-0.2525,0.0,0.0,0.0,0.0,-0.0924,0.0,0.0,0.0,-0.1123,0.0,-0.127,-0.1286,-0.1339,-0.16,-0.1773,-0.1857,-0.2016,0.0,-0.2028,-0.2028,0.0,0.0,-0.1797,-0.1715,-0.1589,0.0,0.0,0.0,0.0,0.0,0.0,0.0,0.0,0.0,-0.1145,0.0,-0.0993,-0.1112,-0.1116,-0.1007,-0.1156,-0.124,-0.1296,-0.1296,-0.1533,-0.1808,-0.165,-0.1572,-0.1572,-0.1375,-0.1255,-0.1168,-0.1203,-0.1125,-0.1078,-0.1076,-0.1076,-0.1043,-0.0843,-0.0776,-0.0737,-0.0554,0.0,0.0,0.0,0.0,-0.0371,0.0,0.0,0.0,0.0,0.0,0.0,0.0,0.0,0.0,0.0,0.0,0.0,0.0,0.0,0.0,0.0,-0.0453,-0.05,-0.05,-0.0498,0.0,0.0,0.0,-0.0618,-0.069,-0.0779,-0.0775,-0.0808,-0.0776,-0.0792,-0.0807,-0.0808,-0.0909,-0.1163,-0.1236,-0.1415,-0.1653,-0.1736,-0.1767,-0.1739,-0.1739,-0.1739,-0.1739,-0.1739,-0.1739,-0.1739,-0.1795,-0.1964,-0.2132,-0.0392,-0.0438,-0.0516,0.0,-0.0621,-0.063,0.0,0.0,0.0,0.0,-0.0831,-0.0872,-0.0894,-0.096,-0.0979,-0.0999,-0.1044,0.0,0.0,0.0,0.0,-0.1226,-0.1225,-0.1252,-0.1376,-0.1317,0.0,-0.1092,0.0,0.0,-0.0869,0.0,0.0,0.0,0.0,0.0,-0.0713,-0.0849,-0.1007,-0.1158,-0.119,-0.124,0.0,0.0,-0.1061,-0.1178,-0.1335,-0.1375,-0.1375,-0.1335,-0.1155,-0.0971,-0.099,-0.0819,-0.0656,-0.0644,-0.064,-0.064,-0.0607,-0.0506,-0.0404,-0.0367,-0.0233,-0.0133,0.0,0.0,0.0,0.0,0.0,0.0,0.0,0.0,0.0,0.0,0.0,0.0,0.0,0.0,0.0,-0.0099,0.0,0.0,0.0,-0.0415,-0.0426,-0.0426,-0.0472,0.0,0.0,0.0,0.0,-0.0712,-0.0709,-0.0743,-0.082,-0.0803,-0.0776,-0.0791,-0.0803,-0.0859,-0.091,-0.0927,-0.0997,-0.1121,-0.1139,-0.1104,-0.1121,-0.1121,-0.1121,-0.1121,-0.1121,-0.1121,-0.1177,-0.1627,-0.1851,-0.1907,0.0033,0.0,0.0,0.0035,0.0,0.0,-0.047,0.0,0.0,-0.0655,-0.0686,0.0,-0.0735,-0.0751,-0.0766,-0.0732,-0.0728,0.0,0.0,0.0,0.0,-0.0864,-0.0882,-0.0929,-0.0999,-0.0961,0.0,-0.079,0.0,0.0,-0.0619,0.0,0.0,0.0,0.0,-0.0504,0.0,-0.0615,-0.0759,-0.0948,-0.0948,0.0,0.0,-0.0825,-0.0786,-0.0786,-0.0943,-0.0982,-0.0982,-0.0982,-0.0889,-0.0754,-0.0771,-0.0644,-0.0488,-0.051,-0.0506,-0.0472,-0.0438,-0.0303,-0.0135,-0.0068,0.0103,0.0275,0.0278,0.0276,0.0272,0.0,0.0,0.0,0.0,0.0,0.0,0.0,0.0,0.0,0.0,0.0,0.0,0.0,0.0,0.0,0.0,0.0,0.0,0.0,0.0,0.0,0.0,0.0,0.0,-0.0386,-0.0405,-0.0426,-0.0448,-0.0467,-0.0433,-0.0442,-0.045,-0.0505,-0.0607,-0.0623,-0.074,-0.0908,-0.0875,-0.0889,-0.0897,-0.0897,-0.0897,-0.0897,-0.0897,-0.0897,-0.0953,-0.129,-0.1402,-0.1402,0.0,0.0,0.0,0.0,0.0,0.0,0.0,-0.04,0.0,-0.0477,0.0,-0.0551,-0.062,-0.0632,-0.0643,-0.0706,0.0,-0.069,-0.069,-0.0629,-0.0617,-0.0653,-0.0638,-0.0657,-0.0619,-0.0601,0.0,0.0,0.0,0.0,0.0,0.0,0.0,0.0,0.0,0.0,0.0,-0.0442,-0.0528,0.0,-0.0583,-0.0601,-0.0589,-0.0589,-0.055,-0.055,-0.055,-0.055,-0.0589,-0.0589,-0.0581,-0.0568,-0.0554,-0.0505,-0.0423,-0.0446,-0.0409,-0.0375,-0.0238,-0.0068,0.0137,0.028,0.0458,0.0602,0.0616,0.0583,0.0616,0.0602,0.0599,0.059,0.0,0.0,0.0,0.0,0.0,0.0,0.0,0.0,0.0,0.0,0.0,0.0,0.0,0.0,0.0,0.0,0.0,0.0,0.0,0.0,0.0,0.0075,0.0079,0.0,0.0089,0.0,0.0096,0.0098,0.01,-0.0051,-0.0303,-0.0314,-0.0479,-0.0802,-0.0772,-0.0784,-0.0785,-0.0785,-0.0785,-0.0785,-0.0785,-0.0785,-0.0785,-0.0785,-0.0785,-0.0785,0.0,0.0,0.0,0.0,0.0,0.0732,0.0569,0.057,0.0572,0.0535,0.0553,0.0428,0.0195,0.0196,0.0099,-0.0101,-0.0151,0.0,0.0,0.0,0.0,-0.0437,-0.0469,-0.0545,-0.0662,-0.0626,-0.0584,0.0,0.0,0.0,0.0,0.0,0.0,0.0,0.0,0.0,-0.0329,-0.0337,0.0,-0.0583,-0.0583,-0.0601,-0.0589,-0.0432,-0.0353,-0.0314,-0.0157,-0.0314,-0.0589,-0.0589,-0.0509,-0.035,-0.0341,-0.0225,-0.0074,-0.0072,0.0036,0.018,0.018,0.036,0.0504,0.0542,0.0579,0.0616,0.0583,0.0583,0.0582,0.0616,0.0615,0.061,0.0591,0.0,0.0,0.0,0.0,0.0,0.0,0.0,0.0,0.0,0.0,0.0,0.0,0.0,0.0,0.0,0.0,0.0,0.0,0.0,0.0,0.0,0.0,0.0,0.0,0.0,0.0669,0.0671,0.0646,0.0505,0.0253,0.0258,0.0105,-0.016,-0.0163,-0.0166,-0.0168,-0.0168,-0.0168,-0.0168,-0.0168,-0.0168,-0.0168,-0.0168,-0.0168,-0.0224,0.0,0.0,0.0,0.0,0.0,0.0,0.0,0.1215,0.0,0.0835,0.0808,0.0729,0.0638,0.0594,0.055,0.0404,0.0404,0.0404,0.0404,0.0401,0.0347,0.0246,0.0239,0.0,0.009,0.0085,0.0081,0.0114,0.0,0.0,0.0,0.0,0.0,0.0,0.0,0.0141,0.0,0.0,0.0,-0.0146,-0.0259,-0.0304,-0.0275,-0.0196,-0.0079,0.0039,0.0118,0.0118,0.0,-0.0236,-0.0236,-0.0117,-0.0038,0.0076,0.0188,0.0294,0.0364,0.0474,0.0474,0.0619,0.0768,0.0741,0.0818,0.0933,0.0945,0.0948,0.0944,0.0932,0.0929,0.0922,0.0898,0.0856,0.0,0.0,0.0,0.0,0.0,0.0,0.0,0.0,0.0,0.0,0.0,0.0,0.0,0.0,0.0,0.0,0.0,0.0,0.0,0.0,0.0,0.0,0.0,0.0,0.0,0.0811,0.0794,0.0758,0.0606,0.0618,0.0577,0.0481,0.0489,0.0442,0.0449,0.0449,0.0336,0.0224,0.0224,0.0112,0.0,0.0,0.0,-0.0056,0.0,0.1568,0.0,0.0,0.1664,0.0,0.1675,0.1756,0.157,0.1058,0.0976,0.0939,0.0889,0.0901,0.0859,0.0808,0.0808,0.0808,0.0808,0.0808,0.0803,0.0791,0.0824,0.0802,0.0819,0.0742,0.0708,0.0,0.0,0.0,0.0,0.0,0.0,0.0,0.0,0.0,0.0,0.0,0.0349,0.0368,0.0188,0.0115,0.0118,0.0118,0.0236,0.0353,0.0353,0.0471,0.055,0.0236,0.0118,0.0157,0.0307,0.0382,0.038,0.0559,0.063,0.0667,0.0667,0.0815,0.0968,0.0987,0.1145,0.1304,0.1369,0.1415,0.1407,0.1341,0.1331,0.1317,0.1328,0.1273,0.0,0.0,0.0,0.0,0.0,0.0,0.0,0.0,0.0,0.0,0.0,0.0,0.0,0.0,0.0,0.0,0.0,0.0,0.0,0.0,0.0,0.0764,0.0842,0.0,0.0954,0.0,0.0943,0.096,0.091,0.0872,0.0888,0.0908,0.0919,0.088,0.0897,0.0897,0.0729,0.0505,0.0505,0.0393,0.0168,0.0168,0.0168,0.0168,0.0,0.0,0.0,0.0,0.0,0.0,0.0,0.2336,0.215,0.157,0.1544,0.1411,0.1209,0.1161,0.1061,0.0808,0.0808,0.0808,0.0808,0.0808,0.0808,0.0806,0.0791,0.0824,0.0807,0.0774,0.0778,0.0,0.0,0.0,0.0,0.0,0.0,0.0,0.0,0.0,0.0,0.0572,0.0564,0.0566,0.0567,0.0538,0.055,0.055,0.055,0.0589,0.0589,0.0589,0.0589,0.055,0.055,0.055,0.0548,0.0587,0.0587,0.0585,0.0741,0.0858,0.0858,0.1054,0.1249,0.1252,0.1409,0.1568,0.1571,0.1729,0.1847,0.1842,0.177,0.1742,0.1737,0.1735,0.1738,0.0,0.0,0.0,0.0,0.0,0.0,0.0,0.0,0.0,0.0,0.0,0.0,0.0,0.0,0.0,0.0,0.0,0.0,0.1044,0.0,0.1246,0.1263,0.1375,0.0,0.1431,0.1488,0.1415,0.1162,0.1164,0.1084,0.0907,0.0908,0.0926,0.0897,0.0897,0.0897,0.0841,0.0841,0.0841,0.0841,0.0841,0.0841,0.0841,0.0,0.0,0.0,0.0,0.0,0.0,0.0,0.2409,0.2314,0.2098,0.206,0.2019,0.1918,0.1918,0.1867,0.1766,0.1766,0.1766,0.1766,0.1766,0.1766,0.1766,0.1784,0.1751,0.1718,0.165,0.1575,0.0,0.0,0.0,0.0,0.0,0.0,0.0,0.0,0.0954,0.0899,0.0822,0.0774,0.0758,0.0654,0.0584,0.0589,0.0589,0.0668,0.0786,0.0786,0.0864,0.1021,0.1021,0.0825,0.0628,0.0746,0.0786,0.0825,0.0982,0.1061,0.1139,0.1139,0.1296,0.1493,0.1493,0.165,0.1768,0.1768,0.1848,0.1887,0.1887,0.1872,0.1859,0.1859,0.1823,0.1791,0.0,0.0,0.0,0.0,0.0,0.0,0.0,0.0,0.0,0.0,0.0,0.0,0.0,0.0,0.0,0.0,0.0,0.0,0.1445,0.0,0.1688,0.1724,0.1878,0.2004,0.2005,0.2033,0.2019,0.1918,0.1768,0.1546,0.1387,0.1417,0.1441,0.1458,0.1458,0.1346,0.1121,0.1121,0.1065,0.0897,0.0897,0.0897,0.0897,0.2591,0.0,0.2648,0.0,0.2695,0.2713,0.2748,0.2797,0.2792,0.2777,0.2775,0.2674,0.2422,0.2422,0.2422,0.2422,0.2422,0.2422,0.2422,0.2422,0.2422,0.2422,0.239,0.0,0.2292,0.2274,0.2142,0.2037,0.1948,0.0,0.0,0.0,0.0,0.0,0.1435,0.14,0.1294,0.1194,0.1179,0.1189,0.0975,0.0904,0.0904,0.0825,0.0904,0.1021,0.1021,0.1139,0.1296,0.1296,0.11,0.0904,0.0982,0.1021,0.1061,0.1296,0.1375,0.1415,0.1454,0.1572,0.169,0.169,0.1847,0.2003,0.2003,0.2043,0.2082,0.2082,0.2082,0.2082,0.2082,0.2053,0.199,0.199,0.0,0.0,0.0,0.0,0.0,0.0,0.0,0.1727,0.1693,0.0,0.0,0.0,0.0,0.0,0.0,0.0,0.0,0.0,0.0,0.0,0.0,0.2199,0.2291,0.2292,0.238,0.2422,0.2372,0.2247,0.2082,0.1975,0.2045,0.2076,0.2076,0.1964,0.1795,0.157,0.1458,0.1346,0.1177,0.1177,0.1177,0.1177,0.3255,0.3267,0.3286,0.3398,0.341,0.3441,0.3637,0.3678,0.3655,0.3594,0.3586,0.3281,0.2472,0.2422,0.2422,0.2422,0.2422,0.2422,0.2422,0.2422,0.2422,0.0,0.0,0.238,0.2293,0.229,0.2221,0.2085,0.0,0.0,0.1883,0.0,0.1785,0.1784,0.1785,0.1811,0.1779,0.178,0.1845,0.1886,0.165,0.1572,0.1572,0.1375,0.1296,0.1296,0.1296,0.1296,0.1296,0.1296,0.1415,0.1572,0.1375,0.1296,0.1335,0.1533,0.1611,0.165,0.1848,0.1887,0.1887,0.1887,0.2042,0.2196,0.2196,0.2353,0.2511,0.2511,0.2511,0.2511,0.2511,0.251,0.251,0.251,0.0,0.0,0.0,0.0,0.0,0.0,0.2136,0.2095,0.2095,0.0,0.0,0.0,0.0,0.0,0.0,0.0,0.0,0.1715,0.1895,0.0,0.2017,0.2199,0.2291,0.2292,0.238,0.2422,0.2425,0.2515,0.261,0.2616,0.2654,0.2693,0.2637,0.2356,0.2188,0.2188,0.1907,0.1795,0.1795,0.1795,0.1795,0.1795,0.3957,0.3962,0.397,0.3992,0.3995,0.4024,0.4055,0.4043,0.4017,0.3893,0.3883,0.3783,0.353,0.3177,0.2927,0.0,0.2927,0.2927,0.0,0.2927,0.2927,0.2927,0.2927,0.2975,0.3053,0.305,0.3054,0.3039,0.0,0.0,0.0,0.2673,0.2495,0.2264,0.2186,0.2071,0.1995,0.1995,0.2003,0.2014,0.1902,0.189,0.1847,0.1739,0.169,0.169,0.169,0.169,0.169,0.169,0.1768,0.1807,0.1729,0.169,0.1729,0.1768,0.1808,0.1808,0.1887,0.2004,0.2119,0.2119,0.2276,0.2392,0.2392,0.247,0.255,0.2668,0.2707,0.2746,0.2865,0.2904,0.2904,0.2904,0.2904,0.0,0.0,0.0,0.0,0.0,0.0,0.25,0.0,0.2471,0.0,0.0,0.0,0.0,0.0,0.0,0.0,0.0,0.234,0.0,0.2594,0.2786,0.2831,0.287,0.2893,0.2826,0.2676,0.2742,0.2739,0.2614,0.2621,0.2665,0.2693,0.2581,0.2525,0.2525,0.2469,0.2413,0.2413,0.2413,0.2413,0.2413,0.4352,0.4357,0.4366,0.4393,0.4397,0.4362,0.436,0.4396,0.4307,0.4149,0.4135,0.4135,0.4033,0.3682,0.0,0.3481,0.3481,0.3481,0.3481,0.3481,0.3481,0.3481,0.3457,0.3494,0.3529,0.0,0.0,0.3517,0.3531,0.343,0.3264,0.319,0.3022,0.282,0.274,0.2654,0.2564,0.2481,0.2439,0.2436,0.2235,0.2129,0.2109,0.2001,0.194,0.1887,0.1887,0.1887,0.1887,0.1887,0.1964,0.2003,0.2003,0.2081,0.212,0.2042,0.2003,0.2042,0.212,0.2198,0.2314,0.2314,0.247,0.2628,0.2707,0.2707,0.2747,0.2904,0.2904,0.2943,0.3062,0.3102,0.3102,0.3102,0.3102,0.3076,0.2999,0.0,0.0,0.0,0.0,0.0,0.0,0.2763,0.0,0.0,0.0,0.0,0.0,0.0,0.0,0.2506,0.2614,0.0,0.2918,0.3037,0.3129,0.3238,0.34,0.343,0.323,0.3343,0.3299,0.3253,0.3256,0.3203,0.3198,0.3085,0.2973,0.2861,0.275,0.2693,0.2693,0.2693,0.2693,0.2693,0.4477,0.4493,0.0,0.0,0.4648,0.0,0.4767,0.479,0.4729,0.4517,0.4493,0.4386,0.4133,0.4133,0.4133,0.4133,0.0,0.0,0.0,0.3982,0.3982,0.3982,0.3961,0.3886,0.3815,0.374,0.3709,0.3631,0.3603,0.3528,0.3453,0.3458,0.3416,0.3409,0.3416,0.3418,0.3418,0.3168,0.3043,0.3001,0.2615,0.2456,0.2367,0.2156,0.2046,0.197,0.1965,0.1925,0.1925,0.1964,0.2081,0.2235,0.2275,0.2392,0.2511,0.2314,0.2235,0.2275,0.247,0.255,0.255,0.255,0.2668,0.2865,0.3062,0.3102,0.3103,0.3147,0.3147,0.3149,0.3154,0.3151,0.3147,0.3147,0.3144,0.3113,0.3039,0.0,0.0,0.0,0.0,0.0,0.0,0.2949,0.3034,0.0,0.0,0.0,0.0,0.0,0.2568,0.2568,0.274,0.2908,0.2976,0.3092,0.3278,0.3541,0.3851,0.3982,0.3986,0.406,0.4189,0.4319,0.4287,0.4195,0.4036,0.3755,0.3474,0.3194,0.2917,0.2806,0.2806,0.2806,0.2806,0.2806,0.0,0.0,0.5855,0.5877,0.5882,0.5839,0.5771,0.5739,0.5645,0.5469,0.5385,0.5286,0.5236,0.5236,0.5236,0.5236,0.4483,0.3982,0.3982,0.3982,0.3982,0.3982,0.3961,0.3981,0.4096,0.3968,0.3979,0.4121,0.4099,0.4092,0.4011,0.3858,0.3767,0.3709,0.3596,0.3532,0.3534,0.349,0.3447,0.3441,0.3298,0.3221,0.3195,0.2883,0.2756,0.2697,0.245,0.2354,0.2393,0.2552,0.2628,0.2668,0.2826,0.2904,0.2904,0.2707,0.2668,0.2707,0.2904,0.2943,0.2943,0.2943,0.2982,0.3023,0.3102,0.3102,0.3156,0.3412,0.3465,0.3524,0.3753,0.3751,0.3708,0.3708,0.3651,0.3577,0.3489,0.346,0.0,0.0,0.3323,0.3323,0.3323,0.3397,0.3511,0.0,0.0,0.0,0.0,0.3364,0.3267,0.3267,0.3372,0.349,0.3573,0.3657,0.3785,0.3907,0.3974,0.3982,0.3986,0.4113,0.4241,0.4319,0.4341,0.4361,0.4369,0.4313,0.4255,0.4145,0.4089,0.4089,0.4089,0.4089,0.4089,0.4089,0.6047,0.6161,0.6274,0.6274,0.6274,0.6239,0.6132,0.6065,0.5972,0.5817,0.5746,0.5689,0.5591,0.5586,0.5586,0.5586,0.4935,0.4535,0.4535,0.4435,0.4418,0.448,0.4395,0.4452,0.4601,0.4508,0.4527,0.461,0.461,0.4585,0.4581,0.4457,0.4364,0.436,0.419,0.4123,0.408,0.3857,0.3723,0.3719,0.3587,0.3549,0.3464,0.33,0.3208,0.3172,0.2969,0.2915,0.2915,0.3037,0.3078,0.3078,0.3201,0.3241,0.3241,0.3201,0.3072,0.2943,0.3062,0.3102,0.3141,0.3256,0.3322,0.3349,0.343,0.35,0.3579,0.3745,0.3876,0.4014,0.4149,0.4205,0.4221,0.4221,0.4139,0.4001,0.3753,0.3741,0.0,0.3511,0.3534,0.3575,0.3616,0.3699,0.3789,0.3881,0.0,0.0,0.3921,0.3841,0.3736,0.3518,0.3582,0.3696,0.3813,0.4016,0.4143,0.4185,0.4284,0.4403,0.4442,0.454,0.4628,0.469,0.4736,0.4744,0.4704,0.4704,0.4592,0.448,0.448,0.448,0.448,0.448,0.448,0.448,0.6383,0.6386,0.6439,0.6439,0.6439,0.641,0.6317,0.6288,0.6258,0.6105,0.6063,0.6011,0.5799,0.5787,0.5787,0.5734,0.5489,0.529,0.524,0.5035,0.4995,0.5147,0.5047,0.4993,0.5078,0.502,0.501,0.501,0.501,0.501,0.501,0.501,0.501,0.501,0.4837,0.4748,0.4703,0.4259,0.408,0.4036,0.3855,0.3724,0.3664,0.3608,0.3519,0.346,0.3406,0.3402,0.3402,0.3444,0.3444,0.3444,0.3486,0.3486,0.3528,0.3739,0.3559,0.3292,0.3252,0.3254,0.3292,0.3527,0.362,0.3714,0.3918,0.402,0.408,0.4137,0.4307,0.4475,0.4489,0.4578,0.4627,0.4611,0.4517,0.4334,0.4004,0.0,0.3885,0.3659,0.3689,0.3812,0.3892,0.3987,0.4039,0.4135,0.4141,0.4187,0.0,0.4301,0.4087,0.3699,0.3786,0.3852,0.3941,0.4268,0.4487,0.4539,0.4736,0.4934,0.5126,0.5141,0.5242,0.5354,0.5368,0.5253,0.5096,0.5096,0.4985,0.476,0.476,0.476,0.476,0.476,0.476,0.476,0.6659,0.6879,0.7046,0.7046,0.7046,0.7152,0.7357,0.7264,0.7254,0.732,0.7257,0.7085,0.6656,0.6592,0.6542,0.6287,0.6039,0.5792,0.5536,0.5486,0.5442,0.5445,0.5291,0.5183,0.5124,0.502,0.501,0.501,0.501,0.501,0.501,0.501,0.501,0.501,0.4966,0.4966,0.4966,0.4877,0.4832,0.4832,0.4614,0.4516,0.445,0.4023,0.3815,0.3795,0.3509,0.3402,0.3444,0.3613,0.3655,0.3697,0.3867,0.3909,0.395,0.4197,0.4259,0.4155,0.391,0.3869,0.3869,0.391,0.392,0.4014,0.4259,0.4312,0.4431,0.4689,0.4796,0.482,0.4902,0.488,0.4827,0.4694,0.463,0.4522,0.4336,0.0,0.4315,0.4262,0.4351,0.4461,0.4478,0.4533,0.4639,0.4744,0.4751,0.4747,0.4708,0.4717,0.4616,0.4414,0.4442,0.4534,0.4642,0.4722,0.4836,0.5092,0.514,0.5342,0.5695,0.5784,0.5892,0.5957,0.61,0.6091,0.6107,0.6107,0.6051,0.5993,0.5993,0.5993,0.5993,0.5993,0.5993,0.5993,0.699,0.7213,0.7438,0.7438,0.7546,0.7657,0.7771,0.7773,0.7741,0.777,0.7638,0.7452,0.7214,0.7083,0.6989,0.6836,0.6739,0.6539,0.6239,0.5837,0.5617,0.5605,0.5548,0.5489,0.5408,0.5399,0.5371,0.5371,0.5371,0.5371,0.5371,0.5371,0.5371,0.5371,0.528,0.5235,0.5191,0.5055,0.501,0.501,0.4877,0.4879,0.483,0.4606,0.4502,0.4452,0.4191,0.409,0.409,0.4047,0.4004,0.4047,0.4309,0.4398,0.4439,0.4651,0.4659,0.4534,0.4411,0.4369,0.4369,0.4369,0.4451,0.4534,0.4659,0.4701,0.4749,0.4932,0.5076,0.5178,0.5225,0.5236,0.5188,0.5137,0.5074,0.0,0.0,0.4718,0.4693,0.4517,0.4606,0.4692,0.4752,0.4803,0.4832,0.4934,0.5041,0.5025,0.503,0.5088,0.5119,0.5076,0.4934,0.4899,0.5037,0.5135,0.5286,0.5438,0.5493,0.5677,0.5886,0.5991,0.6101,0.6203,0.6253,0.6274,0.6274,0.6274,0.6274,0.6274,0.6274,0.6274,0.6274,0.6274,0.6274,0.6274,0.7376,0.7549,0.7718,0.7718,0.7878,0.8045,0.81,0.81,0.8106,0.8078,0.7971,0.7787,0.7615,0.7449,0.7322,0.7191,0.7188,0.7089,0.6892,0.6337,0.595,0.5854,0.5795,0.5719,0.5694,0.5777,0.5777,0.5777,0.5819,0.5863,0.5863,0.5863,0.5819,0.5777,0.5641,0.5508,0.5463,0.5235,0.5146,0.5146,0.5099,0.5099,0.5099,0.501,0.501,0.4966,0.4837,0.4748,0.4748,0.4523,0.4476,0.4478,0.4703,0.4748,0.4792,0.5013,0.5029,0.4902,0.4817,0.4775,0.4775,0.4775,0.4834,0.494,0.4986,0.5046,0.5099,0.5146,0.5327,0.5463,0.5463,0.5522,0.554,0.551,0.0,0.0,0.0,0.5103,0.5082,0.4834,0.4841,0.4942,0.5026,0.5058,0.5114,0.5218,0.5304,0.5376,0.5379,0.5464,0.5511,0.552,0.5324,0.5262,0.5288,0.5486,0.5636,0.5689,0.5848,0.6009,0.6172,0.6283,0.6391,0.6495,0.6495,0.6495,0.6495,0.6495,0.6495,0.6495,0.6495,0.6495,0.6495,0.6495,0.655,0.6609,0.7878,0.7934,0.7989,0.7989,0.7989,0.81,0.8429,0.8484,0.8488,0.8622,0.8649,0.8425,0.793,0.784,0.768,0.725,0.7188,0.7188,0.7188,0.7138,0.6828,0.6263,0.6037,0.5812,0.5691,0.5952,0.6083,0.6083,0.6257,0.634,0.634,0.634,0.6257,0.6083,0.6038,0.5908,0.5688,0.5644,0.5644,0.5644,0.546,0.5371,0.5327,0.5099,0.501,0.501,0.4966,0.4966,0.4966,0.4966,0.4966,0.4966,0.4966,0.4966,0.501,0.528,0.5494,0.5528,0.5078,0.4987,0.4987,0.4987,0.4991,0.5043,0.5314,0.5366,0.5416,0.5599,0.5644,0.5688,0.5688,0.5683,0.564,0.5526,0.0,0.0,0.5374,0.5363,0.5366,0.5358,0.5421,0.5454,0.5464,0.5566,0.5679,0.5834,0.5853,0.5859,0.5835,0.5856,0.5762,0.562,0.5575,0.5577,0.5586,0.5584,0.5737,0.5992,0.6106,0.6375,0.6754,0.6875,0.6994,0.7154,0.7154,0.7154,0.7154,0.7154,0.7154,0.7154,0.7154,0.7154,0.7154,0.7154,0.7268,0.7496,0.7989,0.8156,0.8318,0.8318,0.8436,0.8602,0.8712,0.8933,0.9078,0.9133,0.9201,0.9197,0.8969,0.8784,0.8493,0.8184,0.8039,0.7786,0.749,0.7444,0.723,0.68,0.6626,0.647,0.634,0.6427,0.643,0.6302,0.6343,0.6384,0.6384,0.6384,0.6343,0.6302,0.6302,0.6213,0.6124,0.6124,0.6124,0.6124,0.6035,0.5947,0.5816,0.5725,0.5591,0.5416,0.528,0.5235,0.5235,0.5055,0.501,0.501,0.5191,0.5235,0.528,0.5508,0.5644,0.5644,0.5463,0.5416,0.5416,0.5416,0.5416,0.5463,0.5552,0.5597,0.5599,0.5688,0.5745,0.5839,0.5839,0.5839,0.5822,0.5776,0.0,0.5578,0.5456,0.5548,0.5567,0.5491,0.5548,0.5648,0.5763,0.5812,0.5888,0.6007,0.6086,0.617,0.6163,0.6183,0.6192,0.6084,0.6239,0.6189,0.5839,0.6037,0.6173,0.6401,0.6673,0.6954,0.7183,0.7474,0.7668,0.7712,0.7712,0.7712,0.7712,0.7712,0.7712,0.7712,0.7712,0.7712,0.7712,0.7712,0.7768,0.7826,0.8269,0.8543,0.8764,0.8764,0.8989,0.9158,0.9158,0.9379,0.9544,0.9544,0.9607,0.9622,0.9624,0.9321,0.9087,0.8831,0.8625,0.8382,0.7988,0.7892,0.7625,0.7136,0.6999,0.6888,0.6753,0.6839,0.6789,0.6647,0.6697,0.6719,0.6719,0.6627,0.6564,0.652,0.652,0.6476,0.6384,0.6384,0.6384,0.6384,0.6384,0.6299,0.6213,0.6213,0.6083,0.5908,0.5683,0.5638,0.5594,0.5324,0.5235,0.5235,0.5416,0.5508,0.5552,0.5774,0.5822,0.5819,0.5908,0.5981,0.5958,0.5744,0.5688,0.5699,0.5734,0.5742,0.5798,0.5836,0.5907,0.5961,0.5961,0.5961,0.5961,0.5961,0.5896,0.5814,0.5686,0.5748,0.5812,0.5683,0.5748,0.5874,0.5953,0.6051,0.615,0.6275,0.6461,0.6574,0.6565,0.6644,0.6637,0.6637,0.6839,0.6762,0.6499,0.6648,0.6791,0.6878,0.7252,0.7484,0.7579,0.7874,0.7989,0.7989,0.7989,0.7989,0.7989,0.7989,0.7989,0.7989,0.7989,0.7989,0.7989,0.7989,0.8045,0.8156,0.8826,0.9158,0.9379,0.9379,0.9596,0.9816,0.9816,0.9816,0.9816,0.9816,0.9816,0.9753,0.9639,0.9425,0.9265,0.9097,0.8926,0.8825,0.8825,0.8528,0.8016,0.714,0.7133,0.7023,0.6894,0.7123,0.7214,0.7211,0.7352,0.7419,0.7415,0.7217,0.7013,0.6795,0.6795,0.6659,0.6384,0.6384,0.6384,0.6384,0.6384,0.6384,0.6384,0.6384,0.6384,0.6387,0.6171,0.6083,0.6083,0.5777,0.5688,0.5688,0.5691,0.5691,0.578,0.6044,0.6086,0.613,0.6346,0.6532,0.6563,0.5852,0.5691,0.5765,0.588,0.5904,0.5939,0.6062,0.6086,0.6086,0.6086,0.6086,0.6086,0.6086,0.6086,0.6086,0.6086,0.6086,0.6086,0.6086,0.6086,0.6086,0.6086,0.6367,0.656,0.6691,0.694,0.7143,0.7179,0.7188,0.7188,0.7188,0.7191,0.7305,0.7497,0.7497,0.7497,0.7503,0.7771,0.7897,0.7903,0.7984,0.7989,0.7989,0.7989,0.7989,0.7989,0.7989,0.7989,0.7989,0.7989,0.7989,0.7989,0.7989,0.8211,0.8484,0.9485,0.9596,0.9706,0.9706,0.9761,0.9816,0.9816,0.9981,1.0147,1.0147,1.0308,1.0398,1.0401,1.0188,0.9959,0.9738,0.9469,0.9149,0.8832,0.8726,0.8555,0.8308,0.7917,0.7654,0.751,0.7603,0.7553,0.7503,0.7506,0.7533,0.7533,0.7485,0.7361,0.7215,0.7215,0.7107,0.6874,0.6874,0.6874,0.6874,0.6874,0.6789,0.6704,0.6704,0.6567,0.6384,0.6343,0.6299,0.6299,0.621,0.6213,0.6231,0.637,0.6462,0.654,0.6629,0.6675,0.6675,0.6722,0.6796,0.6749,0.6478,0.6468,0.6548,0.6587,0.6593,0.6605,0.6646,0.6724,0.6783,0.6783,0.6783,0.6783,0.6783,0.6712,0.6652,0.6652,0.6652,0.6652,0.6652,0.6652,0.6688,0.6777,0.6879,0.6934,0.702,0.7128,0.7195,0.7185,0.733,0.7433,0.7433,0.7679,0.7855,0.79,0.7646,0.7589,0.7777,0.8078,0.8221,0.8313,0.8527,0.866,0.866,0.866,0.866,0.866,0.866,0.8768,0.8989,0.8989,0.9099,0.9261,0.9261,0.9316,0.9427,0.9761,0.9926,1.0036,1.0147,1.0253,1.0363,1.0472,1.0692,1.0802,1.0802,1.0966,1.1076,1.1076,1.0862,1.07,1.0531,1.0203,0.9843,0.9584,0.9363,0.9221,0.9126,0.8684,0.8389,0.8192,0.8192,0.8146,0.8058,0.7999,0.7926,0.7831,0.7766,0.7643,0.7461,0.7461,0.7377,0.7231,0.7231,0.7152,0.7095,0.7095,0.701,0.6925,0.6925,0.6833,0.6653,0.6564,0.6602,0.6604,0.6556,0.6548,0.6609,0.674,0.6823,0.6935,0.6982,0.7029,0.7029,0.7127,0.7212,0.7231,0.7145,0.7007,0.6903,0.6956,0.6965,0.698,0.7036,0.7061,0.7162,0.7162,0.7162,0.7162,0.7162,0.7049,0.7,0.7,0.7,0.7,0.7,0.7,0.703,0.7156,0.7214,0.735,0.7481,0.7591,0.7623,0.7623,0.7808,0.7885,0.7885,0.8125,0.8305,0.8362,0.8223,0.8213,0.8221,0.8448,0.8575,0.8657,0.8992,0.9103,0.9103,0.9213,0.9268,0.9268,0.9268,0.9379,0.9544,0.9544,0.9651,0.9816,0.9816,0.9816,0.9816,0.9964,1.0248,1.052,1.0796,1.1,1.1266,1.1595,1.1636,1.1623,1.1623,1.1623,1.1623,1.1623,1.1419,1.1313,1.1313,1.098,1.0755,1.0738,1.03,0.9945,0.9702,0.9438,0.9179,0.8973,0.8874,0.8825,0.8825,0.8683,0.8467,0.8274,0.8127,0.7911,0.7668,0.7668,0.7626,0.7482,0.7482,0.7399,0.7224,0.7211,0.7207,0.7207,0.7207,0.7207,0.7163,0.7002,0.7008,0.7076,0.6841,0.6886,0.7004,0.7004,0.701,0.702,0.7206,0.725,0.7348,0.7591,0.7781,0.788,0.788,0.7493,0.7098,0.7172,0.7197,0.7186,0.7263,0.7288,0.7288,0.7288,0.7288,0.7288,0.7288,0.7288,0.7288,0.7288,0.7288,0.7288,0.7288,0.7288,0.7288,0.7288,0.7494,0.7799,0.8058,0.8241,0.8378,0.8392,0.8529,0.8608,0.8608,0.8618,0.8697,0.8784,0.9108,0.9108,0.8787,0.8927,0.8992,0.8992,0.9323,0.9434,0.9434,0.9706,0.9816,0.9816,0.9816,0.9816,0.9871,0.9871,0.9871,0.9923,0.9923,0.9926,0.9978,1.1139,1.1338,1.1509,1.1793,1.179,1.1745,1.1801,1.1724,1.1623,1.1623,1.1623,1.1623,1.1623,1.1588,1.1507,1.1507,1.1296,1.1098,1.094,1.07,1.0495,1.0444,1.0248,1.0117,1.0064,0.9221,0.8825,0.8825,0.8791,0.8723,0.8674,0.8641,0.8556,0.8394,0.8394,0.8303,0.8195,0.8195,0.8173,0.8083,0.7962,0.7869,0.7869,0.7869,0.7869,0.7884,0.8007,0.7937,0.7733,0.7503,0.7503,0.7619,0.7619,0.7702,0.7746,0.7796,0.7845,0.7894,0.8136,0.8259,0.8333,0.8526,0.8501,0.829,0.7882,0.7793,0.7799,0.7832,0.7839,0.7839,0.7839,0.7839,0.7839,0.7839,0.7839,0.7839,0.7839,0.7839,0.7839,0.7839,0.7839,0.7839,0.7839,0.8084,0.8335,0.8512,0.8805,0.8984,0.9168,0.9266,0.935,0.935,0.9475,0.9508,0.9541,0.9654,0.9545,0.9274,0.9471,0.9596,0.9596,0.9706,0.9706,0.9706,0.9761,0.9816,0.9816,0.9816,0.9981,1.0202,1.0202,1.0472,1.0802,1.0802,1.0966,1.1185,1.184,1.1914,1.2029,1.2316,1.2293,1.2282,1.2456,1.2361,1.226,1.2169,1.2156,1.2119,1.2014,1.2114,1.2278,1.2387,1.2252,1.2082,1.1968,1.1672,1.1365,1.1162,1.0856,1.0609,1.0413,0.9867,0.9517,0.9369,0.9369,0.9225,0.8981,0.8981,0.8886,0.8702,0.8702,0.8612,0.8507,0.8507,0.8462,0.838,0.8297,0.8264,0.8264,0.8264,0.8264,0.8275,0.8357,0.8345,0.8284,0.8217,0.8243,0.8258,0.8258,0.8315,0.8382,0.8382,0.8382,0.8432,0.8528,0.8577,0.8627,0.8775,0.8825,0.8726,0.8432,0.8382,0.8382,0.8382,0.8382,0.8382,0.8382,0.8382,0.8382,0.8382,0.8382,0.8382,0.8382,0.8283,0.8187,0.8187,0.8187,0.8237,0.8382,0.8528,0.8696,0.8864,0.9101,0.9272,0.9489,0.9596,0.9686,0.9686,0.9768,0.9816,0.9816,0.9981,0.9981,0.9816,0.9816,0.9816,0.9816,0.9981,1.0036,1.0036,1.0308,1.0417,1.0417,1.0582,1.0747,1.0911,1.0911,1.1076,1.135,1.135,1.1459,1.1623,1.2298,1.2361,1.2476,1.2765,1.2737,1.283,1.3179,1.3203,1.3122,1.3011,1.2954,1.2863,1.2676,1.2846,1.3044,1.3261,1.3143,1.3027,1.3027,1.2668,1.2243,1.1764,1.1428,1.1016,1.0614,1.056,1.0359,1.0068,1.0068,0.9821,0.9381,0.9381,0.9278,0.9072,0.9072,0.9,0.8922,0.8922,0.8841,0.8753,0.8675,0.8616,0.8616,0.8569,0.8569,0.8573,0.8604,0.8659,0.8702,0.878,0.8825,0.8825,0.8825,0.8825,0.8825,0.8825,0.8825,0.8825,0.8874,0.8874,0.8878,0.8924,0.8924,0.8924,0.8924,0.8874,0.8825,0.8825,0.8825,0.8825,0.8825,0.8825,0.8825,0.8825,0.8825,0.8825,0.8825,0.8627,0.8482,0.8482,0.8482,0.8577,0.8775,0.8847,0.8987,0.921,0.938,0.9599,0.9762,0.9902,0.9981,0.9981,0.9981,0.9981,0.9981,1.0257,1.0421,1.0421,1.0198,1.0091,1.0036,1.0366,1.0531,1.0527,1.0966,1.1181,1.1185,1.1514,1.1623,1.1623,1.1623,1.1623,1.1678,1.1732,1.1732,1.1732,1.2971,1.3063,1.3182,1.3484,1.3403,1.3402,1.3742,1.3581,1.3517,1.3776,1.3714,1.3578,1.3548,1.3377,1.3261,1.3315,1.3285,1.327,1.327,1.3057,1.2777,1.2453,1.2015,1.1665,1.1443,1.1194,1.0855,1.0364,1.0364,1.0314,1.0216,1.0216,1.0216,1.0162,1.0162,1.0149,1.0177,1.0177,1.016,1.0121,0.9761,0.9602,0.9602,0.9367,0.9272,0.9292,0.9401,0.9276,0.9103,0.8867,0.8825,0.8825,0.8825,0.8825,0.8825,0.8825,0.8825,0.8874,0.9084,0.9133,0.9183,0.943,0.9476,0.9476,0.9476,0.9126,0.8825,0.8825,0.8825,0.8825,0.8825,0.8825,0.8825,0.8825,0.8825,0.8825,0.8825,0.8775,0.8726,0.8726,0.8726,0.8775,0.8775,0.9156,0.947,0.97,1.003,1.0365,1.0538,1.057,1.0582,1.0582,1.0582,1.0582,1.0582,1.0857,1.0966,1.0966,1.124,1.1181,1.0966,1.1295,1.1404,1.1404,1.1514,1.1514,1.1514,1.1568,1.1623,1.1623,1.1623,1.1732,1.1951,1.2223,1.2278,1.2278,1.343,1.3504,1.3569,1.3933,1.3915,1.3971,1.4267,1.4182,1.4136,1.4184,1.4078,1.3978,1.3724,1.3611,1.3591,1.3807,1.3807,1.3807,1.3807,1.3547,1.3275,1.3049,1.2566,1.2193,1.1979,1.1747,1.1541,1.1292,1.085,1.0556,1.0413,1.0413,1.0413,1.0413,1.0413,1.0413,1.0413,1.0413,1.0413,1.0404,1.0219,1.0135,1.0135,0.9989,0.9941,0.9953,1.0038,0.9871,0.9628,0.9521,0.9373,0.9225,0.9225,0.9225,0.9225,0.9225,0.9225,0.9274,0.9381,0.9529,0.9677,0.9772,0.992,1.0068,1.0068,0.9867,0.9616,0.9324,0.9225,0.9225,0.9225,0.9225,0.9225,0.9225,0.9225,0.9225,0.9225,0.913,0.9031,0.9031,0.9031,0.908,0.9229,0.9531,0.9812,0.9992,1.0278,1.0563,1.0899,1.0907,1.1021,1.1185,1.1185,1.1185,1.1185,1.1295,1.14,1.14,1.1678,1.1678,1.14,1.1514,1.1623,1.1623,1.1787,1.1896,1.206,1.2223,1.2387,1.255,1.255,1.2604,1.2713,1.2876,1.2876,1.2876]}]]